[[{"header":{"parameterUnit":"m.s-1","parameterCategory":1,"la1":31.0,"la2":29.5877,"lo1":-88.7671,"lo2":-86.6584,"dy":0.0162,"dx":0.0185,"nx":115,"ny":88,"refTime":"2023-07-29T06:00:00:Z","depth":0,"parameterNumber":2,"parameterNumberName":"U-component_of_WINDS"},"data":[0.0,0.0,0.0,0.0,0.0,0.0,0.0,0.0,0.0,0.0,0.0,0.0,0.0,0.0,0.0,0.0,0.0,0.0,0.0,0.0,0.0,0.0,0.0,0.0,0.0,0.0,0.0,0.0,0.0,0.0,0.0,0.0,0.0,0.0,0.0,0.0,0.0,0.0,0.0,0.0,0.0,0.0,0.0,0.0,0.0,0.0,0.0,0.0,0.0,0.0,0.0,0.0,0.0,0.0,0.0,0.0,0.0,0.0,0.0,0.0,0.0,0.0,0.0,0.0,0.0,0.0,0.0,0.0,0.0,0.0,0.0,0.0,0.0,0.0,0.0,0.0,0.0,0.0,0.0,0.0,0.0,0.0,0.0,0.0,0.0,0.0,0.0,0.0,0.0,0.0,0.0,0.0,0.0,0.0,0.0,0.0,0.0,0.0,0.0,0.0,0.0,0.0,0.0,0.0,0.0,0.0,0.0,0.0,0.0,0.0,0.0,0.0,0.0,0.0,0.0,0.0,0.0,0.0,0.0,0.0,0.0,0.0,0.0,0.0,0.0,0.0,0.0,0.0,0.0,0.0,0.0,0.0,0.0,0.0,0.0,0.0,0.0,0.0,0.0,0.0,0.0,0.0,0.0,0.0,0.0,0.0,0.0,0.0,0.0,0.0,0.0,0.0,0.0,0.0,0.0,0.0,0.0,0.0,0.0,0.0,0.0,0.0,0.0,0.0,0.0,0.0,0.0,0.0,0.0,0.0,0.0,0.0,0.0,0.0,0.0,0.0,0.0,0.0,0.0,0.0,0.0,0.0,0.0,0.0,0.0,0.0,0.0,0.0,0.0,0.0,0.0,0.0,0.0,0.0,0.0,0.0,0.0,0.0,0.0,0.0,0.0,0.0,0.0,0.0,0.0,0.0,0.0,0.0,0.0,0.0,0.0,0.0,0.0,0.0,0.0,0.0,0.0,0.0,0.0,0.0,0.0,0.0,0.0,0.0,0.0,0.0,0.0,0.0,0.0,0.0,0.0,0.0,0.0,0.0,0.0,0.0,0.0,0.0,0.0,0.0,0.0,0.0,0.0,0.0,0.0,0.0,0.0,0.0,0.0,0.0,0.0,0.0,0.0,0.0,0.0,0.0,0.0,0.0,0.0,0.0,0.0,0.0,0.0,0.0,0.0,0.0,0.0,0.0,0.0,0.0,0.0,0.0,0.0,0.0,0.0,0.0,0.0,0.0,0.0,0.0,0.0,0.0,0.0,0.0,0.0,0.0,0.0,0.0,0.0,0.0,0.0,0.0,0.0,0.0,0.0,0.0,0.0,0.0,0.0,0.0,0.0,0.0,0.0,0.0,0.0,0.0,0.0,0.0,0.0,0.0,0.0,0.0,0.0,0.0,0.0,0.0,0.0,0.0,0.0,0.0,0.0,0.0,0.0,0.0,0.0,0.0,0.0,0.0,0.0,0.0,0.0,0.0,0.0,0.0,0.0,0.0,0.0,0.0,0.0,0.0,0.0,0.0,0.0,0.0,0.0,0.0,0.0,0.0,0.0,0.0,0.0,0.0,0.0,0.0,0.0,0.0,0.0,0.0,0.0,0.0,0.0,0.0,0.0,0.0,0.0,0.0,0.0,0.0,0.0,0.0,0.0,0.0,0.0,0.0,0.0,0.0,0.0,0.0,0.0,0.0,0.0,0.0,0.0,0.0,0.0,0.0,0.0,0.0,0.0,0.0,0.0,0.0,0.0,0.0,0.0,0.0,0.0,0.0,0.0,0.0,0.0,0.0,0.0,0.0,0.0,0.0,0.0,0.0,0.0,0.0,0.0,0.0,0.0,0.0,0.0,0.0,0.0,0.0,0.0,0.0,0.0,0.0,0.0,0.0,0.0,0.0,0.0,0.0,0.0,0.0,0.0,0.0,0.0,0.0,0.0,0.0,0.0,0.0,0.0,0.0,0.0,0.0,0.0,0.0,0.0,0.0,0.0,0.0,0.0,0.0,0.0,0.0,0.0,0.0,0.0,0.0,0.0,0.0,0.0,0.0,0.0,0.0,0.0,0.0,0.0,0.0,0.0,0.0,0.0,0.0,0.0,0.0,0.0,0.0,0.0,0.0,0.0,0.0,0.0,0.0,0.0,0.0,0.0,0.0,0.0,0.0,0.0,0.0,0.0,0.0,0.0,0.0,0.0,0.0,0.0,0.0,0.0,0.0,0.0,0.0,0.0,0.0,0.0,0.0,0.0,0.0,0.0,0.0,0.0,0.0,0.0,0.0,0.0,0.0,0.0,0.0,0.0,0.0,0.0,0.0,0.0,0.0,0.0,0.0,0.0,0.0,0.0,0.0,0.0,0.0,0.0,0.0,0.0,0.0,0.0,0.0,0.0,0.0,0.0,0.0,0.0,0.0,0.0,0.0,0.0,0.0,0.0,0.0,0.0,0.0,0.0,0.0,0.0,0.0,0.0,0.0,0.0,0.0,0.0,0.0,0.0,0.0,0.0,0.0,0.0,0.0,0.0,0.0,0.0,0.0,0.0,0.0,0.0,0.0,0.0,0.0,0.0,0.0,0.0,0.0,0.0,0.0,0.0,0.0,0.0,0.0,0.0,0.0,0.0,0.0,0.0,0.0,0.0,0.0,0.0,0.0,0.0,0.0,0.0,0.0,0.0,0.0,0.0,0.0,0.0,0.0,0.0,0.0,0.0,0.0,0.0,0.0,0.0,0.0,0.0,0.0,0.0,0.0,0.0,0.0,0.0,0.0,0.0,0.0,0.0,0.0,0.0,0.0,0.0,0.0,0.0,0.0,0.0,0.0,0.0,0.0,0.0,0.0,0.0,0.0,0.0,0.0,0.0,0.0,0.0,0.0,0.0,0.0,0.0,0.0,0.0,0.0,0.0,0.0,0.0,0.0,0.0,0.0,0.0,0.0,0.0,0.0,0.0,0.0,0.0,0.0,0.0,0.0,0.0,0.0,0.0,0.0,0.0,0.0,0.0,0.0,0.0,0.0,0.0,0.0,0.0,0.0,0.0,0.0,0.0,0.0,0.0,0.0,0.0,0.0,0.0,0.0,0.0,0.0,0.0,0.0,0.0,0.0,0.0,0.0,0.0,0.0,0.0,0.0,0.0,0.0,0.0,0.0,0.0,0.0,0.0,0.0,0.0,0.0,0.0,0.0,0.0,0.0,0.0,0.0,0.0,0.0,0.0,0.0,0.0,0.0,0.0,0.0,0.0,0.0,0.0,0.0,0.0,0.0,0.0,0.0,0.0,0.0,0.0,0.0,0.0,0.0,0.0,0.0,0.0,0.0,0.0,0.0,0.0,0.0,0.0,0.0,0.0,0.0,0.0,0.0,0.0,0.0,0.0,0.0,0.0,0.0,0.0,0.0,0.0,0.0,0.0,0.0,0.0,0.0,0.0,0.0,0.0,0.0,0.0,0.0,0.0,0.0,0.0,0.0,0.0,0.0,0.0,0.0,0.0,0.0,0.0,0.0,0.0,0.0,0.0,0.0,0.0,0.0,0.0,0.0,0.0,0.0,0.0,0.0,0.0,0.0,0.0,0.0,0.0,0.0,0.0,0.0,0.0,0.0,0.0,0.0,0.0,0.0,0.0,0.0,0.0,0.0,0.0,0.0,0.0,0.0,0.0,0.0,0.0,0.0,0.0,0.0,0.0,0.0,0.0,0.0,0.0,0.0,0.0,0.0,0.0,0.0,0.0,0.0,0.0,0.0,0.0,0.0,0.0,0.0,0.0,0.0,0.0,0.0,0.0,0.0,0.0,0.0,0.0,0.0,0.0,0.0,0.0,0.0,0.0,0.0,0.0,0.0,0.0,0.0,0.0,0.0,0.0,0.0,0.0,0.0,0.0,0.0,0.0,0.0,0.0,0.0,0.0,0.0,0.0,0.0,0.0,0.0,0.0,0.0,0.0,0.0,0.0,0.0,0.0,0.0,0.0,0.0,0.0,0.0,0.0,0.0,0.0,0.0,0.0,0.0,0.0,0.0,0.0,0.0,0.0,0.0,0.0,0.0,0.0,0.0,0.0,0.0,0.0,0.0,0.0,0.0,0.0,0.0,0.0,0.0,0.0,0.0,0.0,0.0,0.0,0.0,0.0,0.0,0.0,0.0,0.0,0.0,0.0,0.0,0.0,0.0,0.0,0.0,0.0,0.0,0.0,0.0,0.0,0.0,0.0,0.0,0.0,0.0,0.0,0.0,0.0,0.0,0.0,0.0,0.0,0.0,0.0,0.0,0.0,0.0,0.0,0.0,0.0,0.0,0.0574,0.0,0.0,0.0,0.0,0.0,0.0,0.0,0.0,0.0,0.0,0.0,0.0,0.0,0.0,0.0,0.0,0.0,0.0,0.0,0.0,0.0,0.0,0.0,0.0,0.0,0.0,0.0,0.0,0.0,0.0,0.0,0.0,0.0,0.0,0.0,0.0,0.0,0.0,0.0,0.0,0.0,0.0,0.0,0.0,0.0,0.0,0.0,0.0,0.0,0.0,0.0,0.0,0.0,0.0,0.0,0.0,0.0,0.0,0.0,0.0,0.0,0.0,0.0,0.0,0.0,0.0,0.0,0.0,0.0,0.0,0.0,0.0,0.0,0.0,0.0,0.0,0.0,0.0,0.0,0.0,0.0,0.0,0.0,0.0,0.0,0.0,0.0,0.0,0.0,0.0,0.0,0.0,0.0,0.0,0.0,0.0,0.0,0.0,0.0,0.0,0.0,0.0,0.0,0.0,0.0,0.0,0.0,0.0,0.0,0.0,0.0718,0.0697,0.0698,0.0649,0.0553,0.0,0.0,0.0,0.0,0.0,0.0,0.0,0.0,0.0,0.0,0.0,0.0,0.0,0.0,0.0,0.0,0.0,0.0,0.0,0.0,0.0,0.0,0.0,0.0,0.0,0.0,0.0,0.0,0.0,0.0,0.0,0.0,0.0,0.0,0.0,0.0,0.0,0.0,0.0,0.0,0.0,0.0,0.0,0.0,0.0,0.0,0.0,0.0,0.0,0.0,0.0,0.0,0.0,0.0,0.0,0.0,0.0,0.0,0.0,0.0,0.0,0.0,0.0,0.0,0.0,0.0,0.0,0.0,0.0,0.0,0.0,0.0,0.0,0.0,0.0,0.0,0.0,0.0,0.0,0.0,0.0,0.0,0.0,0.0,0.0,0.0,0.0,0.0,0.0,0.0,0.0,0.0,0.0,0.0,0.0,0.0,0.0,0.0,0.0,0.0,0.0,0.0,0.0,0.0,0.0,0.0,0.0,0.0,0.0,0.0,0.0,0.0,0.0586,0.059,0.0552,0.0,0.0,0.0,0.0,0.0,0.0,0.0,0.0,0.0,0.0,0.0,0.0,0.0,0.0,0.0,0.0,0.0,0.0,0.0,0.0,0.0,0.0,0.0,0.0,0.0,0.0,0.0,0.0,0.0,0.0,0.0,0.0,0.0,0.0,0.0,0.0,0.0,0.0,0.0,0.0,0.0,0.0,0.0,0.0,0.0,0.0,0.0,0.0,0.0,0.0,0.0,0.0,0.0,0.0,0.0,0.0,0.0,0.0,0.0,0.0,0.0,0.0,0.0,0.0,0.0,0.0,0.0,0.0,0.0,0.0,0.0,0.0,0.0,0.0,0.0,0.0,0.0,0.0,0.0,0.0,0.0,0.0,0.0,0.0,0.0,0.0,0.0,0.0,0.0,0.0,0.0,0.0,0.0,0.0,0.0,0.0,0.0,0.0,0.0,0.0,0.0,0.0,0.0,0.0,0.0,0.0,0.0,0.0,0.0,0.0,0.0541,0.0608,0.0541,0.0,0.069,0.0,0.0,0.0,0.0,0.0,0.0,0.0,0.0,0.0,0.0,0.0,0.0,0.0,0.0,0.0,0.0,0.0,0.0,0.0,0.0,0.0,0.0,0.0,0.0,0.0,0.0,0.0,0.0,0.0,0.0,0.0,0.0,0.0,0.0,0.0,0.0,0.0,0.0,0.0,0.0,0.0,0.0,0.0,0.0,0.0,0.0,0.0,0.0,0.0,0.0,0.0,0.0,0.0,0.0,0.0,0.0,0.0,0.0,0.0,0.0,0.0,0.0,0.0,0.0,0.0,0.0,0.0,0.0,0.0,0.0,0.0,0.0,0.0,0.0,0.0,0.0,0.0,0.0,0.0,0.0,0.0,0.0,0.0,0.0,0.0,0.0,0.0,0.0,0.0,0.0,0.0,0.0,0.0,0.0,0.0,0.0,0.0,0.0,0.0,0.0,0.0,0.0,0.0,0.0,0.0,0.0,0.0,0.0,0.0,0.0,0.0451,0.0473,0.0451,0.0518,0.0,0.0,0.0,0.0,0.0,0.0,0.0,0.0,0.0,0.0,0.0,0.0,0.0,0.0,0.0,0.0,0.0,0.0,0.0,0.0,0.0,0.0,0.0,0.0,0.0,0.0,0.0,0.0,0.0,0.0,0.0,0.0,0.0,0.0,0.0,0.0,0.0,0.0,0.0,0.0,0.0,0.0,0.0,0.0,0.0,0.0,0.0,0.0,0.0,0.0,0.0,0.0,0.0,0.0,0.0,0.0,0.0,0.0,0.0,0.0,0.0,0.0,0.0,0.0,0.0,0.0,0.0,0.0,0.0,0.0,0.0,0.0,0.0,0.0,0.0,0.0,0.0,0.0,0.0,0.0,0.0,0.0,0.0,0.0,0.0,0.0,0.0,0.0,0.0,0.0,0.0,0.0,0.0,0.0,0.0,0.0,0.0,0.0,0.0,0.0,0.0,0.0,0.0,0.0,0.0,0.0,0.0,0.0,0.0,0.0,0.0428,0.0406,0.0406,0.0406,0.0473,0.0608,0.0,0.0,0.0,0.0,0.0,0.0,0.0,0.0,0.0,0.0,0.0,0.0,0.0,0.0,0.0,0.0,0.0,0.0,0.0,0.0,0.0,0.0,0.0,0.0,0.0,0.0,0.0,0.0,0.0,0.0,0.0,0.0,0.0,0.0,0.0,0.0,0.0,0.0,0.0,0.0,0.0,0.0,0.0,0.0,0.0,0.0,0.0,0.0,0.0,0.0,0.0,0.0,0.0,0.0,0.0,0.0,0.0,0.0,0.0,0.0,0.0,0.0,0.0,0.0,0.0,0.0,0.0,0.0,0.0,0.0,0.0,0.0,0.0,0.0,0.0,0.0,0.0,0.0,0.0,0.0,0.0,0.0,0.0,0.0,0.0,0.0,0.0,0.0,0.0,0.0,0.0,0.0,0.0,0.0,0.0,0.0,0.0,0.0,0.0,0.0,0.0,0.0,0.0,0.0,0.0,0.0,0.0,0.0,0.0408,0.0406,0.0406,0.0407,0.0406,0.0406,0.0,0.0,0.0,0.0,0.0,0.0,0.0,0.0,0.0,0.0,0.0,0.0,0.0,0.0,0.0,0.0,0.0,0.0,0.0,0.0,0.0,0.0,0.0,0.0,0.0,0.0,0.0,0.0,0.0,0.0,0.0,0.0,0.0,0.0,0.0,0.0,0.0,0.0,0.0,0.0,0.0,0.0,0.0,0.0,0.0,0.0,0.0,0.0,0.0,0.0,0.0,0.0,0.0,0.0,0.0,0.0,0.0,0.0,0.0,0.0,0.0,0.0,0.0,0.0,0.0,0.0,0.0,0.0,0.0,0.0,0.0,0.0,0.0,0.0,0.0,0.0,0.0,0.0,0.0,0.0,0.0,0.0,0.0,0.0,0.0,0.0,0.0,0.0,0.0,0.0,0.0,0.0,0.0,0.0,0.0,0.0,0.0,0.0,0.0,0.0,0.0,0.0,0.0,0.0,0.0,0.0,0.0,0.0,0.0,0.0394,0.0392,0.034,0.0261,0.0349,0.038,0.0,0.0,0.0,0.0,0.0,0.0,0.0,0.0,0.0,0.0,0.0,0.0,0.0,0.0,0.0,0.0,0.0,0.0,0.0,0.0,0.0,0.0,0.0,0.0,0.0,0.0,0.0,0.0,0.0,0.0,0.0,0.0,0.0,0.0,0.0,0.0,0.0,0.0,0.0,0.0,0.0,0.0,0.0,0.0,0.0,0.0,0.0,0.0,0.0,0.0,0.0,0.0,0.0,0.0,0.0,0.0,0.0,0.0,0.0,0.0,0.0,0.0,0.0,0.0,0.0,0.0,0.0,0.0,0.0,0.0,0.0,0.0,0.0,0.0,0.0,0.0,0.0,0.0,0.0,0.0,0.0,0.0,0.0,0.0,0.0,0.0,0.0,0.0,0.0,0.0,0.0,0.0,0.0,0.0,0.0,0.0,0.0,0.0,0.0,0.0,0.0,0.0,0.0,0.0,0.0,0.0,0.0,0.0,0.0,0.0339,0.0,0.0338,0.0,0.0296,0.0333,0.0,0.0,0.0,0.0,0.0,0.0,0.0,0.0,0.0,0.0,0.0,0.0,0.0,0.0,0.0,0.0,0.0,0.0,0.0,0.0,0.0,0.0,0.0,0.0,0.0,0.0,0.0,0.0,0.0,0.0,0.0,0.0,0.0,0.0,0.0,0.0,0.0,0.0,0.0,0.0,0.0,0.0,0.0,0.0,0.0,0.0,0.0,0.0,0.0,0.0,0.0,0.0,0.0,0.0,0.0,0.0,0.0,0.0,0.0,0.0,0.0,0.0,0.0,0.0,0.0,0.0,0.0,0.0,0.0,0.0,0.0,0.0,0.0,0.0,0.0,0.0,0.0,0.0,0.0,0.0,0.0,0.0,0.0,0.0,0.0,0.0,0.0,0.0,0.0,0.0,0.0,0.0,0.0,0.0,0.0,0.0,0.0,0.0,0.0,0.0,0.0,0.0,0.0,0.0,0.0,0.0,0.0,0.0,0.0241,0.0199,0.0313,0.0316,0.0198,0.0255,0.0282,0.0,0.0,0.0,0.0,0.0,0.0,0.0,0.0,0.0,0.0,0.0,0.0,0.0,0.0,0.0,0.0,0.0,0.0,0.0,0.0,0.0,0.0,0.0,0.0,0.0,0.0,0.0,0.0,0.0,0.0,0.0,0.0,0.0,0.0,0.0,0.0,0.0,0.0,0.0,0.0,0.0,0.0,0.0,0.0,0.0,0.0,0.0,0.0,0.0,0.0,0.0,0.0,0.0,0.0,0.0,0.0,0.0,0.0,0.0,0.0,0.0,0.0,0.0,0.0,0.0,0.0,0.0,0.0,0.0,0.0,0.0,0.0,0.0,0.0,0.0,0.0,0.0,0.0,0.0,0.0,0.0,0.0,0.0,0.0,0.0,0.0,0.0,0.0,0.0,0.0,0.0,0.0,0.0,0.0,0.0,0.0,0.0,0.0,0.0,0.0,0.0,0.0,0.0,0.0,0.0,0.0,0.0,0.0,0.0,-0.0238,-0.0176,-0.0179,-0.0214,-0.0,0.0031,0.0,0.0,0.0,0.0,0.0,0.0,0.0,0.0,0.0,0.0,0.0,0.0,0.0,0.0,0.0,0.0,0.0,0.0,0.0,0.0,0.0,0.0,0.0,0.0,0.0,0.0,0.0,0.0,0.0,0.0,0.0,0.0,0.0,0.0,0.0,0.0,0.0,0.0,0.0,0.0,0.0,0.0,0.0,0.0,0.0,0.0,0.0,0.0,0.0,0.0,0.0,0.0,0.0,0.0,0.0,0.0,0.0,0.0,0.0,0.0,0.0,0.0,0.0,0.0,0.0,0.0,0.0,0.0,0.0,0.0,0.0,0.0,0.0,0.0,0.0,0.0,0.0,0.0,0.0,0.0,0.0,0.0,0.0,0.0,0.0,0.0,0.0,0.0,0.0,0.0,0.0,0.0,0.0,0.0,0.0,0.0,0.0,0.0,0.0,0.0,0.0,0.0,0.0,0.0,0.0,0.0,0.0,0.0,0.0,-0.0543,-0.0539,-0.0538,-0.0538,-0.0269,-0.0215,-0.0306,0.0,0.0,0.0,0.0,0.0,0.0,0.0,0.0,0.0,0.0,0.0,0.0,0.0,0.0,0.0,0.0,0.0,0.0,0.0,0.0,0.0,0.0,0.0,0.0,0.0,0.0,0.0,0.0,0.0,0.0,0.0,0.0,0.0,0.0,0.0,0.0,0.0,0.0,0.0,0.0,0.0,0.0,0.0,0.0,0.0,0.0,0.0,0.0,0.0,0.0,0.0,0.0,0.0,0.0,0.0,0.0,0.0,0.0,0.0,0.0,0.0,0.0,0.0,0.0,0.0,0.0,0.0,0.0,0.0,0.0,0.0,0.0,0.0,0.0,0.0,0.0,0.0,0.0,0.0,0.0,0.0,0.0,0.0,0.0,0.0,0.0,0.0,0.0,0.0,0.0,0.0,0.0,0.0,0.0,0.0,0.0,0.0,0.0,0.0,0.0,0.0,0.0,0.0,0.0,0.0,0.0,0.0,0.0,-0.0811,-0.0809,-0.0826,-0.0776,-0.0568,-0.0375,0.0,0.0,0.0,0.0,0.0,0.0,0.0,0.0,0.0,0.0,0.0,0.0,0.0,0.0,0.0,0.0,0.0,0.0,0.0,0.0,0.0,0.0,0.0,0.0,0.0,0.0,0.0,0.0,0.0,0.0,0.0,0.0,0.0,0.0,0.0,0.0,0.0,0.0,0.0,0.0,0.0,0.0,0.0,0.0,0.0,0.0,0.0,0.0,0.0,0.0,0.0,0.0,0.0,0.0,0.0,0.0,0.0,0.0,0.0,0.0,0.0,0.0,0.0,0.0,0.0,0.0,0.0,0.0,0.0,0.0,0.0,0.0,0.0,0.0,0.0,0.0,0.0,0.0,0.0,0.0,0.0,0.0,0.0,0.0,0.0,0.0,0.0,0.0,0.0,0.0,0.0,0.0,0.0,0.0,0.0,0.0,0.0,0.0,0.0,0.0,0.0,0.0,0.0,0.0,0.0,0.0,0.0,0.0,0.0,-0.0873,-0.0902,-0.0896,-0.0851,-0.075,-0.0664,0.0,0.0,0.0,0.0,0.0,0.0,0.0,0.0,0.0,0.0,0.0,0.0,0.0,0.0,0.0,0.0,0.0,0.0,0.0,0.0,0.0,0.0,0.0,0.0,0.0,0.0,0.0,0.0,0.0,0.0,0.0,0.0,0.0,0.0,0.0,0.0,0.0,0.0,0.0,0.0,0.0,0.0,0.0,0.0,0.0,0.0,0.0,0.0,0.0,0.0,0.0,0.0,0.0,0.0,0.0,0.0,0.0,0.0,0.0,0.0,0.0,0.0,0.0,0.0,0.0,0.0,0.0,0.0,0.0,0.0,0.0,0.0,0.0,0.0,0.0,0.0,0.0,0.0,0.0,0.0,0.0,0.0,0.0,0.0,0.0,0.0,0.0,0.0,0.0,0.0,0.0,0.0,0.0,0.0,0.0,0.0,0.0,0.0,0.0,0.0,0.0,0.0,0.0,0.0,0.0,0.0,0.0,0.0,-0.0955,-0.0917,-0.0976,-0.099,-0.0956,-0.0883,-0.0825,0.0,0.0,0.0,0.0,0.0,0.0,0.0,0.0,0.0,0.0,0.0,0.0,0.0,0.0,0.0,0.0,0.0,0.0,0.0,0.0,0.0,0.0,0.0,0.0,0.0,0.0,0.0,0.0,0.0,0.0,0.0,0.0,0.0,0.0,0.0,0.0,0.0,0.0,0.0,0.0,0.0,0.0,0.0,0.0,0.0,0.0,0.0,0.0,0.0,0.0,0.0,0.0,0.0,0.0,0.0,0.0,0.0,0.0,0.0,0.0,0.0,0.0,0.0,0.0,0.0,0.0,0.0,0.0,0.0,0.0,0.0,0.0,0.0,0.0,0.0,0.0,0.0,0.0,0.0,0.0,0.0,0.0,0.0,0.0,0.0,0.0,0.0,0.0,0.0,0.0,0.0,0.0,0.0,0.0,0.0,0.0,0.0,0.0,0.0,0.0,0.0,0.0,0.0,0.0,0.0,0.0,0.0,0.0,-0.1121,-0.0889,-0.1004,-0.1032,-0.1027,-0.0947,-0.0875,0.0,0.0,0.0,0.0,0.0,0.0,0.0,0.0,0.0,0.0,0.0,0.0,0.0,0.0,0.0,0.0,0.0,0.0,0.0,0.0,0.0,0.0,0.0,0.0,0.0,0.0,0.0,0.0,0.0,0.0,0.0,0.0,0.0,0.0,0.0,0.0,0.0,0.0,0.0,0.0,0.0,0.0,0.0,0.0,0.0,0.0,0.0,0.0,0.0,0.0,0.0,0.0,0.0,0.0,0.0,0.0,0.0,0.0,0.0,0.0,0.0,0.0,0.0,0.0,0.0,0.0,0.0,0.0,0.0,0.0,0.0,0.0,0.0,0.0,0.0,0.0,0.0,0.0,0.0,0.0,0.0,0.0,0.0,0.0,0.0,0.0,0.0,0.0,0.0,0.0,0.0,0.0,0.0,0.0,0.0,0.0,0.0,0.0,0.0,0.0,0.0,0.0,0.0,0.0,0.0,0.0,0.0,0.0,-0.1134,-0.0979,-0.1014,-0.1022,-0.0999,-0.0956,-0.0859,0.0,0.0,0.0,0.0,0.0,0.0,0.0,0.0,0.0,0.0,0.0,0.0,0.0,0.0,0.0,0.0,0.0,0.0,0.0,0.0,0.0,0.0,0.0,0.0,0.0,0.0,0.0,0.0,0.0,0.0,0.0,0.0,0.0,0.0,0.0,0.0,0.0,0.0,0.0,0.0,0.0,0.0,0.0,0.0,0.0,0.0,0.0,0.0,0.1151,0.0,0.0,0.0,0.0,0.0,0.0,0.0,0.0,0.0,0.0,0.0,0.0,0.0,0.0,0.0,0.0,0.0,0.0,0.0,0.0,0.0,0.0,0.0,0.0,0.0,0.0,0.0,0.0,0.0,0.0,0.0,0.0,0.0,0.0,0.0,0.0,0.0,0.0,0.0,0.0,0.0,0.0,0.0,0.0,0.0,0.0,0.0,0.0,0.0,0.0,0.0,0.0,0.0,0.0,0.0,0.0,0.0,0.0,0.0,-0.1544,-0.0967,-0.1227,-0.1236,-0.1049,-0.0899,-0.0922,0.0,0.0,0.0,0.0,0.0,0.0,0.0,0.0,0.0,0.0,0.0,0.0,0.0,0.0,0.0,0.0,0.0,0.0,0.0,0.0,0.0,0.0,0.0,0.0,0.0,0.0,0.0,0.0,0.0,0.0,0.0,0.0,0.0,0.0,0.0,0.0,0.0,0.0,0.0,0.0,0.0,0.0,0.0,0.0,0.0,0.0,0.0,0.0,0.0,0.0,0.0,0.0,0.0,0.0,0.0,0.0,0.0,0.0,0.0,0.0,0.0,0.0,0.0,0.0,0.0,0.0,0.0,0.0,0.0,0.0,0.0,0.0,0.0,0.0,0.0,0.0,0.0,0.0,0.0,0.0,0.0,0.0,0.0,0.0,0.0,0.0,0.0,0.0,0.0,0.0,0.0,0.0,0.0,0.0,0.0,0.0,0.0,0.0,0.0,0.0,0.0,0.0,0.0,0.0,0.0,0.0,0.0,-0.2244,-0.2138,-0.1314,-0.1729,-0.1808,-0.1356,-0.1203,-0.1206,-0.1227,0.0,0.0,0.0,0.0,0.0,0.0,0.0,0.0,0.0,0.0,0.0,0.0,0.0,0.0,0.0,0.0,0.0,0.0,0.0,0.0,0.0,0.0,0.0,0.0,0.0,0.0,0.0,0.0,0.0,0.0,0.0,0.0,0.0,0.0,0.0,0.0,0.0,0.0,0.1446,0.1589,0.0,0.0,0.0,0.0,0.0,0.0,0.0,0.0,0.0763,0.0,0.0,0.0,0.0,0.0,0.0,0.0,0.0,0.0,0.0,0.0,0.0,0.0,0.0,0.0,0.0,0.0,0.0,0.0,0.0,0.0,0.0,0.0,0.0,0.0,0.0,0.0,0.0,0.0,0.0,0.0,0.0,0.0,0.0,0.0,0.0,0.0,0.0,0.0,0.0,0.0,0.0,0.0,0.0,0.0,0.0,0.0,0.0,0.0,0.0,0.0,0.0,0.0,0.0,0.0,0.0,-0.2713,-0.2881,-0.2905,-0.2847,-0.2912,-0.2886,-0.2774,-0.2388,-0.2225,-0.2193,0.0,0.0,0.0,0.0,0.0,0.0,0.0,0.0,0.0,0.0,0.0,0.0,0.0,0.0,0.0,0.0,0.0,0.0,0.0,0.0,0.0,0.0,0.0,0.0,0.0,0.0,0.0,0.0,0.0,0.0,0.0,0.0,0.0,0.0,0.0,0.0,0.0,0.0,0.0,0.1699,0.1721,0.0,0.0,0.0,0.0,0.0,0.0,0.0,0.0,0.0405,0.0,0.0,0.0,0.0,0.0,0.0,0.0,0.0,0.0,0.0,0.0,0.0,0.0,0.0,0.0,0.0,0.0,0.0,0.0,0.0,0.0,0.0,0.0,0.0,0.0,0.0,0.0,0.0,0.0,0.0,0.0,0.0,0.0,0.0,0.0,0.0,0.0,0.0,0.0,0.0,0.0,0.0,0.0,0.0,0.0,0.0,0.0,0.0,0.0,0.0,0.0,0.0,0.0,0.0,0.0,-0.3042,-0.351,-0.3613,-0.3268,-0.3479,-0.3456,-0.3145,-0.2789,-0.263,0.0,0.0,0.0,0.0,0.0,0.0,0.0,0.0,0.0,0.0,0.0,0.0,0.0,0.0,0.0,0.0,0.0,0.0,0.0,0.0,0.0,0.0,0.0,0.0,0.0,0.0,0.0,0.0,0.0,0.0,0.0,0.0,0.0,0.0,0.0,0.0,0.0,0.0,0.0,0.0,0.1892,0.2062,0.1441,0.0,0.0,0.0,0.0,0.0,0.0,-0.0319,-0.0374,0.0,0.0,0.0,0.0,0.0,0.0,0.0,0.0,0.0,0.0,0.0,0.0,0.0,0.0,0.0,0.0,0.0,0.0,0.0,0.0,0.0,0.0,0.0,0.0,0.0,0.0,0.0,0.0,0.0,0.0,0.0,0.0,0.0,0.0,0.0,0.0,0.0,0.0,0.0,0.0,0.0,0.0,0.0,0.0,0.0,0.0,0.0,0.0,0.0,0.0,0.0,0.0,0.0,0.0,0.0,-0.3313,-0.4088,-0.4273,-0.368,-0.4053,-0.405,-0.3685,-0.3255,-0.3021,0.0,0.0,0.0,0.0,0.0,0.0,0.0,0.0,0.0,0.0,0.0,0.0,0.0,0.0,0.0,0.0,0.0,0.0,0.0,0.0,0.0,0.0,0.0,0.0,0.0,0.0,0.0,0.0,0.0,0.0,0.0,0.0,0.0,0.0,0.0,0.0,0.0,0.0,0.0,0.0,0.0,0.198,0.1206,0.1136,0.0,0.0,0.0,0.0,-0.0796,-0.0939,0.0,0.0,0.0,0.0,0.0,0.0,0.0,0.0,0.0,0.0,0.0,0.0,0.0,0.0,0.0,0.0,0.0,0.0,0.0,0.0,0.0,0.0,0.0,0.0,0.0,0.0,0.0,0.0,0.0,0.0,0.0,0.0,0.0,0.0,0.0,0.0,0.0,0.0,0.0,0.0,0.0,0.0,0.0,0.0,0.0,0.0,0.0,0.0,0.0,0.0,0.0,0.0,0.0,0.0,0.0,0.0,-0.4324,-0.4469,-0.473,-0.5124,-0.5183,-0.5183,-0.513,-0.4615,-0.4121,0.0,0.0,0.0,0.0,0.0,0.0,0.0,0.0,0.0,0.0,0.0,0.0,0.0,0.0,0.0,0.0,0.0,0.0,0.0,0.0,0.0,0.0,0.0,0.0,0.0,0.0,0.0,0.0,0.0,0.0,0.0,0.0,0.0,0.0,0.0,0.0,0.0,0.0,0.0,0.0,0.0,0.0522,0.1314,0.0923,0.0144,0.0,0.0,0.0,-0.1872,-0.1486,0.0,0.0,0.0,0.0,0.0,0.0,0.0,0.0,0.0,0.0,0.0,0.0,0.0,0.0,0.0,0.0,0.0,0.0,0.0,0.0,0.0,0.0,0.0,0.0,0.0,0.0,0.0,0.0,0.0,0.0,0.0,0.0,0.0,0.0,0.0,0.0,0.0,0.0,0.0,0.0,0.0,0.0,0.0,0.0,0.0,0.0,0.0,0.0,0.0,0.0,0.0,0.0,0.0,0.0,0.0,-0.396,-0.4593,-0.4876,-0.5155,-0.5488,-0.5491,-0.5518,-0.5432,-0.496,-0.4594,0.0,0.0,0.0,0.0,0.0,0.0,0.0,0.0,0.0,0.0,0.0,0.0,0.0,0.0,0.0,0.0,0.0,0.0,0.0,0.0,0.0,0.0,0.0,0.0,0.0,0.0,0.0,0.0,0.0,0.0,0.0,0.0,0.0,0.0,0.0,0.0,0.0,0.0,0.0,0.0,0.0,0.0,0.0142,0.0366,0.0,0.0,0.0,-0.2152,-0.2122,0.0,0.0,0.0,0.0,0.0,0.0,0.0,0.0,0.0,0.0,0.0,0.0,0.0,0.0,0.0,0.0,0.0,0.0,0.0,0.0,0.0,0.0,0.0,0.0,0.0,0.0,0.0,0.0,0.0,0.0,0.0,0.0,0.0,0.0,0.0,0.0,0.0,0.0,0.0,0.0,0.0,0.0,0.0,0.0,0.0,0.0,0.0,0.0,0.0,0.0,0.0,0.0,0.0,0.0,0.0,0.0,0.0,-0.4672,-0.5009,-0.5275,-0.5454,-0.552,-0.5446,-0.5296,-0.5123,0.0,0.0,0.0,0.0,0.0,0.0,0.0,0.0,0.0,0.0,0.0,0.0,0.0,0.0,0.0,0.0,0.0,0.0,0.0,0.0,0.0,0.0,0.0,0.0,0.0,0.0,0.0,-0.138,0.0,0.0,0.0,0.0,0.0,0.0,0.0,0.0,0.0,0.0,0.0,0.0,0.0,0.0,-0.0415,-0.1159,-0.0673,-0.061,0.0,0.0,-0.2431,-0.2237,-0.2339,-0.2387,0.0,0.0,0.0,0.0,0.0,0.0,0.0,0.0,0.0,0.0,0.0,0.0,0.0,0.0,0.0,0.0,0.0,0.0,0.0,0.0,0.0,0.0,0.0,0.0,0.0,0.0,0.0,0.0,0.0,0.0,0.0,0.0,0.0,0.0,0.0,0.0,0.0,0.0,0.0,0.0,0.0,0.0,0.0,0.0,0.0,0.0,0.0,0.0,0.0,0.0,0.0,0.0,0.0,0.0,0.0,-0.4604,-0.4801,-0.4947,-0.5044,-0.524,-0.5238,-0.516,-0.5282,-0.5142,0.0,0.0,0.0,0.0,0.0,0.0,0.0,0.0,0.0,0.0,0.0,0.0,0.0,0.0,0.0,0.0,0.0,0.0,0.0,0.0,0.0,0.0,0.0,0.0,0.0,0.0,0.0,0.0,0.0,0.0,0.0,0.0,0.0,0.0,0.0,0.0,0.0,0.0,0.0,0.0,0.0,-0.1979,-0.2253,-0.228,-0.2347,0.0,0.0,-0.2503,-0.2499,-0.2501,-0.2539,-0.2557,0.0,0.0,0.0,0.0,0.0,0.0,0.0,0.0,0.0,0.0,0.0,0.0,0.0,0.0,0.0,0.0,0.0,0.0,0.0,0.0,0.0,0.0,0.0,0.0,0.0,0.0,0.0,0.0,0.0,0.0,0.0,0.0,0.0,0.0,0.0,0.0,0.0,0.0,0.0,0.0,0.0,0.0,0.0,0.0,0.0,0.0,0.0,0.0,0.0,0.0,0.0,0.0,0.0,-0.4296,-0.4745,-0.4928,-0.5182,-0.5422,-0.5412,-0.544,-0.5433,-0.5501,-0.5359,0.0,0.0,0.0,0.0,0.0,0.0,0.0,0.0,0.0,0.0,0.0,0.0,0.0,0.0,0.0,0.0,0.0,0.0,0.0,0.0,0.0,0.0,0.0,0.0,0.0,0.0,0.0,0.0,-0.1977,-0.2016,-0.2122,0.0,0.0,0.0,0.0,0.0,0.0,0.0,0.0,0.0,0.0,-0.1958,-0.2233,-0.2151,0.0,0.0,-0.251,-0.251,-0.2668,-0.2588,-0.256,-0.2773,-0.2923,0.0,0.0,0.0,0.0,0.0,0.0,0.0,0.0,0.0,0.0,0.0,0.0,0.0,0.0,0.0,0.0,0.0,0.0,0.0,0.0,0.0,0.0,0.0,0.0,0.0,0.0,0.0,0.0,0.0,0.0,0.0,0.0,0.0,0.0,0.0,0.0,0.0,0.0,0.0,0.0,0.0,0.0,0.0,0.0,0.0,0.0,0.0,0.0,0.0,0.0,0.0,0.0,-0.4426,-0.4737,-0.4984,-0.524,-0.5498,-0.5447,-0.5474,-0.559,-0.5584,-0.5552,0.0,0.0,0.0,0.0,0.0,0.0,0.0,0.0,0.0,0.0,0.0,0.0,0.0,0.0,0.0,0.0,0.0,0.0,0.0,0.0,0.0,0.0,0.0,0.0,0.0,0.0,0.0,0.0,-0.2154,-0.2193,-0.2318,0.0,0.0,0.0,0.0,0.0,0.0,0.0,0.0,0.0,0.0,-0.2102,-0.2369,-0.2186,-0.2213,-0.2669,-0.2586,-0.2665,-0.3061,-0.3059,-0.3042,-0.3144,0.0,0.0,0.0,0.0,0.0,0.0,0.0,0.0,0.0,0.0,0.0,0.0,0.0,0.0,0.0,0.0,0.0,0.0,0.0,0.0,0.0,0.0,0.0,0.0,0.0,0.0,0.0,0.0,0.0,0.0,0.0,0.0,0.0,0.0,0.0,0.0,0.0,0.0,0.0,0.0,0.0,0.0,0.0,0.0,0.0,0.0,0.0,0.0,0.0,0.0,0.0,0.0,0.0,0.0,-0.4718,-0.4885,-0.5027,-0.5133,-0.5149,-0.53,-0.5519,-0.5656,-0.5793,-0.5779,0.0,0.0,0.0,0.0,0.0,0.0,0.0,0.0,0.0,0.0,0.0,0.0,0.0,0.0,0.0,0.0,0.0,0.0,0.0,0.0,0.0,0.0,0.0,0.0,0.0,0.0,-0.2562,-0.2375,-0.2321,0.0,0.0,0.0,0.0,0.0,0.0,0.0,0.0,0.0,0.0,-0.2433,-0.2586,-0.2746,-0.2637,-0.2734,-0.3306,-0.2899,-0.282,-0.369,-0.4084,-0.4157,0.0,0.0,0.0,0.0,0.0,0.0,0.0,0.0,0.0,0.0,0.0,0.0,0.0,0.0,0.0,0.0,0.0,0.0,0.0,0.0,0.0,0.0,0.0,0.0,0.0,0.0,0.0,-0.6138,-0.6908,0.0,0.0,0.0,0.0,0.0,0.0,0.0,0.0,0.0,0.0,0.0,-0.6849,-0.7099,0.0,0.0,0.0,0.0,0.0,0.0,0.0,0.0,0.0,0.0,0.0,0.0,-0.4842,-0.4765,-0.4934,-0.5074,-0.5254,-0.513,-0.5211,-0.5439,-0.5513,-0.558,-0.5725,0.0,0.0,0.0,0.0,0.0,0.0,0.0,0.0,0.0,0.0,0.0,0.0,0.0,0.0,0.0,0.0,0.0,0.0,0.0,0.0,0.0,0.0,0.0,0.0,0.0,-0.2548,0.0,0.0,0.0,0.0,0.0,0.0,0.0,0.0,0.0,0.0,0.0,-0.242,-0.289,-0.3142,-0.3451,-0.3858,-0.3301,-0.3306,0.0,0.0,0.0,0.0,0.0,0.0,0.0,0.0,0.0,0.0,0.0,0.0,0.0,0.0,-0.2581,-0.2441,-0.2606,-0.2725,-0.2725,0.0,0.0,0.0,0.0,0.0,0.0,0.0,0.0,0.0,0.0,0.0,0.0,0.0,0.0,0.0,0.0,-0.9049,0.0,0.0,0.0,0.0,0.0,0.0,0.0,0.0,-0.823,-0.815,-0.7803,-0.8068,-0.8056,0.0,-0.8052,-0.7669,0.0,0.0,0.0,0.0,0.0,0.0,0.0,0.0,-0.4997,-0.483,-0.4953,-0.509,-0.5315,-0.5194,-0.5225,-0.5427,-0.5578,-0.5651,-0.5878,-0.5577,-0.5345,0.0,0.0,0.0,0.0,0.0,0.0,0.0,0.0,0.0,0.0,0.0,0.0,0.0,0.0,0.0,0.0,0.0,0.0,0.0,0.0,0.0,0.0,0.0,-0.2922,0.0,0.0,0.0,0.0,0.0,0.0,0.0,0.0,0.0,-0.2631,-0.2533,-0.2651,-0.3146,-0.4214,-0.485,-0.4669,0.0,0.0,0.0,0.0,0.0,0.0,0.0,-0.546,-0.5594,-0.5684,-0.565,-0.5732,-0.5451,-0.4811,-0.3611,0.0,0.0,-0.2809,-0.2754,-0.2803,-0.2803,-0.2898,-0.2984,-0.2961,-0.2918,-0.2876,0.0,0.0,0.0,0.0,0.0,0.0,0.0,0.0,-0.9528,-1.013,0.0,-1.126,0.0,0.0,0.0,0.0,0.0,0.0,0.0,0.0,-0.9168,-0.9219,-0.9044,-0.9219,-0.9223,-0.9048,-0.9048,-0.8935,-0.8685,-0.7686,0.0,0.0,0.0,0.0,0.0,0.0,-0.5088,-0.4857,-0.4974,-0.5104,-0.5323,-0.5205,-0.5275,-0.5553,-0.5786,-0.5941,-0.6254,-0.5878,-0.5587,-0.5309,-0.4718,0.0,0.0,0.0,0.0,0.0,0.0,0.0,0.0,0.0,0.0,0.0,0.0,0.0,0.0,0.0,0.0,0.0,0.0,0.0,0.0,-0.3321,0.0,0.0,0.0,0.0,0.0,0.0,0.0,0.0,0.0,0.0,-0.3076,-0.2654,-0.2651,-0.3109,0.0,0.0,0.0,0.0,-0.5761,-0.5898,-0.6989,-0.7511,-0.6389,-0.6127,-0.6086,-0.5961,0.0,0.0,-0.6052,-0.6207,-0.5865,-0.376,-0.4676,-0.526,-0.3512,-0.3214,-0.3016,-0.2938,-0.323,-0.3336,-0.32,-0.3172,-0.3227,-0.9517,0.0,0.0,0.0,0.0,-0.87,-0.9439,-1.0282,-1.0764,-1.1465,-1.2285,-1.287,0.0,0.0,0.0,0.0,0.0,0.0,-0.9914,-0.9704,-0.9582,-0.9385,-0.9247,-0.9455,-0.9521,-0.9474,-0.9615,-0.9578,-0.9374,-0.9039,-0.8467,-0.7646,0.0,0.0,0.0,0.0,-0.555,-0.5283,-0.5249,-0.5224,-0.5217,-0.5181,-0.5143,-0.5174,-0.5249,-0.5401,-0.5556,-0.5437,-0.5357,-0.5152,-0.4956,0.0,0.0,0.0,0.0,0.0,0.0,0.0,0.0,0.0,0.0,0.0,0.0,0.0,0.0,0.0,0.0,0.0,0.0,0.0,-0.3209,-0.3411,-0.3736,0.0,0.0,0.0,0.0,0.0,0.0,0.0,0.0,0.0,-0.4711,-0.3261,-0.2886,0.0,0.0,-0.6568,-0.6464,-0.6634,-0.6886,-0.7447,0.0,0.0,0.0,-0.7177,-0.684,-0.7065,-0.7512,-0.7512,-0.6715,-0.6776,-0.6486,-0.5254,-0.4849,-0.52,-0.6618,-0.5818,-0.4526,-0.3406,-0.4031,-0.4474,-0.3322,-0.345,-0.3655,-1.1972,-1.0464,-0.9907,-0.9726,-0.9838,-1.0402,-1.1265,-1.2342,-1.2639,-1.3241,-1.3983,-1.4372,-1.4494,-1.4238,-1.3257,0.0,0.0,0.0,-1.0391,-1.0074,-0.9897,-0.9661,-0.9582,-0.9705,-0.9767,-0.9771,-0.9894,-0.9885,-0.9767,-0.9686,-0.9316,-0.8673,0.0,0.0,-0.7134,-0.6821,-0.6508,-0.6271,-0.628,-0.6046,-0.5589,-0.5302,-0.5165,-0.5093,-0.509,-0.5246,-0.5401,-0.5323,-0.5286,-0.5205,-0.5012,-0.475,0.0,0.0,0.0,0.0,0.0,0.0,0.0,0.0,0.0,0.0,0.0,-0.2928,0.0,0.0,0.0,0.0,-0.3136,-0.333,-0.3618,-0.4104,0.0,0.0,0.0,0.0,0.0,0.0,0.0,-0.6337,-0.6141,-0.6048,-0.6043,-0.493,-0.455,-0.5542,-0.6438,-0.7058,-0.7228,0.0,-0.7669,-0.8025,-0.8032,-0.8032,-0.8116,-0.7749,-0.7573,-0.7937,-0.8204,-0.8116,-0.7669,-0.7584,-0.7496,-0.6962,-0.6343,-0.6346,-0.7255,-0.7064,-0.6074,-0.3944,-0.4032,-0.4121,-0.3053,-0.3374,-0.3519,-1.4329,-1.3748,-1.129,-1.0843,-1.1727,-1.2089,-1.3258,-1.481,-1.4911,-1.5288,-1.5723,-1.5809,-1.5646,-1.5312,-1.4202,0.0,0.0,-1.1475,-1.0915,-1.0427,-1.0206,-1.0125,-1.0125,-1.0038,-1.0038,-1.0033,-1.0038,-1.0038,-0.9941,-0.9762,-0.9667,-0.9583,-0.9063,-0.8552,-0.8123,-0.795,-0.7706,-0.7556,-0.7477,-0.7148,-0.6344,-0.5486,-0.5182,-0.5335,-0.5326,-0.5401,-0.5559,-0.5401,-0.5318,-0.524,-0.4985,-0.4792,-0.4737,0.0,0.0,0.0,0.0,0.0,0.0,0.0,0.0,0.0,0.0,0.0,0.0,0.0,0.0,0.0,-0.3646,0.0,-0.427,-0.5032,0.0,0.0,0.0,-0.6074,-0.6882,-0.7232,-0.7384,-0.7195,0.0,0.0,0.0,0.0,-0.6959,-0.6337,-0.7228,-0.7856,-0.758,-0.7933,-0.8113,-0.8028,-0.794,-0.794,-0.8032,-0.8021,-0.8109,-0.8476,-0.8572,-0.8568,-0.8568,-0.8568,-0.8568,-0.848,-0.848,-0.8028,-0.6228,-0.7309,-0.7584,-0.501,-0.4032,-0.3497,-0.332,-0.3406,-0.358,-1.528,-1.5465,-1.4476,-1.3967,-1.3933,-1.4262,-1.481,-1.554,-1.607,-1.6277,-1.6224,-1.6723,-1.6409,-1.5583,-1.5167,-1.4592,-1.3848,-1.3155,-1.2759,-1.259,-1.1461,-1.0982,-1.0982,-1.0294,-1.0038,-1.0038,-1.0038,-1.0038,-1.0033,-0.9904,-0.988,-0.9875,-0.9742,-0.9298,-0.848,-0.8307,-0.8029,-0.7718,-0.7718,-0.7644,-0.7315,-0.639,-0.5934,-0.6016,-0.5836,-0.5553,-0.5174,-0.5556,-0.5553,-0.5093,-0.4988,-0.492,-0.4795,-0.4842,0.0,0.0,0.0,0.0,0.0,0.0,0.0,0.0,0.0,-0.4039,-0.4116,0.0,-0.399,0.0,-0.4703,-0.5085,-0.5687,-0.6028,0.0,0.0,-0.7144,-0.7308,-0.7304,-0.7848,-0.8115,-0.7539,-0.7771,-0.7876,-0.796,-0.7815,-0.7753,-0.794,-0.8216,-0.8308,-0.8113,-0.8113,-0.8292,-0.8384,-0.8392,-0.8388,-0.8388,-0.8476,-0.8476,-0.8568,-0.8572,-0.8572,-0.8572,-0.8572,-0.8572,-0.8568,-0.794,-0.7584,-0.7845,-0.7139,-0.6605,-0.6432,-0.6877,-0.6786,-0.5364,-0.5542,-0.5897,-1.5948,-1.661,-1.5972,-1.6049,-1.6484,-1.6031,-1.6191,-1.6705,-1.7064,-1.7139,-1.6977,-1.7329,-1.7211,-1.6599,-1.6167,-1.564,-1.496,-1.4262,-1.3561,-1.2768,-1.1876,-1.1314,-1.0875,-1.0256,-1.0038,-1.0038,-1.0038,-1.0038,-1.0043,-1.0133,-1.0133,-1.0043,-1.005,-0.9814,-0.9271,-0.9095,-0.897,-0.8798,-0.8372,-0.8205,-0.8114,-0.7267,-0.6694,-0.6548,-0.639,-0.6081,-0.5556,-0.5786,-0.5709,-0.5404,-0.5326,-0.5295,-0.5293,-0.509,-0.5104,0.0,0.0,0.0,0.0,0.0,0.0,0.0,0.0,0.0,0.0,0.0,-0.5178,0.0,-0.6005,0.0,-0.6714,-0.698,-0.7236,-0.7576,-0.7835,-0.7928,-0.7928,-0.8365,-0.8455,-0.8162,-0.8281,-0.8412,-0.848,-0.8336,-0.8292,-0.8568,-0.8576,-0.8572,-0.8388,-0.8384,-0.8476,-0.8568,-0.8572,-0.8572,-0.8572,-0.8572,-0.8572,-0.8572,-0.8572,-0.8572,-0.8572,-0.8572,-0.8572,-0.8568,-0.812,-0.7944,-0.8476,-0.7764,-0.7228,-0.7672,-0.8208,-0.7852,-0.6166,-0.6077,-0.6251,-1.6669,-1.7505,-1.6842,-1.749,-1.884,-1.7609,-1.737,-1.7906,-1.7906,-1.7882,-1.7842,-1.7787,-1.7763,-1.7771,-1.7152,-1.6521,-1.5903,-1.5191,-1.4109,-1.2643,-1.235,-1.1725,-1.0925,-1.047,-1.0289,-1.0294,-1.0119,-1.0031,-1.0041,-1.022,-1.0216,-1.0045,-1.0192,-1.0178,-1.0086,-1.0052,-1.0038,-0.9946,-0.9258,-0.8832,-0.8828,-0.8058,-0.748,-0.7174,-0.7071,-0.6831,-0.6383,-0.6302,-0.6149,-0.6071,-0.5921,-0.5918,-0.6067,-0.5475,-0.5554,0.0,-0.6931,0.0,0.0,0.0,0.0,0.0,0.0,0.0,0.0,-0.6075,-0.6457,-0.7565,-0.7246,-0.7132,-0.758,-0.7867,-0.8059,-0.8232,-0.8251,-0.8355,-0.8633,-0.8633,-0.869,-0.884,-0.8727,-0.8698,-0.8828,-0.8723,-0.8637,-0.8653,-0.8633,-0.8621,-0.8601,-0.8584,-0.8568,-0.8572,-0.8572,-0.8572,-0.8572,-0.8572,-0.8572,-0.8572,-0.8572,-0.8572,-0.8572,-0.8572,-0.8572,-0.8572,-0.8568,-0.8568,-0.8572,-0.8568,-0.8568,-0.8568,-0.8568,-0.812,-0.6697,-0.6251,-0.6074,-1.7785,-1.898,-1.8511,-1.8703,-1.9347,-1.8676,-1.8446,-1.8621,-1.8629,-1.8462,-1.8184,-1.7898,-1.7763,-1.7771,-1.7517,-1.7167,-1.68,-1.6551,-1.6109,-1.5548,-1.4774,-1.4308,-1.4033,-1.2451,-1.1706,-1.1621,-1.0903,-1.0452,-1.0456,-1.0494,-1.0499,-1.0456,-1.0334,-1.0253,-1.0206,0.0,0.0,0.0,-0.9826,-0.9808,-0.9712,-0.8922,-0.8472,-0.835,-0.8201,0.0,-0.7345,-0.7667,-0.7667,-0.726,-0.7182,0.0,0.0,0.0,0.0,0.0,0.0,0.0,0.0,0.0,0.0,0.0,-0.8057,-0.7899,-0.7464,-0.7366,-0.7454,-0.8051,-0.8006,-0.8025,-0.8388,-0.8512,-0.8681,-0.8685,-0.881,-0.8902,-0.8999,-0.8991,-0.9011,-0.9035,-0.9015,-0.9007,-0.9031,-0.8914,-0.889,-0.8966,-0.8869,-0.8783,-0.8771,-0.8658,-0.8572,-0.8572,-0.8572,-0.8572,-0.8572,-0.8572,-0.8572,-0.8572,-0.8572,-0.8572,-0.8572,-0.8572,-0.8572,-0.8572,-0.8572,-0.8572,-0.8572,-0.8572,-0.8572,-0.8572,-0.8572,-0.848,-0.812,-0.8032,-0.8032,-1.8619,0.0,-1.898,-1.908,0.0,-1.9012,-1.8827,-1.8827,-1.8827,-1.8732,-1.8549,-1.8367,-1.8287,-1.8295,-1.8213,-1.7944,-1.7575,-1.7485,-1.6934,-1.6092,-1.549,-1.4969,-1.45,-1.3362,-1.2927,-1.2836,-1.1844,-1.1298,-1.1303,-1.0959,-1.0679,-1.057,-1.0579,-1.0527,-1.0419,-1.0216,-1.006,-1.0038,-1.0038,-1.0038,-1.0033,-0.9588,-0.9235,-0.8976,0.0,0.0,0.0,0.0,0.0,0.0,0.0,0.0,0.0,0.0,0.0,-0.8209,-0.8963,-0.9018,-0.8418,-0.8,-0.7998,-0.8361,-0.8472,-0.8406,-0.8044,-0.8033,-0.8198,-0.8372,-0.8456,-0.8597,-0.8698,-0.8852,-0.8958,-0.8962,-0.9039,-0.9096,-0.9096,-0.9096,-0.9133,-0.9198,-0.9145,-0.9125,-0.9214,-0.9141,-0.9003,-0.9092,-0.9019,-0.8958,-0.8934,-0.8731,-0.8572,-0.8572,-0.8572,-0.8572,-0.8572,-0.8572,-0.8572,-0.8572,-0.8572,-0.8572,-0.8572,-0.8572,-0.8572,-0.8572,-0.8572,-0.8572,-0.8572,-0.8572,-0.8572,-0.8572,-0.8572,-0.8572,-0.8572,-0.8572,-0.8572,-1.9072,-1.953,-1.9163,-1.9171,-1.9455,-1.9012,-1.8827,-1.8827,0.0,0.0,0.0,-1.8827,-1.8827,-1.8827,-1.8743,-1.855,-1.8087,-1.8087,-1.7326,-1.6069,-1.593,-1.5352,-1.4596,-1.427,-1.4079,-1.3981,-1.2974,-1.2422,-1.2151,-1.1512,-1.1043,-1.0712,-1.083,-1.0787,-1.0575,-1.0409,-1.0239,-1.0069,-1.0076,-1.0038,-1.0038,-1.0038,-0.9784,-0.945,-0.945,-0.9283,-0.8958,-0.8774,-0.8687,-0.8687,-0.8525,-0.8525,-0.8687,-0.8512,-0.8604,-0.8944,-0.9566,-0.9559,-0.8751,-0.8495,-0.839,-0.8556,-0.8597,-0.8508,-0.8296,-0.8476,-0.858,-0.8609,-0.8739,-0.8832,-0.8869,-0.9031,-0.9141,-0.9141,-0.9173,-0.9194,-0.9194,-0.919,-0.9259,-0.936,-0.9291,-0.9242,-0.9376,-0.9291,-0.919,-0.919,-0.9173,-0.9125,-0.9072,-0.8861,-0.8666,-0.8584,-0.8601,-0.8613,-0.8572,-0.8572,-0.8572,-0.8572,-0.8572,-0.8572,-0.8572,-0.8572,-0.8572,-0.8572,-0.8572,-0.8572,-0.8572,-0.8572,-0.8572,-0.8572,-0.8572,-0.8572,-0.8572,-0.8572,-0.8572,-1.8988,-2.0192,-1.9737,-1.9279,-1.892,-1.8827,-1.8827,-1.8827,-1.8827,-1.8827,-1.8827,-1.8827,-1.8827,-1.8827,-1.8658,-1.8373,-1.8087,-1.7815,-1.7527,0.0,-1.7095,-1.6973,-1.6786,-1.5879,-1.5483,-1.5389,-1.4438,-1.3486,-1.2731,-1.2469,-1.1991,-1.1187,-1.0967,-1.0792,-1.0589,-1.0546,-1.0518,-1.048,-1.0135,-1.0038,-1.0038,-1.0038,-0.9937,-0.9913,-0.9908,-0.9899,-0.978,-0.977,-0.9775,-0.978,-0.9775,-0.9775,-0.9775,-0.9684,-0.9775,-0.978,-0.9693,-0.9452,-0.9213,-0.9048,-0.8798,-0.8656,-0.8796,-0.8816,-0.858,-0.8568,-0.8625,-0.8763,-0.8816,-0.8889,-0.9043,-0.9214,-0.9319,-0.9332,-0.9458,-0.9547,-0.9531,-0.9531,-0.9539,-0.9567,-0.9571,-0.9543,-0.9559,-0.9547,-0.9518,-0.9518,-0.9401,-0.9271,-0.9137,-0.906,-0.8893,-0.867,-0.8694,-0.871,-0.8605,-0.8572,-0.858,-0.8572,-0.8572,-0.8572,-0.8572,-0.8572,-0.8572,-0.8572,-0.8572,-0.8572,-0.8572,-0.8572,-0.8572,-0.8572,-0.8572,-0.8572,-0.8572,-0.8572,-0.8572,-2.0789,-2.0865,-2.0492,-1.9851,-1.9105,-1.8915,-1.8827,-1.8827,-1.8827,-1.8827,-1.8827,-1.8827,-1.8827,-1.8827,-1.8751,-1.8465,-1.8087,-1.7994,-1.7707,-1.7326,-1.7333,-1.7333,-1.7232,-1.6842,-1.6655,-1.656,-1.5032,-1.4076,-1.3499,-1.2446,-1.1678,-1.1189,-1.1099,-1.0953,-1.0759,-1.0749,-1.0688,-1.0575,-1.0386,-1.0239,-1.013,-1.0126,-1.0157,-1.0047,-1.006,-1.0162,-1.0047,-1.0152,-1.0074,-1.0043,-1.0038,-1.0038,-1.0038,-1.0152,-1.0078,-0.9791,-0.9707,-0.9544,-0.9091,-0.9008,-0.8931,-0.8844,-0.9021,-0.9038,-0.8865,-0.8762,-0.8794,-0.8966,-0.9051,-0.9141,-0.9234,-0.9397,-0.9502,-0.9502,-0.9579,-0.9624,-0.9624,-0.9624,-0.9624,-0.9624,-0.9624,-0.9624,-0.9624,-0.9624,-0.9624,-0.9616,-0.9543,-0.9429,-0.9267,-0.9319,-0.9218,-0.8828,-0.8848,-0.8832,-0.8633,-0.8649,-0.8565,-0.8589,-0.8572,-0.8572,-0.8572,-0.8572,-0.8572,-0.8572,-0.8572,-0.8572,-0.8572,-0.8572,-0.8572,-0.8572,-0.8572,-0.8572,-0.8572,-0.8572,-0.8572,-2.1891,-2.1371,-2.0899,-2.0182,-1.9352,-1.9066,-1.8907,-1.8835,-1.8827,-1.8827,-1.8827,-1.8827,-1.8827,-1.8827,-1.8735,-1.8458,-1.8179,-1.7994,-1.78,-1.7333,-1.7333,-1.7333,-1.7333,-1.7333,-1.7333,-1.7138,-1.5704,-1.4746,-1.4166,-1.264,-1.1678,-1.1292,-1.1194,-1.1118,-1.0967,-1.0967,-1.0877,-1.0726,-1.0712,-1.0594,-1.0353,-1.0338,-1.0258,-1.0121,-1.0253,-1.0258,-1.0112,-1.0211,-1.022,-1.0102,-1.005,-1.0045,-0.9916,-1.0253,-1.0088,-0.9682,-0.971,-0.9552,-0.9063,-0.8989,-0.9042,-0.9084,-0.9235,-0.9349,-0.9157,-0.9095,-0.9099,-0.9177,-0.9267,-0.936,-0.9421,-0.9535,-0.9624,-0.9624,-0.9624,-0.9624,-0.9624,-0.9624,-0.9624,-0.9624,-0.9624,-0.9624,-0.9624,-0.9624,-0.9624,-0.9624,-0.9624,-0.9563,-0.9462,-0.9543,-0.9413,-0.9133,-0.9068,-0.9007,-0.871,-0.8633,-0.8637,-0.8597,-0.8572,-0.8572,-0.8572,-0.8572,-0.8572,-0.8572,-0.8572,-0.8572,-0.8572,-0.8572,-0.8572,-0.8572,-0.8572,-0.8572,-0.8572,-0.8572,-0.8572,-2.0644,-2.1213,-2.041,-1.9734,-1.9391,-1.9336,-1.9145,-1.8867,-1.8835,-1.8827,-1.8867,-1.8827,-1.8835,-1.8735,-1.8658,-1.8373,-1.8087,-1.7807,-1.7628,-1.7326,-1.7333,-1.7333,-1.7333,-1.7333,-1.7333,-1.7232,-1.6943,-1.5893,-1.4453,-1.398,-1.3017,-1.1385,-1.1194,-1.1189,-1.1165,-1.1161,-1.1156,-1.1137,-1.1137,-1.0943,-1.0575,-1.0546,-1.0537,-1.0518,-1.0532,-1.0542,-1.049,-1.0357,-1.0257,-1.0209,-1.0243,-1.0143,-0.9841,-1.0075,-1.0075,-0.9771,-0.9608,-0.9334,-0.9144,-0.9157,-0.9181,-0.9104,-0.9444,-0.9527,-0.934,-0.9478,-0.9502,-0.938,-0.9448,-0.9534,-0.9579,-0.9616,-0.9624,-0.9624,-0.9624,-0.9624,-0.9624,-0.9624,-0.9624,-0.9624,-0.9624,-0.9624,-0.9624,-0.9624,-0.9624,-0.9624,-0.9624,-0.962,-0.9587,-0.9596,-0.9571,-0.936,-0.9328,-0.9177,-0.8993,-0.8804,-0.8767,-0.8625,-0.8572,-0.8572,-0.8572,-0.8572,-0.8572,-0.8572,-0.8572,-0.8572,-0.8572,-0.8572,-0.8572,-0.8572,-0.8572,-0.8572,-0.8572,-0.8572,-0.8572,-2.1965,-2.1948,-2.104,-2.0265,-1.9782,-1.9662,-1.9582,-1.9447,-1.9447,-1.9439,-1.9407,-1.9233,-1.9034,-1.8827,-1.8743,-1.8458,-1.8087,-1.7994,-1.7707,-1.7333,-1.7333,-1.7333,-1.7333,-1.7333,-1.7333,-1.7239,-1.6756,-1.5988,-1.5127,-1.398,-1.2926,-1.2058,-1.1482,-1.1194,-1.1194,-1.1194,-1.1194,-1.1194,-1.1194,-1.1109,-1.0948,-1.0825,-1.0702,-1.0603,-1.0697,-1.0697,-1.0598,-1.052,-1.0343,-1.0209,-1.0035,-0.9938,-0.9828,-1.0037,-0.9956,-0.9571,-0.9372,-0.9235,-0.9242,-0.9345,-0.9395,-0.9401,-0.9474,-0.9616,-0.9518,-0.9587,-0.9592,-0.9539,-0.9616,-0.9653,-0.9616,-0.9624,-0.9624,-0.9624,-0.9624,-0.9624,-0.9624,-0.9624,-0.9624,-0.9624,-0.9624,-0.9624,-0.9624,-0.9624,-0.9624,-0.9624,-0.9624,-0.9624,-0.9624,-0.9624,-0.96,-0.9539,-0.9514,-0.946,-0.9169,-0.8982,-0.881,-0.8759,-0.8718,-0.8572,-0.8576,-0.8572,-0.8572,-0.8572,-0.8572,-0.8572,-0.8572,-0.8572,-0.8572,-0.8572,-0.8572,-0.8572,-0.8572,-0.8572,-0.8572,-2.2828,-2.2383,-2.1528,-2.0718,-2.0011,-2.0011,-1.9948,-1.9868,-1.986,-1.986,-1.9836,-1.9614,-1.9304,-1.8994,-1.879,-1.8458,-1.8087,-1.7994,-1.7714,-1.7333,-1.7333,-1.7333,-1.7333,-1.7333,-1.7333,-1.7232,-1.6567,-1.6082,-1.5609,-1.407,-1.3113,-1.3017,-1.2155,-1.158,-1.158,-1.1389,-1.1194,-1.1194,-1.1194,-1.1194,-1.117,-1.0955,-1.0805,-1.0773,-1.0896,-1.0901,-1.0759,-1.0559,-1.0568,-1.0655,-1.0407,-1.0309,-1.0175,-1.0605,-1.071,-1.0382,-1.0175,-1.0139,-1.028,-1.0285,-1.025,-1.0092,-1.0015,-0.9916,-0.9723,-0.9624,-0.9624,-0.962,-0.9624,-0.962,-0.9624,-0.9624,-0.9624,-0.9624,-0.9624,-0.9624,-0.9624,-0.9624,-0.9624,-0.9624,-0.9624,-0.9624,-0.9624,-0.9624,-0.9624,-0.9624,-0.9624,-0.9624,-0.9624,-0.9624,-0.9624,-0.9624,-0.9624,-0.9498,-0.9333,-0.9169,-0.8987,-0.8926,-0.8767,-0.8653,-0.8625,-0.8613,-0.8572,-0.8572,-0.8572,-0.8572,-0.8572,-0.8572,-0.8572,-0.8572,-0.8572,-0.8572,-0.8572,-0.8572,-0.8572,-2.2535,-2.2325,-2.1302,-2.0686,-2.0369,-2.0369,-2.0186,-1.9932,-1.99,-1.9884,-1.9916,-1.986,-1.9662,-1.9352,-1.8777,-1.8388,-1.8102,-1.786,-1.7688,-1.7391,-1.7377,-1.7347,-1.7333,-1.7333,-1.734,-1.7369,-1.7145,-1.6662,-1.5798,-1.4746,-1.4268,-1.4172,-1.3113,-1.2635,-1.2538,-1.177,-1.1292,-1.1385,-1.1385,-1.1292,-1.1194,-1.0984,-1.1058,-1.1137,-1.117,-1.1156,-1.1132,-1.0793,-1.0972,-1.1935,-1.1728,-1.1416,-1.1308,-1.2211,-1.2694,-1.248,-1.2485,-1.249,-1.2404,-1.2404,-1.2027,-1.1268,-1.1077,-1.069,-1.0015,-0.9916,-0.992,-0.9723,-0.9916,-0.9821,-0.9821,-0.9723,-0.9624,-0.9624,-0.9624,-0.9624,-0.9624,-0.9624,-0.9624,-0.9624,-0.9624,-0.9624,-0.9624,-0.9624,-0.9624,-0.9624,-0.9624,-0.9624,-0.9624,-0.9624,-0.9624,-0.9624,-0.9616,-0.9559,-0.9388,-0.9303,-0.9234,-0.9108,-0.8946,-0.8796,-0.8751,-0.8698,-0.8637,-0.8584,-0.8605,-0.8605,-0.858,-0.8572,-0.8572,-0.8572,-0.8572,-0.8572,-0.8572,-0.8572,-0.8572,-2.2123,-2.1428,-2.1019,-2.0845,-2.0734,-2.0734,-2.0647,-2.0543,-2.0535,-2.0543,-2.0496,-2.0305,-2.013,-2.0003,-1.9179,-1.8716,-1.8445,-1.8348,-1.8156,-1.7947,-1.7947,-1.7955,-1.7933,-1.7743,-1.764,-1.7611,-1.7428,-1.7138,-1.6756,-1.5798,-1.5222,-1.5127,-1.4268,-1.3692,-1.3692,-1.3409,-1.3216,-1.321,-1.3216,-1.2829,-1.2058,-1.2446,-1.2452,-1.1683,-1.0998,-1.1002,-1.1683,-1.1419,-1.1701,-1.264,-1.2459,-1.2255,-1.2231,-1.263,-1.2829,-1.2732,-1.2732,-1.2732,-1.2732,-1.2732,-1.2533,-1.2242,-1.2145,-1.1955,-1.1663,-1.1565,-1.157,-1.157,-1.1565,-1.157,-1.1277,-1.0404,-0.9624,-0.9624,-0.9628,-0.9624,-0.9624,-0.9624,-0.9624,-0.9624,-0.9624,-0.9624,-0.9624,-0.9624,-0.9624,-0.9624,-0.9624,-0.9624,-0.9624,-0.9624,-0.9624,-0.9624,-0.9624,-0.9608,-0.9555,-0.9413,-0.9315,-0.9246,-0.9125,-0.8954,-0.8861,-0.8909,-0.8881,-0.8763,-0.8735,-0.8723,-0.8723,-0.8662,-0.8649,-0.8641,-0.8633,-0.8641,-0.8572,-0.8605,-0.8597,-2.1717,-2.1019,-2.0925,-2.0925,-2.0925,-2.0925,-2.0925,-2.0925,-2.0925,-2.0925,-2.0869,-2.0662,-2.0504,-2.03,-1.966,-1.9239,-1.8949,-1.8663,-1.8503,-1.8299,-1.8299,-1.8299,-1.8269,-1.8072,-1.7969,-1.7918,-1.764,-1.7443,-1.7246,-1.6567,-1.6278,-1.6177,-1.5317,-1.4841,-1.4746,-1.4453,-1.4358,-1.4268,-1.4274,-1.3692,-1.3017,-1.3318,-1.3227,-1.2355,-1.1575,-1.158,-1.2457,-1.2262,-1.2549,-1.342,-1.3318,-1.3409,-1.3703,-1.3409,-1.3409,-1.3601,-1.3698,-1.3698,-1.3698,-1.3698,-1.3601,-1.3216,-1.3216,-1.3119,-1.2829,-1.2732,-1.2732,-1.2732,-1.2732,-1.2732,-1.2441,-1.1375,-1.0502,-1.0207,-1.0109,-0.9916,-0.9628,-0.9624,-0.9624,-0.9624,-0.9624,-0.9624,-0.9624,-0.9624,-0.9624,-0.9624,-0.9624,-0.9624,-0.9624,-0.9624,-0.9624,-0.9624,-0.9624,-0.9624,-0.96,-0.9518,-0.9474,-0.9413,-0.9299,-0.9125,-0.9031,-0.9092,-0.9076,-0.8962,-0.8901,-0.8885,-0.884,-0.8779,-0.8763,-0.8759,-0.8792,-0.8824,-0.8747,-0.8666,-0.8662,-2.142,-2.0925,-2.0925,-2.0925,-2.0925,-2.0925,-2.0925,-2.0925,-2.0925,-2.0925,-2.0909,-2.0893,-2.071,-2.0435,-2.0069,-1.9865,-1.9466,-1.8818,-1.8416,-1.8401,-1.8386,-1.8379,-1.8394,-1.8335,-1.8277,-1.8233,-1.7955,-1.764,-1.7297,-1.716,-1.7138,-1.7044,-1.6278,-1.5805,-1.5798,-1.5038,-1.4459,-1.4465,-1.4376,-1.4094,-1.3806,-1.3607,-1.3414,-1.3119,-1.2829,-1.3022,-1.3511,-1.3221,-1.3613,-1.4496,-1.4484,-1.4771,-1.5248,-1.4771,-1.4682,-1.5343,-1.5635,-1.573,-1.5635,-1.554,-1.5057,-1.4484,-1.4298,-1.3896,-1.3312,-1.3022,-1.3022,-1.3119,-1.3017,-1.292,-1.2926,-1.2823,-1.2247,-1.1365,-1.1175,-1.0783,-0.9903,-0.9723,-0.9628,-0.9723,-0.9821,-0.9628,-0.9628,-0.9624,-0.9624,-0.9624,-0.9624,-0.9624,-0.9624,-0.9624,-0.9624,-0.9624,-0.9624,-0.9624,-0.9624,-0.9624,-0.9616,-0.9587,-0.9458,-0.9319,-0.9246,-0.9259,-0.9218,-0.9125,-0.9096,-0.9072,-0.8962,-0.8922,-0.9003,-0.9015,-0.9027,-0.8982,-0.8901,-0.8816,-0.8763,-2.1019,-2.0925,-2.0925,-2.0925,-2.0925,-2.0925,-2.0925,-2.0925,-2.0925,-2.0925,-2.0925,-2.0925,-2.0853,-2.0688,-2.0357,-2.0025,-1.9933,-1.9316,-1.8972,-1.8957,-1.8964,-1.895,-1.8913,-1.8738,-1.8511,-1.8277,-1.7969,-1.7772,-1.7647,-1.7443,-1.7333,-1.7232,-1.6864,-1.6676,-1.6581,-1.6103,-1.5906,-1.5906,-1.5812,-1.5337,-1.4663,-1.4956,-1.4771,-1.41,-1.4478,-1.4956,-1.5051,-1.4286,-1.4484,-1.5356,-1.535,-1.5445,-1.5635,-1.5547,-1.5445,-1.573,-1.5825,-1.5825,-1.5825,-1.5825,-1.573,-1.535,-1.535,-1.5153,-1.486,-1.4765,-1.4765,-1.4765,-1.486,-1.486,-1.486,-1.486,-1.4082,-1.2436,-1.2242,-1.1521,-1.0219,-1.0844,-1.1272,-1.0792,-1.069,-1.04,-0.9821,-0.9624,-0.9624,-0.9624,-0.9624,-0.9624,-0.9624,-0.9624,-0.9624,-0.9624,-0.9624,-0.9624,-0.9624,-0.9624,-0.9624,-0.9624,-0.9547,-0.9466,-0.9413,-0.9393,-0.9352,-0.9315,-0.9287,-0.9234,-0.912,-0.9108,-0.9194,-0.9177,-0.9125,-0.9076,-0.9027,-0.8982,-0.8942,-2.1044,-2.0925,-2.0925,-2.0925,-2.0925,-2.0925,-2.0925,-2.0925,-2.0925,-2.0925,-2.0925,-2.0925,-2.0925,-2.0814,-2.0292,-2.0086,-1.9975,-1.9576,-1.9272,-1.9272,-1.9272,-1.9272,-1.9257,-1.9074,-1.8796,-1.8503,-1.8269,-1.8116,-1.7984,-1.7684,-1.7508,-1.7407,-1.7124,-1.6979,-1.6979,-1.6683,-1.6588,-1.6588,-1.6487,-1.6015,-1.5534,-1.5737,-1.5642,-1.5064,-1.5445,-1.5825,-1.5737,-1.5159,-1.5159,-1.5642,-1.5825,-1.5825,-1.5825,-1.5825,-1.5825,-1.5825,-1.5825,-1.5825,-1.5825,-1.5825,-1.5825,-1.5825,-1.5825,-1.5825,-1.5825,-1.5825,-1.5825,-1.5825,-1.573,-1.5825,-1.573,-1.5825,-1.5153,-1.4088,-1.3505,-1.2592,-1.1269,-1.192,-1.216,-1.138,-1.0788,-1.0306,-0.9821,-0.9624,-0.9624,-0.9624,-0.9624,-0.9624,-0.9624,-0.9624,-0.9624,-0.9624,-0.9624,-0.9624,-0.9624,-0.9624,-0.9624,-0.9624,-0.9612,-0.9559,-0.951,-0.9535,-0.9522,-0.9486,-0.9458,-0.9453,-0.936,-0.9344,-0.938,-0.9303,-0.9254,-0.9263,-0.9254,-0.9202,-0.9149,-2.1274,-2.0964,-2.0956,-2.0956,-2.0925,-2.0925,-2.0925,-2.0925,-2.0925,-2.0925,-2.0925,-2.0925,-2.0925,-2.0719,-2.0292,-2.0078,-1.9983,-1.9583,-1.9272,-1.9272,-1.9272,-1.9272,-1.9257,-1.9228,-1.9067,-1.8847,-1.8752,-1.8584,-1.8321,-1.7947,-1.7816,-1.775,-1.721,-1.6979,-1.6885,-1.6683,-1.6494,-1.64,-1.6312,-1.6123,-1.6028,-1.5927,-1.5825,-1.573,-1.573,-1.5825,-1.5825,-1.5737,-1.573,-1.5825,-1.5825,-1.5825,-1.5825,-1.5825,-1.5825,-1.5825,-1.5825,-1.5825,-1.5825,-1.5825,-1.5825,-1.5825,-1.5825,-1.5825,-1.5825,-1.5825,-1.5825,-1.5825,-1.5825,-1.5825,-1.5825,-1.5825,-1.573,-1.5635,-1.4867,-1.3884,-1.2926,-1.2878,-1.2581,-1.1477,-1.04,-0.9723,-0.9723,-0.9624,-0.9624,-0.9624,-0.9624,-0.9624,-0.9624,-0.9624,-0.9624,-0.9624,-0.9624,-0.9624,-0.9624,-0.9624,-0.9624,-0.9624,-0.9624,-0.9608,-0.9583,-0.9608,-0.9624,-0.9604,-0.9587,-0.9596,-0.9587,-0.9531,-0.9522,-0.9502,-0.949,-0.9506,-0.9466,-0.9397,-0.9252,-2.1624,-2.1322,-2.1314,-2.1163,-2.0941,-2.0925,-2.0925,-2.0925,-2.0925,-2.0925,-2.0925,-2.0925,-2.0822,-2.0624,-2.0292,-1.9975,-1.9776,-1.948,-1.9272,-1.9272,-1.9272,-1.9272,-1.9272,-1.9272,-1.9235,-1.9118,-1.8921,-1.8738,-1.8621,-1.813,-1.786,-1.7801,-1.7158,-1.6697,-1.6683,-1.6312,-1.6021,-1.6021,-1.5927,-1.5927,-1.5927,-1.5825,-1.5825,-1.5825,-1.5825,-1.5825,-1.5825,-1.5825,-1.5825,-1.5825,-1.5825,-1.5825,-1.5825,-1.5825,-1.5825,-1.5825,-1.5825,-1.5825,-1.5825,-1.5825,-1.5825,-1.5825,-1.5825,-1.5825,-1.5825,-1.5825,-1.5825,-1.5825,-1.5825,-1.5825,-1.5825,-1.5825,-1.5825,-1.5737,-1.5445,-1.4968,-1.4292,-1.449,-1.41,-1.1755,-1.1565,-1.0984,-1.0015,-0.9624,-0.9624,-0.9624,-0.9624,-0.9624,-0.9624,-0.9624,-0.9624,-0.9624,-0.9624,-0.9624,-0.9624,-0.9624,-0.9624,-0.9624,-0.9624,-0.9624,-0.9612,-0.962,-0.9624,-0.962,-0.9608,-0.9612,-0.9616,-0.9592,-0.962,-0.9624,-0.9608,-0.9571,-0.9583,-0.9547,-0.9339,-2.1973,-2.1648,-2.1505,-2.1338,-2.1131,-2.0988,-2.0925,-2.0925,-2.0925,-2.0925,-2.0925,-2.0925,-2.0822,-2.0624,-2.0292,-2.0078,-1.9887,-1.948,-1.9272,-1.9272,-1.9272,-1.9272,-1.9272,-1.9272,-1.9272,-1.9257,-1.9089,-1.9008,-1.8913,-1.8467,-1.8255,-1.8054,-1.7284,-1.6791,-1.6777,-1.6164,-1.5825,-1.5825,-1.5825,-1.5825,-1.5825,-1.5825,-1.5825,-1.5825,-1.5825,-1.5825,-1.5825,-1.5825,-1.5825,-1.5825,-1.5825,-1.5825,-1.5825,-1.5825,-1.5825,-1.5825,-1.5825,-1.5825,-1.5825,-1.5825,-1.5825,-1.5825,-1.5825,-1.5825,-1.5825,-1.5825,-1.5825,-1.5825,-1.5825,-1.5825,-1.5825,-1.5825,-1.5825,-1.5825,-1.5825,-1.5547,-1.4962,-1.4543,-1.3759,-1.242,-1.1853,-1.1468,-0.9821,-0.9624,-0.9628,-0.9624,-0.9624,-0.9624,-0.9624,-0.9624,-0.9624,-0.9624,-0.9624,-0.9624,-0.9624,-0.9624,-0.9624,-0.9624,-0.9624,-0.9624,-0.9624,-0.9624,-0.9624,-0.9624,-0.9624,-0.9624,-0.9525,-0.9525,-0.9624,-0.9624,-0.9624,-0.9529,-0.9525,-0.9426,-0.9331,-2.2259,-2.1878,-2.1576,-2.1433,-2.1322,-2.1052,-2.0925,-2.0925,-2.0925,-2.0925,-2.0925,-2.0925,-2.0822,-2.0822,-2.0285,-2.0078,-1.9983,-1.9472,-1.9376,-1.9272,-1.9272,-1.9272,-1.9272,-1.9272,-1.9272,-1.9272,-1.9272,-1.925,-1.9133,-1.8891,-1.8774,-1.8376,-1.764,-1.7127,-1.6947,-1.6244,-1.5892,-1.5892,-1.5845,-1.5832,-1.5825,-1.5825,-1.5825,-1.5825,-1.5825,-1.5825,-1.5825,-1.5825,-1.5825,-1.5825,-1.5825,-1.5825,-1.5825,-1.5825,-1.5825,-1.5825,-1.5825,-1.5825,-1.5825,-1.5825,-1.5825,-1.5825,-1.5825,-1.5825,-1.5825,-1.5825,-1.5825,-1.5825,-1.5825,-1.5825,-1.5825,-1.5825,-1.5825,-1.5825,-1.5825,-1.5825,-1.5425,-1.4112,-1.2945,-1.2619,-1.1853,-1.0984,-1.0207,-0.9723,-0.9727,-0.9723,-0.9723,-0.9916,-0.9821,-0.9624,-0.9624,-0.9624,-0.9624,-0.9624,-0.9624,-0.9624,-0.9624,-0.9624,-0.9624,-0.9624,-0.9624,-0.9624,-0.9624,-0.9624,-0.9624,-0.9525,-0.9327,-0.9426,-0.9525,-0.9426,-0.9327,-0.9229,-0.9232,-0.9229,-0.9034,-2.2124,-2.1552,-2.1375,-2.129,-2.1052,-2.0956,-2.0925,-2.0933,-2.0925,-2.0925,-2.0925,-2.0925,-2.0822,-2.0617,-2.0292,-1.9983,-1.9783,-1.948,-1.9272,-1.9272,-1.9272,-1.9272,-1.9279,-1.9286,-1.9272,-1.9272,-1.9272,-1.9272,-1.9199,-1.8994,-1.8702,-1.8441,-1.7853,-1.7315,-1.7076,-1.6501,-1.6172,-1.6139,-1.5952,-1.5832,-1.5825,-1.5825,-1.5825,-1.5825,-1.5825,-1.5825,-1.5825,-1.5825,-1.5825,-1.5825,-1.5825,-1.5825,-1.5825,-1.5825,-1.5825,-1.5825,-1.5825,-1.5825,-1.5825,-1.5825,-1.5825,-1.5825,-1.5825,-1.5825,-1.5825,-1.5825,-1.5825,-1.5825,-1.5825,-1.5825,-1.5825,-1.5825,-1.5825,-1.5825,-1.5825,-1.5825,-1.5724,-1.533,-1.4351,-1.3108,-1.2635,-1.2047,-1.1082,-1.0783,-1.0493,-1.0015,-0.9916,-1.0306,-1.0015,-0.9624,-0.9529,-0.9529,-0.9525,-0.9426,-0.9426,-0.9426,-0.9426,-0.9426,-0.9426,-0.9426,-0.9426,-0.9525,-0.9426,-0.9525,-0.9624,-0.9426,-0.9225,-0.9229,-0.9232,-0.913,-0.9027,-0.9027,-0.8928,-0.8928,-0.8832,-2.2323,-2.1727,-2.1862,-2.1735,-2.1417,-2.1242,-2.1171,-2.1131,-2.0988,-2.0925,-2.0925,-2.0925,-2.0719,-2.0514,-2.0197,-1.9983,-1.968,-1.9487,-1.9367,-1.9433,-1.9381,-1.936,-1.944,-1.9345,-1.9272,-1.9272,-1.9272,-1.9272,-1.9213,-1.9111,-1.8935,-1.8788,-1.8086,-1.7743,-1.7445,-1.6704,-1.6286,-1.6206,-1.5985,-1.5825,-1.5825,-1.5825,-1.5825,-1.5825,-1.5825,-1.5825,-1.5825,-1.5825,-1.5825,-1.5825,-1.5825,-1.5825,-1.5825,-1.5825,-1.5825,-1.5825,-1.5825,-1.5825,-1.5825,-1.5825,-1.5825,-1.5825,-1.5825,-1.5825,-1.5825,-1.5825,-1.5825,-1.5825,-1.5825,-1.5825,-1.5825,-1.5825,-1.5825,-1.5825,-1.5825,-1.5825,-1.5825,-1.5832,-1.5248,-1.4004,-1.3937,-1.3244,-1.2549,-1.194,-1.1263,-1.0587,-0.9772,-1.0066,-0.9916,-0.9628,-0.9529,-0.943,-0.9331,-0.9327,-0.9225,-0.9126,-0.9126,-0.9126,-0.9126,-0.9126,-0.9126,-0.9225,-0.9229,-0.9327,-0.943,-0.9225,-0.8924,-0.9031,-0.8931,-0.8928,-0.8825,-0.8726,-0.8627,-0.863,-0.8531,-2.2474,-2.1902,-2.2148,-2.2124,-2.191,-2.152,-2.137,-2.1385,-2.1076,-2.0925,-2.0925,-2.0814,-2.0727,-2.0411,-1.9879,-1.9561,-1.9146,-1.9175,-1.8962,-1.9098,-1.9262,-1.9403,-1.9499,-1.9389,-1.9272,-1.9272,-1.9272,-1.9272,-1.9272,-1.9272,-1.9109,-1.8998,-1.8494,-1.7949,-1.7701,-1.7021,-1.648,-1.6466,-1.6213,-1.6046,-1.6039,-1.6025,-1.6012,-1.5932,-1.5845,-1.5832,-1.5825,-1.5825,-1.5825,-1.5825,-1.5825,-1.5825,-1.5825,-1.5825,-1.5825,-1.5825,-1.5825,-1.5825,-1.5825,-1.5825,-1.5825,-1.5825,-1.5825,-1.5825,-1.5825,-1.5825,-1.5825,-1.5825,-1.5825,-1.5825,-1.5825,-1.5825,-1.5825,-1.5825,-1.5825,-1.5825,-1.5825,-1.5825,-1.5343,-1.4873,-1.4514,-1.3931,-1.3318,-1.2608,-1.1935,-1.1151,-1.0334,-0.9645,-0.96,-0.9525,-0.9331,-0.9229,-0.9126,-0.9126,-0.9023,-0.8924,-0.8924,-0.8821,-0.8722,-0.8825,-0.8825,-0.8825,-0.8928,-0.9133,-0.9133,-0.8928,-0.8722,-0.8726,-0.873,-0.8726,-0.8627,-0.8432,-0.8333,-0.8333,-0.8233,-2.1902,-2.1513,-2.1274,-2.1473,-2.1822,-2.1298,-2.1242,-2.1362,-2.1099,-2.0925,-2.0822,-2.0624,-2.0514,-2.0094,-1.8833,-1.7765,-1.7239,-1.747,-1.7945,-1.8245,-1.8674,-1.9255,-1.9194,-1.9352,-1.9279,-1.9272,-1.9272,-1.9272,-1.9272,-1.9272,-1.9063,-1.8624,-1.8464,-1.8109,-1.7701,-1.7277,-1.7022,-1.6847,-1.6613,-1.6473,-1.6466,-1.646,-1.6353,-1.6166,-1.5979,-1.5865,-1.5832,-1.5825,-1.5825,-1.5825,-1.5825,-1.5825,-1.5825,-1.5825,-1.5825,-1.5825,-1.5825,-1.5825,-1.5825,-1.5825,-1.5825,-1.5825,-1.5825,-1.5825,-1.5825,-1.5825,-1.5825,-1.5825,-1.5825,-1.5825,-1.5825,-1.5825,-1.5825,-1.5825,-1.5825,-1.5825,-1.5825,-1.5825,-1.573,-1.5452,-1.4987,-1.461,-1.4094,-1.3494,-1.2732,-1.1741,-1.0529,-0.9759,-0.9312,-0.9229,-0.913,-0.8928,-0.8726,-0.8825,-0.8825,-0.8722,-0.8722,-0.8421,-0.8421,-0.8627,-0.8627,-0.8528,-0.863,-0.8733,-0.8832,-0.8627,-0.8528,-0.8428,-0.8333,-0.8333,-0.8237,-0.8137,-0.8137,-0.8134,-0.8134,-2.1926,-2.1505,-2.1838,-2.2077,-2.2156,-2.1886,-2.1711,-2.1655,-2.1354,-2.1084,-2.0648,-2.0078,-1.9864,-1.9665,-1.7969,-1.6599,-1.6287,-1.6393,-1.6793,-1.709,-1.7874,-1.8527,-1.8682,-1.9038,-1.9286,-1.9272,-1.9272,-1.9279,-1.9272,-1.9272,-1.9063,-1.8855,-1.8639,-1.8213,-1.7934,-1.7488,-1.7284,-1.7094,-1.6887,-1.672,-1.6714,-1.6714,-1.6553,-1.6313,-1.6146,-1.5992,-1.5838,-1.5825,-1.5825,-1.5825,-1.5825,-1.5825,-1.5825,-1.5825,-1.5825,-1.5825,-1.5825,-1.5825,-1.5825,-1.5825,-1.5825,-1.5825,-1.5825,-1.5825,-1.5825,-1.5825,-1.5825,-1.5825,-1.5825,-1.5825,-1.5825,-1.5825,-1.5825,-1.5825,-1.5825,-1.5825,-1.5825,-1.5825,-1.5825,-1.5825,-1.5547,-1.5267,-1.5178,-1.449,-1.363,-1.2425,-1.0821,-0.9866,-0.9023,-0.8928,-0.8829,-0.863,-0.8528,-0.8428,-0.8432,-0.8428,-0.8428,-0.8223,-0.8219,-0.8425,-0.8428,-0.8333,-0.8233,-0.8336,-0.8333,-0.8329,-0.8233,-0.8134,-0.8137,-0.8041,-0.8038,-0.8038,-0.8038,-0.8038,-0.8038,-2.2084,-2.1528,-2.2426,-2.2672,-2.2498,-2.2402,-2.2196,-2.1926,-2.1584,-2.113,-2.0632,-1.9753,-1.9332,-1.8916,-1.7226,-1.5636,-1.5328,-1.5328,-1.5648,-1.5947,-1.6819,-1.7377,-1.7762,-1.8464,-1.8855,-1.8757,-1.9396,-1.933,-1.9279,-1.9272,-1.9279,-1.8966,-1.8639,-1.8325,-1.8157,-1.759,-1.7358,-1.7161,-1.7027,-1.6887,-1.6874,-1.6814,-1.67,-1.6453,-1.6393,-1.6226,-1.5992,-1.5952,-1.5892,-1.5852,-1.5825,-1.5825,-1.5825,-1.5825,-1.5825,-1.5825,-1.5825,-1.5825,-1.5825,-1.5825,-1.5825,-1.5825,-1.5825,-1.5825,-1.5825,-1.5825,-1.5825,-1.5825,-1.5825,-1.5825,-1.5825,-1.5825,-1.5825,-1.5825,-1.5825,-1.5825,-1.5825,-1.5825,-1.5825,-1.5825,-1.5825,-1.5737,-1.5547,-1.5306,-1.4352,-1.2129,-1.0524,-0.9367,-0.8612,-0.8627,-0.8432,-0.8336,-0.8237,-0.8137,-0.8137,-0.8137,-0.8134,-0.8134,-0.8031,-0.8134,-0.8134,-0.8038,-0.8038,-0.8137,-0.8038,-0.8134,-0.8038,-0.8038,-0.8038,-0.8038,-0.8038,-0.8038,-0.8038,-0.8038,-0.8038,-2.2084,-2.1489,-2.1918,-2.2235,-2.2426,-2.2196,-2.2029,-2.1941,-2.1632,-2.1042,-2.0553,-1.9975,-1.9131,-1.7765,-1.5648,-1.3943,-1.3511,-1.3948,-1.4401,-1.4661,-1.5577,-1.6099,-1.6342,-1.7285,-1.7681,-1.7918,-1.8879,-1.9506,-1.9277,-1.9211,-1.9204,-1.9009,-1.8667,-1.8325,-1.8108,-1.7711,-1.7535,-1.7515,-1.7475,-1.7442,-1.7395,-1.7208,-1.7081,-1.6954,-1.6774,-1.6526,-1.6273,-1.6213,-1.6132,-1.5912,-1.5858,-1.5838,-1.5825,-1.5825,-1.5825,-1.5825,-1.5825,-1.5825,-1.5825,-1.5825,-1.5825,-1.5825,-1.5825,-1.5825,-1.5825,-1.5825,-1.5825,-1.5825,-1.5825,-1.5825,-1.5825,-1.5825,-1.5825,-1.5825,-1.5825,-1.5825,-1.5825,-1.5825,-1.5825,-1.5825,-1.5825,-1.5825,-1.5737,-1.5415,-1.4871,-1.2431,-1.024,-0.9079,-0.8407,-0.8322,-0.8233,-0.8137,-0.8137,-0.8038,-0.8038,-0.8038,-0.8038,-0.8038,-0.8038,-0.8038,-0.8038,-0.8038,-0.8038,-0.8038,-0.8038,-0.8038,-0.8038,-0.8038,-0.8038,-0.8038,-0.8038,-0.8038,-0.8038,-0.8038,-0.8038,-2.2084,-2.1505,-2.2037,-2.2347,-2.249,-2.2521,-2.2442,-2.2212,-2.1894,-2.1431,-2.0578,-1.9517,-1.7969,-1.5968,-1.4487,-1.3624,-1.2762,-1.298,-1.3197,-1.3413,-1.4266,-1.4905,-1.5232,-1.608,-1.6611,-1.6861,-1.7264,-1.7909,-1.8393,-1.9211,-1.9444,-1.9098,-1.8626,-1.822,-1.8016,-1.7694,-1.7582,-1.7575,-1.7575,-1.7582,-1.7549,-1.7455,-1.7315,-1.7264,-1.7021,-1.6807,-1.66,-1.652,-1.6473,-1.6299,-1.6199,-1.6079,-1.6032,-1.5939,-1.5825,-1.5825,-1.5825,-1.5825,-1.5825,-1.5825,-1.5825,-1.5825,-1.5825,-1.5825,-1.5825,-1.5825,-1.5825,-1.5825,-1.5825,-1.5825,-1.5825,-1.5825,-1.5825,-1.5825,-1.5825,-1.5825,-1.5825,-1.5825,-1.5825,-1.5825,-1.5825,-1.5825,-1.5757,-1.5652,-1.4684,-1.2441,-1.0253,-0.8791,-0.8216,-0.823,-0.8137,-0.8038,-0.8038,-0.8038,-0.8038,-0.8038,-0.8038,-0.8038,-0.8038,-0.8038,-0.8038,-0.8038,-0.8038,-0.8038,-0.8038,-0.8038,-0.8038,-0.8038,-0.8038,-0.8038,-0.8038,-0.8038,-0.8038,-0.8038,-0.8038,-2.187,-2.1409,-2.2259,-2.2569,-2.2521,-2.2871,-2.2744,-2.2323,-2.2061,-2.1597,-2.0468,-1.8807,-1.6486,-1.4589,-1.384,-1.3192,-1.2436,-1.2436,-1.2436,-1.2762,-1.3197,-1.3732,-1.4159,-1.4793,-1.5435,-1.5553,-1.6209,-1.6781,-1.7692,-1.836,-1.8742,-1.9213,-1.8562,-1.8247,-1.801,-1.7799,-1.7589,-1.7589,-1.7589,-1.7589,-1.7582,-1.7582,-1.7448,-1.7335,-1.7228,-1.7121,-1.6867,-1.6814,-1.6807,-1.6627,-1.6493,-1.6346,-1.6226,-1.5969,-1.581,-1.577,-1.5825,-1.5825,-1.5825,-1.5825,-1.5825,-1.5825,-1.5825,-1.5825,-1.5825,-1.5825,-1.5825,-1.5825,-1.5825,-1.5825,-1.5825,-1.5825,-1.5825,-1.5825,-1.5825,-1.5825,-1.5825,-1.5825,-1.5825,-1.5825,-1.5825,-1.5825,-1.5777,-1.5698,-1.4503,-1.2355,-1.0467,-0.8605,-0.8124,-0.8134,-0.8038,-0.8038,-0.8038,-0.8038,-0.8038,-0.8038,-0.8038,-0.8038,-0.8038,-0.8038,-0.8038,-0.8038,-0.8038,-0.8038,-0.8038,-0.8038,-0.8038,-0.8038,-0.8038,-0.8038,-0.8038,-0.8038,-0.8038,-0.8038,-0.8038,-2.1298,-2.1068,-2.2402,-2.2752,-2.2506,-2.2863,-2.2633,-2.21,-2.1997,-2.1372,-2.0208,-1.7765,-1.5749,-1.4379,-1.33,-1.2654,-1.2436,-1.2436,-1.2436,-1.2441,-1.255,-1.2654,-1.3083,-1.3732,-1.4396,-1.4553,-1.5104,-1.5991,-1.6612,-1.6618,-1.7744,-1.8856,-1.8294,-1.8064,-1.7925,-1.7728,-1.7589,-1.7589,-1.7589,-1.7589,-1.7589,-1.7589,-1.7555,-1.7549,-1.7515,-1.7415,-1.7141,-1.7114,-1.7034,-1.6827,-1.6727,-1.6593,-1.644,-1.598,-1.5835,-1.5929,-1.5979,-1.5979,-1.5979,-1.5879,-1.5825,-1.5825,-1.5852,-1.5872,-1.5832,-1.5838,-1.5838,-1.5838,-1.5825,-1.5825,-1.5825,-1.5825,-1.5825,-1.5825,-1.5825,-1.5825,-1.5825,-1.5825,-1.5825,-1.5825,-1.5825,-1.5825,-1.5737,-1.5639,-1.4877,-1.2829,-1.0658,-0.8799,-0.8223,-0.8038,-0.8038,-0.8038,-0.8038,-0.8038,-0.8038,-0.8038,-0.8038,-0.8038,-0.8038,-0.8038,-0.8038,-0.8038,-0.8038,-0.8038,-0.8038,-0.8038,-0.8038,-0.8038,-0.8038,-0.8038,-0.8038,-0.8038,-0.8038,-0.8038,-0.8038,-2.137,-2.1338,-2.2299,-2.2482,-2.2204,-2.2768,-2.2736,-2.2299,-2.1945,-2.1046,-1.9783,-1.7338,-1.5749,-1.4793,-1.3186,-1.2436,-1.2436,-1.2436,-1.2446,-1.2436,-1.2436,-1.2436,-1.2654,-1.2811,-1.3158,-1.3502,-1.4067,-1.4841,-1.5693,-1.5361,-1.677,-1.7663,-1.7593,-1.7696,-1.7656,-1.7781,-1.7701,-1.7589,-1.7589,-1.7589,-1.7589,-1.7589,-1.7589,-1.7589,-1.7589,-1.7535,-1.7428,-1.7415,-1.7335,-1.7221,-1.7061,-1.6901,-1.674,-1.6175,-1.6131,-1.6241,-1.6313,-1.6319,-1.6239,-1.6052,-1.5832,-1.5872,-1.5972,-1.6052,-1.5939,-1.5992,-1.5965,-1.5919,-1.5865,-1.5905,-1.5845,-1.5838,-1.5825,-1.5825,-1.5852,-1.5885,-1.5885,-1.5919,-1.5899,-1.5932,-1.5872,-1.5825,-1.5642,-1.5566,-1.4592,-1.3312,-1.1146,-0.919,-0.852,-0.8038,-0.8038,-0.8038,-0.8038,-0.8038,-0.8038,-0.8038,-0.8038,-0.8038,-0.8038,-0.8038,-0.8038,-0.8038,-0.8038,-0.8038,-0.8038,-0.8038,-0.8038,-0.8038,-0.8038,-0.8038,-0.8038,-0.8038,-0.8038,-0.8038,-0.8038,-2.1298,-2.1377,-2.2037,-2.2251,-2.2204,-2.276,-2.2744,-2.2221,-2.1744,-2.0613,-1.9049,-1.6916,-1.5755,-1.49,-1.3403,-1.2436,-1.2465,-1.2512,-1.254,-1.2578,-1.2616,-1.2611,-1.2625,-1.2663,-1.2971,-1.2838,-1.2993,-1.3725,-1.4593,-1.4178,-1.5396,-1.6476,-1.6875,-1.7194,-1.799,-1.7862,-1.7687,-1.7582,-1.7589,-1.7589,-1.7589,-1.7589,-1.7589,-1.7589,-1.7589,-1.7582,-1.7555,-1.7542,-1.7549,-1.7475,-1.7375,-1.7235,-1.6992,-1.6737,-1.6572,-1.6633,-1.6827,-1.6934,-1.6593,-1.6288,-1.5989,-1.6192,-1.6397,-1.6384,-1.6213,-1.6279,-1.6299,-1.6192,-1.6126,-1.6079,-1.6066,-1.6159,-1.6179,-1.6239,-1.6226,-1.6233,-1.6146,-1.6126,-1.6072,-1.6046,-1.5999,-1.5992,-1.5747,-1.5364,-1.3698,-1.2624,-1.0863,-0.9197,-0.8326,-0.8038,-0.8038,-0.8038,-0.8038,-0.8038,-0.8038,-0.8038,-0.8038,-0.8038,-0.8038,-0.8038,-0.8038,-0.8038,-0.8038,-0.8038,-0.8038,-0.8038,-0.8038,-0.8038,-0.8038,-0.8038,-0.8038,-0.8038,-0.8038,-0.8038,-0.8038,-2.0972,-2.102,-2.1703,-2.2164,-2.2426,-2.2855,-2.2514,-2.1736,-2.1472,-2.0233,-1.8122,-1.6698,-1.5535,-1.4374,-1.298,-1.2436,-1.2488,-1.2635,-1.2724,-1.2739,-1.2857,-1.2984,-1.2999,-1.2984,-1.297,-1.3041,-1.3088,-1.3303,-1.3639,-1.3616,-1.4301,-1.5462,-1.6334,-1.7099,-1.8642,-1.8266,-1.7911,-1.7687,-1.7589,-1.7589,-1.7589,-1.7589,-1.7589,-1.7589,-1.7589,-1.7589,-1.7589,-1.7589,-1.7589,-1.7555,-1.7549,-1.7408,-1.7221,-1.7304,-1.715,-1.6834,-1.7257,-1.723,-1.6734,-1.6473,-1.654,-1.6587,-1.672,-1.6746,-1.6647,-1.668,-1.6647,-1.6493,-1.6547,-1.6593,-1.664,-1.664,-1.6587,-1.6553,-1.6526,-1.6493,-1.64,-1.6359,-1.6319,-1.6286,-1.6273,-1.6246,-1.5868,-1.5177,-1.3158,-1.1643,-1.028,-0.9209,-0.8333,-0.8038,-0.8038,-0.8038,-0.8038,-0.8038,-0.8038,-0.8038,-0.8038,-0.8038,-0.8038,-0.8038,-0.8038,-0.8038,-0.8038,-0.8038,-0.8038,-0.8038,-0.8038,-0.8038,-0.8038,-0.8038,-0.8038,-0.8038,-0.8038,-0.8038,-0.8038,-2.1149,-2.0984,-2.1438,-2.1913,-2.218,-2.2513,-2.2277,-2.1503,-2.0643,-1.935,-1.7707,-1.6499,-1.5328,-1.4159,-1.3103,-1.2455,-1.2493,-1.2663,-1.2767,-1.281,-1.3008,-1.3041,-1.3079,-1.3126,-1.3159,-1.3249,-1.3296,-1.3381,-1.3713,-1.3462,-1.4212,-1.5392,-1.6589,-1.7681,-1.8143,-1.8044,-1.7905,-1.7694,-1.7589,-1.7589,-1.7589,-1.7589,-1.7589,-1.7589,-1.7589,-1.7589,-1.7589,-1.7589,-1.7589,-1.7589,-1.7589,-1.7522,-1.7422,-1.7637,-1.7486,-1.7275,-1.7619,-1.7515,-1.7288,-1.7145,-1.6972,-1.6941,-1.6995,-1.7022,-1.676,-1.6914,-1.6874,-1.678,-1.6794,-1.6774,-1.6687,-1.6693,-1.6673,-1.666,-1.6647,-1.664,-1.66,-1.6613,-1.66,-1.6481,-1.6461,-1.6136,-1.5774,-1.4708,-1.2854,-1.1801,-1.0622,-0.9343,-0.834,-0.8038,-0.8038,-0.8038,-0.8038,-0.8038,-0.8038,-0.8038,-0.8038,-0.8038,-0.8038,-0.8038,-0.8038,-0.8038,-0.8038,-0.8038,-0.8038,-0.8038,-0.8038,-0.8038,-0.8038,-0.8038,-0.8038,-0.8038,-0.8038,-0.8038,-0.8038,-2.1286,-2.1116,-2.121,-2.1518,-2.1781,-2.2095,-2.1791,-2.0972,-2.0031,-1.8848,-1.7575,-1.6399,-1.5227,-1.4186,-1.3168,-1.255,-1.2587,-1.2862,-1.2989,-1.3013,-1.3197,-1.3296,-1.3306,-1.3273,-1.3391,-1.3471,-1.3499,-1.3575,-1.3665,-1.3684,-1.4687,-1.6037,-1.7221,-1.7895,-1.819,-1.8337,-1.801,-1.7799,-1.7694,-1.7589,-1.7589,-1.7589,-1.7589,-1.7589,-1.7589,-1.7589,-1.7589,-1.7589,-1.7589,-1.7589,-1.7589,-1.7589,-1.7589,-1.7589,-1.7589,-1.7589,-1.7582,-1.7569,-1.7549,-1.7542,-1.7328,-1.7128,-1.7215,-1.7188,-1.7068,-1.7221,-1.7194,-1.7108,-1.7001,-1.6994,-1.6994,-1.6974,-1.6961,-1.6967,-1.6974,-1.6981,-1.6887,-1.6907,-1.6947,-1.6819,-1.6652,-1.622,-1.5524,-1.4032,-1.2661,-1.1817,-1.1084,-0.9662,-0.8375,-0.8175,-0.8079,-0.8079,-0.8062,-0.8052,-0.8048,-0.8038,-0.8038,-0.8038,-0.8038,-0.8038,-0.8038,-0.8038,-0.8038,-0.8038,-0.8038,-0.8038,-0.8038,-0.8038,-0.8038,-0.8038,-0.8038,-0.8038,-0.8038,-0.8038,-0.8038,-2.1101,-2.1101,-2.1101,-2.1109,-2.1225,-2.1441,-2.1002,-2.0143,-1.962,-1.8646,-1.7371,-1.6293,-1.512,-1.4104,-1.3096,-1.2845,-1.2814,-1.3154,-1.3277,-1.3386,-1.3485,-1.3575,-1.3618,-1.3618,-1.3599,-1.3641,-1.3665,-1.3636,-1.3688,-1.3688,-1.476,-1.6431,-1.6893,-1.7942,-1.8672,-1.8816,-1.8429,-1.803,-1.7898,-1.7799,-1.7694,-1.7694,-1.7694,-1.7694,-1.7589,-1.7589,-1.7589,-1.7589,-1.7589,-1.7589,-1.7589,-1.7589,-1.7589,-1.7589,-1.7589,-1.7589,-1.7589,-1.7589,-1.7589,-1.7589,-1.7575,-1.7422,-1.7502,-1.7555,-1.7528,-1.7468,-1.7428,-1.7435,-1.7388,-1.7462,-1.7502,-1.7482,-1.7455,-1.7462,-1.7468,-1.7382,-1.7248,-1.7241,-1.7295,-1.7268,-1.7085,-1.6587,-1.5716,-1.4316,-1.2485,-1.1737,-1.0865,-0.9521,-0.8526,-0.8271,-0.817,-0.8157,-0.813,-0.8079,-0.7965,-0.7969,-0.8038,-0.8038,-0.8038,-0.8038,-0.8038,-0.8038,-0.8038,-0.8038,-0.8038,-0.8038,-0.8038,-0.8038,-0.8038,-0.8038,-0.8038,-0.8038,-0.8038,-0.8038,-0.8038,-2.0775,-2.0783,-2.0775,-2.102,-2.1368,-2.0833,-2.034,-1.9822,-1.9398,-1.8318,-1.6399,-1.608,-1.49,-1.2999,-1.2779,-1.2758,-1.2932,-1.3145,-1.3325,-1.3471,-1.3603,-1.3665,-1.3688,-1.3688,-1.3688,-1.3688,-1.3688,-1.3688,-1.3688,-1.3688,-1.509,-1.6844,-1.7026,-1.8341,-1.9243,-1.9456,-1.8816,-1.8387,-1.824,-1.801,-1.7905,-1.7905,-1.7799,-1.7694,-1.7694,-1.7694,-1.7589,-1.7589,-1.7589,-1.7589,-1.7589,-1.7589,-1.7589,-1.7589,-1.7589,-1.7589,-1.7589,-1.7589,-1.7589,-1.7589,-1.7589,-1.7589,-1.7589,-1.7589,-1.7582,-1.7589,-1.7589,-1.7589,-1.7589,-1.7589,-1.7589,-1.7589,-1.7589,-1.7589,-1.7589,-1.7528,-1.7408,-1.7428,-1.7475,-1.7357,-1.718,-1.6501,-1.5725,-1.3948,-1.2202,-1.1545,-1.0649,-0.9399,-0.8581,-0.8429,-0.8279,-0.8269,-0.8208,-0.8157,-0.8026,-0.8022,-0.7972,-0.8038,-0.8038,-0.8038,-0.8038,-0.8038,-0.8038,-0.8038,-0.8038,-0.8038,-0.8038,-0.8038,-0.8038,-0.8038,-0.8038,-0.8038,-0.8038,-0.8038,-0.8038,-2.0565,-2.0456,-2.0456,-2.0376,-2.0114,-2.013,-1.967,-1.8981,-1.9168,-1.7989,-1.6074,-1.5861,-1.4578,-1.2707,-1.2743,-1.2909,-1.2942,-1.332,-1.3528,-1.3566,-1.3632,-1.367,-1.3688,-1.3688,-1.3688,-1.3688,-1.3688,-1.3688,-1.3808,-1.4515,-1.5682,-1.7172,-1.7414,-1.8925,-1.9835,-1.9852,-1.9369,-1.8957,-1.8626,-1.8345,-1.822,-1.8115,-1.801,-1.7799,-1.7799,-1.7694,-1.7582,-1.7582,-1.7589,-1.7589,-1.7589,-1.7589,-1.7589,-1.7589,-1.7589,-1.7589,-1.7589,-1.7589,-1.7589,-1.7589,-1.7589,-1.7589,-1.7589,-1.7589,-1.7589,-1.7589,-1.7589,-1.7589,-1.7589,-1.7589,-1.7589,-1.7589,-1.7589,-1.7589,-1.7589,-1.7589,-1.7575,-1.7575,-1.7477,-1.7371,-1.6929,-1.628,-1.5134,-1.3331,-1.1898,-1.1134,-1.0266,-0.9259,-0.8711,-0.8496,-0.8438,-0.8397,-0.8316,-0.8241,-0.8106,-0.8049,-0.7979,-0.8038,-0.8038,-0.8038,-0.8038,-0.8038,-0.8038,-0.8038,-0.8038,-0.8038,-0.8038,-0.8038,-0.8038,-0.8038,-0.8038,-0.8038,-0.8038,-0.8038,-0.8038,-2.0172,-2.0194,-2.0252,-1.9453,-1.8273,-1.9191,-1.8935,-1.7669,-1.8555,-1.7932,-1.6311,-1.5998,-1.4741,-1.3227,-1.3077,-1.3051,-1.3178,-1.3471,-1.3636,-1.3684,-1.3674,-1.3688,-1.3688,-1.3688,-1.3688,-1.3688,-1.3808,-1.3923,-1.4282,-1.4986,-1.6037,-1.743,-1.8276,-1.9446,-2.0511,-2.0281,-1.9881,-1.97,-1.9163,-1.8626,-1.8548,-1.8422,-1.8318,-1.8115,-1.8016,-1.7911,-1.7687,-1.7582,-1.7589,-1.7589,-1.7589,-1.7589,-1.7589,-1.7589,-1.7589,-1.7589,-1.7589,-1.7589,-1.7589,-1.7589,-1.7589,-1.7589,-1.7589,-1.7589,-1.7589,-1.7589,-1.7589,-1.7589,-1.7589,-1.7589,-1.7589,-1.7589,-1.7589,-1.7589,-1.7589,-1.7589,-1.7589,-1.7477,-1.7259,-1.7054,-1.6849,-1.6092,-1.4995,-1.3286,-1.1877,-1.0845,-0.9877,-0.8989,-0.8818,-0.8676,-0.8591,-0.852,-0.8377,-0.8279,-0.8123,-0.8059,-0.7975,-0.8038,-0.8038,-0.8038,-0.8038,-0.8038,-0.8038,-0.8038,-0.8038,-0.8038,-0.8038,-0.8038,-0.8038,-0.8038,-0.8038,-0.8038,-0.8038,-0.8038,-0.8038,-1.9652,-1.9923,-2.0406,-1.9736,-1.8494,-1.8807,-1.8151,-1.6802,-1.7017,-1.7207,-1.7032,-1.639,-1.5292,-1.383,-1.3296,-1.315,-1.3348,-1.3537,-1.366,-1.3688,-1.3688,-1.3688,-1.3688,-1.3688,-1.3688,-1.3688,-1.3808,-1.4157,-1.4986,-1.5693,-1.6744,-1.8616,-1.9307,-1.9988,-2.09,-2.0567,-2.034,-2.0267,-1.9692,-1.9019,-1.8772,-1.875,-1.8653,-1.8331,-1.8115,-1.8023,-1.7806,-1.7694,-1.7694,-1.7589,-1.7589,-1.7589,-1.7589,-1.7589,-1.7589,-1.7589,-1.7589,-1.7589,-1.7589,-1.7589,-1.7589,-1.7589,-1.7589,-1.7589,-1.7589,-1.7589,-1.7589,-1.7589,-1.7589,-1.7589,-1.7589,-1.7589,-1.7589,-1.7589,-1.7589,-1.7589,-1.7589,-1.7259,-1.6935,-1.673,-1.653,-1.5666,-1.4578,-1.3388,-1.2082,-1.0781,-0.9695,-0.892,-0.891,-0.8818,-0.8716,-0.8615,-0.8404,-0.8299,-0.8153,-0.8083,-0.8106,-0.8048,-0.8038,-0.8038,-0.8038,-0.8038,-0.8038,-0.8038,-0.8038,-0.8038,-0.8038,-0.8038,-0.8038,-0.8038,-0.8038,-0.8038,-0.8038,-0.8038,-0.8038,-1.9381,-1.9601,-2.0084,-1.9516,-1.84,-1.8417,-1.761,-1.6519,-1.6486,-1.6821,-1.6919,-1.6032,-1.4999,-1.404,-1.3341,-1.3244,-1.3424,-1.3594,-1.367,-1.3688,-1.3688,-1.3688,-1.3688,-1.3688,-1.3688,-1.3688,-1.3808,-1.4277,-1.5575,-1.6397,-1.7566,-1.921,-1.9795,-2.0371,-2.1145,-2.0808,-2.0552,-2.045,-1.9901,-1.9422,-1.91,-1.9078,-1.8974,-1.8653,-1.8436,-1.8338,-1.8016,-1.7806,-1.7694,-1.7694,-1.7589,-1.7589,-1.7589,-1.7589,-1.7589,-1.7589,-1.7589,-1.7589,-1.7589,-1.7589,-1.7589,-1.7589,-1.7589,-1.7589,-1.7589,-1.7589,-1.7589,-1.7589,-1.7589,-1.7589,-1.7589,-1.7589,-1.7589,-1.7589,-1.7589,-1.7589,-1.7246,-1.6804,-1.6605,-1.653,-1.6105,-1.5232,-1.4148,-1.3063,-1.1655,-1.0135,-0.9047,-0.8937,-0.8933,-0.8916,-0.8828,-0.874,-0.8543,-0.8411,-0.8374,-0.8272,-0.8147,-0.8096,-0.8052,-0.8038,-0.8038,-0.8038,-0.8038,-0.8038,-0.8038,-0.8038,-0.8038,-0.8038,-0.8038,-0.8038,-0.8038,-0.8038,-0.8038,-0.7939,-0.7939,-1.9279,-1.9323,-1.9645,-1.8992,-1.7895,-1.7826,-1.6989,-1.594,-1.6034,-1.615,-1.5919,-1.5058,-1.4048,-1.3754,-1.3287,-1.3367,-1.3476,-1.3622,-1.3679,-1.3688,-1.3688,-1.3688,-1.3688,-1.3688,-1.3688,-1.3808,-1.4043,-1.4862,-1.6042,-1.7097,-1.8267,-1.9557,-2.0385,-2.1211,-2.1035,-2.075,-2.0486,-2.0318,-1.993,-1.9513,-1.936,-1.9286,-1.9182,-1.8974,-1.8869,-1.866,-1.8338,-1.8016,-1.7905,-1.7694,-1.7694,-1.7589,-1.7589,-1.7589,-1.7589,-1.7589,-1.7589,-1.7589,-1.7589,-1.7589,-1.7589,-1.7589,-1.7589,-1.7589,-1.7589,-1.7589,-1.7589,-1.7589,-1.7589,-1.7589,-1.7589,-1.7589,-1.7589,-1.7589,-1.7589,-1.7483,-1.6922,-1.6467,-1.6287,-1.6217,-1.5672,-1.4911,-1.3717,-1.2635,-1.1332,-0.9699,-0.8937,-0.8937,-0.893,-0.8906,-0.8852,-0.8825,-0.8737,-0.8625,-0.8499,-0.836,-0.8211,-0.814,-0.8096,-0.8062,-0.8038,-0.8038,-0.8038,-0.8038,-0.8038,-0.8038,-0.8038,-0.8038,-0.8038,-0.8038,-0.8038,-0.8038,-0.8038,-0.7939,-0.7842,-1.9272,-1.9301,-1.9623,-1.8555,-1.6829,-1.69,-1.5681,-1.3937,-1.4009,-1.4018,-1.4134,-1.4172,-1.4074,-1.4688,-1.3698,-1.3443,-1.3589,-1.3679,-1.3684,-1.3688,-1.3688,-1.3688,-1.3688,-1.3688,-1.3688,-1.4043,-1.4629,-1.5919,-1.6744,-1.815,-1.9564,-2.0737,-2.0852,-2.1211,-2.1189,-2.0933,-2.0757,-2.0494,-2.0172,-1.9806,-1.9564,-1.9455,-1.9294,-1.9175,-1.8974,-1.8869,-1.866,-1.8227,-1.8016,-1.7911,-1.7694,-1.7589,-1.7589,-1.7589,-1.7589,-1.7589,-1.7589,-1.7589,-1.7589,-1.7589,-1.7589,-1.7589,-1.7589,-1.7589,-1.7589,-1.7589,-1.7589,-1.7589,-1.7589,-1.7589,-1.7589,-1.7589,-1.7589,-1.7595,-1.7602,-1.7272,-1.6829,-1.6393,-1.6074,-1.6099,-1.5891,-1.4691,-1.3171,-1.2309,-1.1442,-1.0029,-0.8937,-0.8937,-0.8937,-0.8906,-0.8876,-0.8763,-0.8756,-0.871,-0.8533,-0.8425,-0.8296,-0.8214,-0.813,-0.8072,-0.8038,-0.8038,-0.8038,-0.8038,-0.8038,-0.8038,-0.8038,-0.8038,-0.8038,-0.8038,-0.8038,-0.8038,-0.8038,-0.7939,-0.7842]},{"header":{"parameterUnit":"m.s-1","parameterCategory":1,"la1":31.0,"la2":29.5877,"lo1":-88.7671,"lo2":-86.6584,"dy":0.0162,"dx":0.0185,"nx":115,"ny":88,"refTime":"2023-07-29T06:00:00:Z","depth":0,"parameterNumber":3,"parameterNumberName":"V-component_of_WINDS"},"data":[0.0,0.0,0.0,0.0,0.0,0.0,0.0,0.0,0.0,0.0,0.0,0.0,0.0,0.0,0.0,0.0,0.0,0.0,0.0,0.0,0.0,0.0,0.0,0.0,0.0,0.0,0.0,0.0,0.0,0.0,0.0,0.0,0.0,0.0,0.0,0.0,0.0,0.0,0.0,0.0,0.0,0.0,0.0,0.0,0.0,0.0,0.0,0.0,0.0,0.0,0.0,0.0,0.0,0.0,0.0,0.0,0.0,0.0,0.0,0.0,0.0,0.0,0.0,0.0,0.0,0.0,0.0,0.0,0.0,0.0,0.0,0.0,0.0,0.0,0.0,0.0,0.0,0.0,0.0,0.0,0.0,0.0,0.0,0.0,0.0,0.0,0.0,0.0,0.0,0.0,0.0,0.0,0.0,0.0,0.0,0.0,0.0,0.0,0.0,0.0,0.0,0.0,0.0,0.0,0.0,0.0,0.0,0.0,0.0,0.0,0.0,0.0,0.0,0.0,0.0,0.0,0.0,0.0,0.0,0.0,0.0,0.0,0.0,0.0,0.0,0.0,0.0,0.0,0.0,0.0,0.0,0.0,0.0,0.0,0.0,0.0,0.0,0.0,0.0,0.0,0.0,0.0,0.0,0.0,0.0,0.0,0.0,0.0,0.0,0.0,0.0,0.0,0.0,0.0,0.0,0.0,0.0,0.0,0.0,0.0,0.0,0.0,0.0,0.0,0.0,0.0,0.0,0.0,0.0,0.0,0.0,0.0,0.0,0.0,0.0,0.0,0.0,0.0,0.0,0.0,0.0,0.0,0.0,0.0,0.0,0.0,0.0,0.0,0.0,0.0,0.0,0.0,0.0,0.0,0.0,0.0,0.0,0.0,0.0,0.0,0.0,0.0,0.0,0.0,0.0,0.0,0.0,0.0,0.0,0.0,0.0,0.0,0.0,0.0,0.0,0.0,0.0,0.0,0.0,0.0,0.0,0.0,0.0,0.0,0.0,0.0,0.0,0.0,0.0,0.0,0.0,0.0,0.0,0.0,0.0,0.0,0.0,0.0,0.0,0.0,0.0,0.0,0.0,0.0,0.0,0.0,0.0,0.0,0.0,0.0,0.0,0.0,0.0,0.0,0.0,0.0,0.0,0.0,0.0,0.0,0.0,0.0,0.0,0.0,0.0,0.0,0.0,0.0,0.0,0.0,0.0,0.0,0.0,0.0,0.0,0.0,0.0,0.0,0.0,0.0,0.0,0.0,0.0,0.0,0.0,0.0,0.0,0.0,0.0,0.0,0.0,0.0,0.0,0.0,0.0,0.0,0.0,0.0,0.0,0.0,0.0,0.0,0.0,0.0,0.0,0.0,0.0,0.0,0.0,0.0,0.0,0.0,0.0,0.0,0.0,0.0,0.0,0.0,0.0,0.0,0.0,0.0,0.0,0.0,0.0,0.0,0.0,0.0,0.0,0.0,0.0,0.0,0.0,0.0,0.0,0.0,0.0,0.0,0.0,0.0,0.0,0.0,0.0,0.0,0.0,0.0,0.0,0.0,0.0,0.0,0.0,0.0,0.0,0.0,0.0,0.0,0.0,0.0,0.0,0.0,0.0,0.0,0.0,0.0,0.0,0.0,0.0,0.0,0.0,0.0,0.0,0.0,0.0,0.0,0.0,0.0,0.0,0.0,0.0,0.0,0.0,0.0,0.0,0.0,0.0,0.0,0.0,0.0,0.0,0.0,0.0,0.0,0.0,0.0,0.0,0.0,0.0,0.0,0.0,0.0,0.0,0.0,0.0,0.0,0.0,0.0,0.0,0.0,0.0,0.0,0.0,0.0,0.0,0.0,0.0,0.0,0.0,0.0,0.0,0.0,0.0,0.0,0.0,0.0,0.0,0.0,0.0,0.0,0.0,0.0,0.0,0.0,0.0,0.0,0.0,0.0,0.0,0.0,0.0,0.0,0.0,0.0,0.0,0.0,0.0,0.0,0.0,0.0,0.0,0.0,0.0,0.0,0.0,0.0,0.0,0.0,0.0,0.0,0.0,0.0,0.0,0.0,0.0,0.0,0.0,0.0,0.0,0.0,0.0,0.0,0.0,0.0,0.0,0.0,0.0,0.0,0.0,0.0,0.0,0.0,0.0,0.0,0.0,0.0,0.0,0.0,0.0,0.0,0.0,0.0,0.0,0.0,0.0,0.0,0.0,0.0,0.0,0.0,0.0,0.0,0.0,0.0,0.0,0.0,0.0,0.0,0.0,0.0,0.0,0.0,0.0,0.0,0.0,0.0,0.0,0.0,0.0,0.0,0.0,0.0,0.0,0.0,0.0,0.0,0.0,0.0,0.0,0.0,0.0,0.0,0.0,0.0,0.0,0.0,0.0,0.0,0.0,0.0,0.0,0.0,0.0,0.0,0.0,0.0,0.0,0.0,0.0,0.0,0.0,0.0,0.0,0.0,0.0,0.0,0.0,0.0,0.0,0.0,0.0,0.0,0.0,0.0,0.0,0.0,0.0,0.0,0.0,0.0,0.0,0.0,0.0,0.0,0.0,0.0,0.0,0.0,0.0,0.0,0.0,0.0,0.0,0.0,0.0,0.0,0.0,0.0,0.0,0.0,0.0,0.0,0.0,0.0,0.0,0.0,0.0,0.0,0.0,0.0,0.0,0.0,0.0,0.0,0.0,0.0,0.0,0.0,0.0,0.0,0.0,0.0,0.0,0.0,0.0,0.0,0.0,0.0,0.0,0.0,0.0,0.0,0.0,0.0,0.0,0.0,0.0,0.0,0.0,0.0,0.0,0.0,0.0,0.0,0.0,0.0,0.0,0.0,0.0,0.0,0.0,0.0,0.0,0.0,0.0,0.0,0.0,0.0,0.0,0.0,0.0,0.0,0.0,0.0,0.0,0.0,0.0,0.0,0.0,0.0,0.0,0.0,0.0,0.0,0.0,0.0,0.0,0.0,0.0,0.0,0.0,0.0,0.0,0.0,0.0,0.0,0.0,0.0,0.0,0.0,0.0,0.0,0.0,0.0,0.0,0.0,0.0,0.0,0.0,0.0,0.0,0.0,0.0,0.0,0.0,0.0,0.0,0.0,0.0,0.0,0.0,0.0,0.0,0.0,0.0,0.0,0.0,0.0,0.0,0.0,0.0,0.0,0.0,0.0,0.0,0.0,0.0,0.0,0.0,0.0,0.0,0.0,0.0,0.0,0.0,0.0,0.0,0.0,0.0,0.0,0.0,0.0,0.0,0.0,0.0,0.0,0.0,0.0,0.0,0.0,0.0,0.0,0.0,0.0,0.0,0.0,0.0,0.0,0.0,0.0,0.0,0.0,0.0,0.0,0.0,0.0,0.0,0.0,0.0,0.0,0.0,0.0,0.0,0.0,0.0,0.0,0.0,0.0,0.0,0.0,0.0,0.0,0.0,0.0,0.0,0.0,0.0,0.0,0.0,0.0,0.0,0.0,0.0,0.0,0.0,0.0,0.0,0.0,0.0,0.0,0.0,0.0,0.0,0.0,0.0,0.0,0.0,0.0,0.0,0.0,0.0,0.0,0.0,0.0,0.0,0.0,0.0,0.0,0.0,0.0,0.0,0.0,0.0,0.0,0.0,0.0,0.0,0.0,0.0,0.0,0.0,0.0,0.0,0.0,0.0,0.0,0.0,0.0,0.0,0.0,0.0,0.0,0.0,0.0,0.0,0.0,0.0,0.0,0.0,0.0,0.0,0.0,0.0,0.0,0.0,0.0,0.0,0.0,0.0,0.0,0.0,0.0,0.0,0.0,0.0,0.0,0.0,0.0,0.0,0.0,0.0,0.0,0.0,0.0,0.0,0.0,0.0,0.0,0.0,0.0,0.0,0.0,0.0,0.0,0.0,0.0,0.0,0.0,0.0,0.0,0.0,0.0,0.0,0.0,0.0,0.0,0.0,0.0,0.0,0.0,0.0,0.0,0.0,0.0,0.0,0.0,0.0,0.0,0.0,0.0,0.0,0.0,0.0,0.0,0.0,0.0,0.0,0.0,0.0,0.0,0.0,0.0,0.0,0.0,0.0,0.0,0.0,0.0,0.0,0.0,0.0,0.0,0.0,0.0,0.0,0.0,0.0,0.0,0.0,0.0,0.0,0.0,0.0,0.0,0.0,0.0,0.0,0.0,0.0,0.0,0.0,0.0,0.0,0.0,0.0,0.0,0.0,0.0,0.0,0.0,0.0,0.0,0.0,0.0,0.0,0.0,0.0,0.0,0.0,0.0,0.0,0.0,0.0,0.0,0.0,0.0,0.0,0.0,-0.9064,0.0,0.0,0.0,0.0,0.0,0.0,0.0,0.0,0.0,0.0,0.0,0.0,0.0,0.0,0.0,0.0,0.0,0.0,0.0,0.0,0.0,0.0,0.0,0.0,0.0,0.0,0.0,0.0,0.0,0.0,0.0,0.0,0.0,0.0,0.0,0.0,0.0,0.0,0.0,0.0,0.0,0.0,0.0,0.0,0.0,0.0,0.0,0.0,0.0,0.0,0.0,0.0,0.0,0.0,0.0,0.0,0.0,0.0,0.0,0.0,0.0,0.0,0.0,0.0,0.0,0.0,0.0,0.0,0.0,0.0,0.0,0.0,0.0,0.0,0.0,0.0,0.0,0.0,0.0,0.0,0.0,0.0,0.0,0.0,0.0,0.0,0.0,0.0,0.0,0.0,0.0,0.0,0.0,0.0,0.0,0.0,0.0,0.0,0.0,0.0,0.0,0.0,0.0,0.0,0.0,0.0,0.0,0.0,0.0,0.0,-1.0268,-1.0289,-1.0308,-0.9901,-0.9046,0.0,0.0,0.0,0.0,0.0,0.0,0.0,0.0,0.0,0.0,0.0,0.0,0.0,0.0,0.0,0.0,0.0,0.0,0.0,0.0,0.0,0.0,0.0,0.0,0.0,0.0,0.0,0.0,0.0,0.0,0.0,0.0,0.0,0.0,0.0,0.0,0.0,0.0,0.0,0.0,0.0,0.0,0.0,0.0,0.0,0.0,0.0,0.0,0.0,0.0,0.0,0.0,0.0,0.0,0.0,0.0,0.0,0.0,0.0,0.0,0.0,0.0,0.0,0.0,0.0,0.0,0.0,0.0,0.0,0.0,0.0,0.0,0.0,0.0,0.0,0.0,0.0,0.0,0.0,0.0,0.0,0.0,0.0,0.0,0.0,0.0,0.0,0.0,0.0,0.0,0.0,0.0,0.0,0.0,0.0,0.0,0.0,0.0,0.0,0.0,0.0,0.0,0.0,0.0,0.0,0.0,0.0,0.0,0.0,0.0,0.0,0.0,-1.0315,-1.0002,-0.9359,0.0,0.0,0.0,0.0,0.0,0.0,0.0,0.0,0.0,0.0,0.0,0.0,0.0,0.0,0.0,0.0,0.0,0.0,0.0,0.0,0.0,0.0,0.0,0.0,0.0,0.0,0.0,0.0,0.0,0.0,0.0,0.0,0.0,0.0,0.0,0.0,0.0,0.0,0.0,0.0,0.0,0.0,0.0,0.0,0.0,0.0,0.0,0.0,0.0,0.0,0.0,0.0,0.0,0.0,0.0,0.0,0.0,0.0,0.0,0.0,0.0,0.0,0.0,0.0,0.0,0.0,0.0,0.0,0.0,0.0,0.0,0.0,0.0,0.0,0.0,0.0,0.0,0.0,0.0,0.0,0.0,0.0,0.0,0.0,0.0,0.0,0.0,0.0,0.0,0.0,0.0,0.0,0.0,0.0,0.0,0.0,0.0,0.0,0.0,0.0,0.0,0.0,0.0,0.0,0.0,0.0,0.0,0.0,0.0,0.0,-1.0318,-1.0314,-1.0318,0.0,-1.0191,0.0,0.0,0.0,0.0,0.0,0.0,0.0,0.0,0.0,0.0,0.0,0.0,0.0,0.0,0.0,0.0,0.0,0.0,0.0,0.0,0.0,0.0,0.0,0.0,0.0,0.0,0.0,0.0,0.0,0.0,0.0,0.0,0.0,0.0,0.0,0.0,0.0,0.0,0.0,0.0,0.0,0.0,0.0,0.0,0.0,0.0,0.0,0.0,0.0,0.0,0.0,0.0,0.0,0.0,0.0,0.0,0.0,0.0,0.0,0.0,0.0,0.0,0.0,0.0,0.0,0.0,0.0,0.0,0.0,0.0,0.0,0.0,0.0,0.0,0.0,0.0,0.0,0.0,0.0,0.0,0.0,0.0,0.0,0.0,0.0,0.0,0.0,0.0,0.0,0.0,0.0,0.0,0.0,0.0,0.0,0.0,0.0,0.0,0.0,0.0,0.0,0.0,0.0,0.0,0.0,0.0,0.0,0.0,0.0,0.0,-1.0322,-1.0321,-1.0322,-1.0319,0.0,0.0,0.0,0.0,0.0,0.0,0.0,0.0,0.0,0.0,0.0,0.0,0.0,0.0,0.0,0.0,0.0,0.0,0.0,0.0,0.0,0.0,0.0,0.0,0.0,0.0,0.0,0.0,0.0,0.0,0.0,0.0,0.0,0.0,0.0,0.0,0.0,0.0,0.0,0.0,0.0,0.0,0.0,0.0,0.0,0.0,0.0,0.0,0.0,0.0,0.0,0.0,0.0,0.0,0.0,0.0,0.0,0.0,0.0,0.0,0.0,0.0,0.0,0.0,0.0,0.0,0.0,0.0,0.0,0.0,0.0,0.0,0.0,0.0,0.0,0.0,0.0,0.0,0.0,0.0,0.0,0.0,0.0,0.0,0.0,0.0,0.0,0.0,0.0,0.0,0.0,0.0,0.0,0.0,0.0,0.0,0.0,0.0,0.0,0.0,0.0,0.0,0.0,0.0,0.0,0.0,0.0,0.0,0.0,0.0,-1.0323,-1.0324,-1.0324,-1.0324,-1.0321,-1.0314,0.0,0.0,0.0,0.0,0.0,0.0,0.0,0.0,0.0,0.0,0.0,0.0,0.0,0.0,0.0,0.0,0.0,0.0,0.0,0.0,0.0,0.0,0.0,0.0,0.0,0.0,0.0,0.0,0.0,0.0,0.0,0.0,0.0,0.0,0.0,0.0,0.0,0.0,0.0,0.0,0.0,0.0,0.0,0.0,0.0,0.0,0.0,0.0,0.0,0.0,0.0,0.0,0.0,0.0,0.0,0.0,0.0,0.0,0.0,0.0,0.0,0.0,0.0,0.0,0.0,0.0,0.0,0.0,0.0,0.0,0.0,0.0,0.0,0.0,0.0,0.0,0.0,0.0,0.0,0.0,0.0,0.0,0.0,0.0,0.0,0.0,0.0,0.0,0.0,0.0,0.0,0.0,0.0,0.0,0.0,0.0,0.0,0.0,0.0,0.0,0.0,0.0,0.0,0.0,0.0,0.0,0.0,0.0,-1.0383,-1.0344,-1.0324,-1.0363,-1.0324,-1.0324,0.0,0.0,0.0,0.0,0.0,0.0,0.0,0.0,0.0,0.0,0.0,0.0,0.0,0.0,0.0,0.0,0.0,0.0,0.0,0.0,0.0,0.0,0.0,0.0,0.0,0.0,0.0,0.0,0.0,0.0,0.0,0.0,0.0,0.0,0.0,0.0,0.0,0.0,0.0,0.0,0.0,0.0,0.0,0.0,0.0,0.0,0.0,0.0,0.0,0.0,0.0,0.0,0.0,0.0,0.0,0.0,0.0,0.0,0.0,0.0,0.0,0.0,0.0,0.0,0.0,0.0,0.0,0.0,0.0,0.0,0.0,0.0,0.0,0.0,0.0,0.0,0.0,0.0,0.0,0.0,0.0,0.0,0.0,0.0,0.0,0.0,0.0,0.0,0.0,0.0,0.0,0.0,0.0,0.0,0.0,0.0,0.0,0.0,0.0,0.0,0.0,0.0,0.0,0.0,0.0,0.0,0.0,0.0,0.0,-1.2025,-1.1966,-1.1968,-1.195,-1.142,-1.0872,0.0,0.0,0.0,0.0,0.0,0.0,0.0,0.0,0.0,0.0,0.0,0.0,0.0,0.0,0.0,0.0,0.0,0.0,0.0,0.0,0.0,0.0,0.0,0.0,0.0,0.0,0.0,0.0,0.0,0.0,0.0,0.0,0.0,0.0,0.0,0.0,0.0,0.0,0.0,0.0,0.0,0.0,0.0,0.0,0.0,0.0,0.0,0.0,0.0,0.0,0.0,0.0,0.0,0.0,0.0,0.0,0.0,0.0,0.0,0.0,0.0,0.0,0.0,0.0,0.0,0.0,0.0,0.0,0.0,0.0,0.0,0.0,0.0,0.0,0.0,0.0,0.0,0.0,0.0,0.0,0.0,0.0,0.0,0.0,0.0,0.0,0.0,0.0,0.0,0.0,0.0,0.0,0.0,0.0,0.0,0.0,0.0,0.0,0.0,0.0,0.0,0.0,0.0,0.0,0.0,0.0,0.0,0.0,0.0,-1.2945,0.0,-1.2906,0.0,-1.2321,-1.1753,0.0,0.0,0.0,0.0,0.0,0.0,0.0,0.0,0.0,0.0,0.0,0.0,0.0,0.0,0.0,0.0,0.0,0.0,0.0,0.0,0.0,0.0,0.0,0.0,0.0,0.0,0.0,0.0,0.0,0.0,0.0,0.0,0.0,0.0,0.0,0.0,0.0,0.0,0.0,0.0,0.0,0.0,0.0,0.0,0.0,0.0,0.0,0.0,0.0,0.0,0.0,0.0,0.0,0.0,0.0,0.0,0.0,0.0,0.0,0.0,0.0,0.0,0.0,0.0,0.0,0.0,0.0,0.0,0.0,0.0,0.0,0.0,0.0,0.0,0.0,0.0,0.0,0.0,0.0,0.0,0.0,0.0,0.0,0.0,0.0,0.0,0.0,0.0,0.0,0.0,0.0,0.0,0.0,0.0,0.0,0.0,0.0,0.0,0.0,0.0,0.0,0.0,0.0,0.0,0.0,0.0,0.0,0.0,-1.3826,-1.3006,-1.3043,-1.316,-1.2987,-1.3005,-1.2927,0.0,0.0,0.0,0.0,0.0,0.0,0.0,0.0,0.0,0.0,0.0,0.0,0.0,0.0,0.0,0.0,0.0,0.0,0.0,0.0,0.0,0.0,0.0,0.0,0.0,0.0,0.0,0.0,0.0,0.0,0.0,0.0,0.0,0.0,0.0,0.0,0.0,0.0,0.0,0.0,0.0,0.0,0.0,0.0,0.0,0.0,0.0,0.0,0.0,0.0,0.0,0.0,0.0,0.0,0.0,0.0,0.0,0.0,0.0,0.0,0.0,0.0,0.0,0.0,0.0,0.0,0.0,0.0,0.0,0.0,0.0,0.0,0.0,0.0,0.0,0.0,0.0,0.0,0.0,0.0,0.0,0.0,0.0,0.0,0.0,0.0,0.0,0.0,0.0,0.0,0.0,0.0,0.0,0.0,0.0,0.0,0.0,0.0,0.0,0.0,0.0,0.0,0.0,0.0,0.0,0.0,0.0,0.0,0.0,-1.5584,-1.6093,-1.6425,-1.6385,-1.5254,-1.4336,0.0,0.0,0.0,0.0,0.0,0.0,0.0,0.0,0.0,0.0,0.0,0.0,0.0,0.0,0.0,0.0,0.0,0.0,0.0,0.0,0.0,0.0,0.0,0.0,0.0,0.0,0.0,0.0,0.0,0.0,0.0,0.0,0.0,0.0,0.0,0.0,0.0,0.0,0.0,0.0,0.0,0.0,0.0,0.0,0.0,0.0,0.0,0.0,0.0,0.0,0.0,0.0,0.0,0.0,0.0,0.0,0.0,0.0,0.0,0.0,0.0,0.0,0.0,0.0,0.0,0.0,0.0,0.0,0.0,0.0,0.0,0.0,0.0,0.0,0.0,0.0,0.0,0.0,0.0,0.0,0.0,0.0,0.0,0.0,0.0,0.0,0.0,0.0,0.0,0.0,0.0,0.0,0.0,0.0,0.0,0.0,0.0,0.0,0.0,0.0,0.0,0.0,0.0,0.0,0.0,0.0,0.0,0.0,0.0,-1.9133,-1.9016,-1.8977,-1.8977,-1.7596,-1.6444,-1.5583,0.0,0.0,0.0,0.0,0.0,0.0,0.0,0.0,0.0,0.0,0.0,0.0,0.0,0.0,0.0,0.0,0.0,0.0,0.0,0.0,0.0,0.0,0.0,0.0,0.0,0.0,0.0,0.0,0.0,0.0,0.0,0.0,0.0,0.0,0.0,0.0,0.0,0.0,0.0,0.0,0.0,0.0,0.0,0.0,0.0,0.0,0.0,0.0,0.0,0.0,0.0,0.0,0.0,0.0,0.0,0.0,0.0,0.0,0.0,0.0,0.0,0.0,0.0,0.0,0.0,0.0,0.0,0.0,0.0,0.0,0.0,0.0,0.0,0.0,0.0,0.0,0.0,0.0,0.0,0.0,0.0,0.0,0.0,0.0,0.0,0.0,0.0,0.0,0.0,0.0,0.0,0.0,0.0,0.0,0.0,0.0,0.0,0.0,0.0,0.0,0.0,0.0,0.0,0.0,0.0,0.0,0.0,0.0,-2.3228,-2.1801,-2.1019,-2.0904,-2.0011,-1.9098,0.0,0.0,0.0,0.0,0.0,0.0,0.0,0.0,0.0,0.0,0.0,0.0,0.0,0.0,0.0,0.0,0.0,0.0,0.0,0.0,0.0,0.0,0.0,0.0,0.0,0.0,0.0,0.0,0.0,0.0,0.0,0.0,0.0,0.0,0.0,0.0,0.0,0.0,0.0,0.0,0.0,0.0,0.0,0.0,0.0,0.0,0.0,0.0,0.0,0.0,0.0,0.0,0.0,0.0,0.0,0.0,0.0,0.0,0.0,0.0,0.0,0.0,0.0,0.0,0.0,0.0,0.0,0.0,0.0,0.0,0.0,0.0,0.0,0.0,0.0,0.0,0.0,0.0,0.0,0.0,0.0,0.0,0.0,0.0,0.0,0.0,0.0,0.0,0.0,0.0,0.0,0.0,0.0,0.0,0.0,0.0,0.0,0.0,0.0,0.0,0.0,0.0,0.0,0.0,0.0,0.0,0.0,0.0,0.0,-2.5004,-2.5844,-2.5668,-2.438,-2.2898,-2.1728,0.0,0.0,0.0,0.0,0.0,0.0,0.0,0.0,0.0,0.0,0.0,0.0,0.0,0.0,0.0,0.0,0.0,0.0,0.0,0.0,0.0,0.0,0.0,0.0,0.0,0.0,0.0,0.0,0.0,0.0,0.0,0.0,0.0,0.0,0.0,0.0,0.0,0.0,0.0,0.0,0.0,0.0,0.0,0.0,0.0,0.0,0.0,0.0,0.0,0.0,0.0,0.0,0.0,0.0,0.0,0.0,0.0,0.0,0.0,0.0,0.0,0.0,0.0,0.0,0.0,0.0,0.0,0.0,0.0,0.0,0.0,0.0,0.0,0.0,0.0,0.0,0.0,0.0,0.0,0.0,0.0,0.0,0.0,0.0,0.0,0.0,0.0,0.0,0.0,0.0,0.0,0.0,0.0,0.0,0.0,0.0,0.0,0.0,0.0,0.0,0.0,0.0,0.0,0.0,0.0,0.0,0.0,0.0,-2.5744,-2.6253,-2.7952,-2.8362,-2.7366,-2.5297,-2.3618,0.0,0.0,0.0,0.0,0.0,0.0,0.0,0.0,0.0,0.0,0.0,0.0,0.0,0.0,0.0,0.0,0.0,0.0,0.0,0.0,0.0,0.0,0.0,0.0,0.0,0.0,0.0,0.0,0.0,0.0,0.0,0.0,0.0,0.0,0.0,0.0,0.0,0.0,0.0,0.0,0.0,0.0,0.0,0.0,0.0,0.0,0.0,0.0,0.0,0.0,0.0,0.0,0.0,0.0,0.0,0.0,0.0,0.0,0.0,0.0,0.0,0.0,0.0,0.0,0.0,0.0,0.0,0.0,0.0,0.0,0.0,0.0,0.0,0.0,0.0,0.0,0.0,0.0,0.0,0.0,0.0,0.0,0.0,0.0,0.0,0.0,0.0,0.0,0.0,0.0,0.0,0.0,0.0,0.0,0.0,0.0,0.0,0.0,0.0,0.0,0.0,0.0,0.0,0.0,0.0,0.0,0.0,0.0,-2.7027,-2.7153,-2.8752,-2.9552,-2.9416,-2.7112,-2.5063,0.0,0.0,0.0,0.0,0.0,0.0,0.0,0.0,0.0,0.0,0.0,0.0,0.0,0.0,0.0,0.0,0.0,0.0,0.0,0.0,0.0,0.0,0.0,0.0,0.0,0.0,0.0,0.0,0.0,0.0,0.0,0.0,0.0,0.0,0.0,0.0,0.0,0.0,0.0,0.0,0.0,0.0,0.0,0.0,0.0,0.0,0.0,0.0,0.0,0.0,0.0,0.0,0.0,0.0,0.0,0.0,0.0,0.0,0.0,0.0,0.0,0.0,0.0,0.0,0.0,0.0,0.0,0.0,0.0,0.0,0.0,0.0,0.0,0.0,0.0,0.0,0.0,0.0,0.0,0.0,0.0,0.0,0.0,0.0,0.0,0.0,0.0,0.0,0.0,0.0,0.0,0.0,0.0,0.0,0.0,0.0,0.0,0.0,0.0,0.0,0.0,0.0,0.0,0.0,0.0,0.0,0.0,0.0,-2.734,-2.803,-2.9045,-2.9279,-2.8596,-2.7366,-2.6236,0.0,0.0,0.0,0.0,0.0,0.0,0.0,0.0,0.0,0.0,0.0,0.0,0.0,0.0,0.0,0.0,0.0,0.0,0.0,0.0,0.0,0.0,0.0,0.0,0.0,0.0,0.0,0.0,0.0,0.0,0.0,0.0,0.0,0.0,0.0,0.0,0.0,0.0,0.0,0.0,0.0,0.0,0.0,0.0,0.0,0.0,0.0,0.0,-2.292,0.0,0.0,0.0,0.0,0.0,0.0,0.0,0.0,0.0,0.0,0.0,0.0,0.0,0.0,0.0,0.0,0.0,0.0,0.0,0.0,0.0,0.0,0.0,0.0,0.0,0.0,0.0,0.0,0.0,0.0,0.0,0.0,0.0,0.0,0.0,0.0,0.0,0.0,0.0,0.0,0.0,0.0,0.0,0.0,0.0,0.0,0.0,0.0,0.0,0.0,0.0,0.0,0.0,0.0,0.0,0.0,0.0,0.0,0.0,-2.7183,-2.7678,-2.8098,-2.8313,-2.8262,-2.7466,-2.639,0.0,0.0,0.0,0.0,0.0,0.0,0.0,0.0,0.0,0.0,0.0,0.0,0.0,0.0,0.0,0.0,0.0,0.0,0.0,0.0,0.0,0.0,0.0,0.0,0.0,0.0,0.0,0.0,0.0,0.0,0.0,0.0,0.0,0.0,0.0,0.0,0.0,0.0,0.0,0.0,0.0,0.0,0.0,0.0,0.0,0.0,0.0,0.0,0.0,0.0,0.0,0.0,0.0,0.0,0.0,0.0,0.0,0.0,0.0,0.0,0.0,0.0,0.0,0.0,0.0,0.0,0.0,0.0,0.0,0.0,0.0,0.0,0.0,0.0,0.0,0.0,0.0,0.0,0.0,0.0,0.0,0.0,0.0,0.0,0.0,0.0,0.0,0.0,0.0,0.0,0.0,0.0,0.0,0.0,0.0,0.0,0.0,0.0,0.0,0.0,0.0,0.0,0.0,0.0,0.0,0.0,0.0,-2.6311,-2.7162,-2.7351,-2.7289,-2.7577,-2.8229,-2.7552,-2.63,-2.4442,0.0,0.0,0.0,0.0,0.0,0.0,0.0,0.0,0.0,0.0,0.0,0.0,0.0,0.0,0.0,0.0,0.0,0.0,0.0,0.0,0.0,0.0,0.0,0.0,0.0,0.0,0.0,0.0,0.0,0.0,0.0,0.0,0.0,0.0,0.0,0.0,0.0,0.0,-1.695,-2.0191,0.0,0.0,0.0,0.0,0.0,0.0,0.0,0.0,-2.4969,0.0,0.0,0.0,0.0,0.0,0.0,0.0,0.0,0.0,0.0,0.0,0.0,0.0,0.0,0.0,0.0,0.0,0.0,0.0,0.0,0.0,0.0,0.0,0.0,0.0,0.0,0.0,0.0,0.0,0.0,0.0,0.0,0.0,0.0,0.0,0.0,0.0,0.0,0.0,0.0,0.0,0.0,0.0,0.0,0.0,0.0,0.0,0.0,0.0,0.0,0.0,0.0,0.0,0.0,0.0,0.0,-2.6365,-2.7408,-2.823,-2.8903,-2.8916,-2.8664,-2.8164,-2.8004,-2.6783,-2.4453,0.0,0.0,0.0,0.0,0.0,0.0,0.0,0.0,0.0,0.0,0.0,0.0,0.0,0.0,0.0,0.0,0.0,0.0,0.0,0.0,0.0,0.0,0.0,0.0,0.0,0.0,0.0,0.0,0.0,0.0,0.0,0.0,0.0,0.0,0.0,0.0,0.0,0.0,0.0,-2.2867,-2.541,0.0,0.0,0.0,0.0,0.0,0.0,0.0,0.0,-2.652,0.0,0.0,0.0,0.0,0.0,0.0,0.0,0.0,0.0,0.0,0.0,0.0,0.0,0.0,0.0,0.0,0.0,0.0,0.0,0.0,0.0,0.0,0.0,0.0,0.0,0.0,0.0,0.0,0.0,0.0,0.0,0.0,0.0,0.0,0.0,0.0,0.0,0.0,0.0,0.0,0.0,0.0,0.0,0.0,0.0,0.0,0.0,0.0,0.0,0.0,0.0,0.0,0.0,0.0,0.0,-2.6702,-2.759,-2.8404,-2.9252,-2.8853,-2.866,-2.8715,-2.832,-2.7315,0.0,0.0,0.0,0.0,0.0,0.0,0.0,0.0,0.0,0.0,0.0,0.0,0.0,0.0,0.0,0.0,0.0,0.0,0.0,0.0,0.0,0.0,0.0,0.0,0.0,0.0,0.0,0.0,0.0,0.0,0.0,0.0,0.0,0.0,0.0,0.0,0.0,0.0,0.0,0.0,-2.4732,-2.6952,-2.8694,0.0,0.0,0.0,0.0,0.0,0.0,-2.9217,-2.8533,0.0,0.0,0.0,0.0,0.0,0.0,0.0,0.0,0.0,0.0,0.0,0.0,0.0,0.0,0.0,0.0,0.0,0.0,0.0,0.0,0.0,0.0,0.0,0.0,0.0,0.0,0.0,0.0,0.0,0.0,0.0,0.0,0.0,0.0,0.0,0.0,0.0,0.0,0.0,0.0,0.0,0.0,0.0,0.0,0.0,0.0,0.0,0.0,0.0,0.0,0.0,0.0,0.0,0.0,0.0,-2.6985,-2.7767,-2.8589,-2.9439,-2.8838,-2.8818,-2.9478,-2.8565,-2.7589,0.0,0.0,0.0,0.0,0.0,0.0,0.0,0.0,0.0,0.0,0.0,0.0,0.0,0.0,0.0,0.0,0.0,0.0,0.0,0.0,0.0,0.0,0.0,0.0,0.0,0.0,0.0,0.0,0.0,0.0,0.0,0.0,0.0,0.0,0.0,0.0,0.0,0.0,0.0,0.0,0.0,-2.831,-3.0699,-3.0623,0.0,0.0,0.0,0.0,-3.04,-3.0728,0.0,0.0,0.0,0.0,0.0,0.0,0.0,0.0,0.0,0.0,0.0,0.0,0.0,0.0,0.0,0.0,0.0,0.0,0.0,0.0,0.0,0.0,0.0,0.0,0.0,0.0,0.0,0.0,0.0,0.0,0.0,0.0,0.0,0.0,0.0,0.0,0.0,0.0,0.0,0.0,0.0,0.0,0.0,0.0,0.0,0.0,0.0,0.0,0.0,0.0,0.0,0.0,0.0,0.0,0.0,0.0,-2.7692,-2.8618,-2.9447,-3.0213,-3.0163,-3.0163,-3.0252,-2.8733,-2.717,0.0,0.0,0.0,0.0,0.0,0.0,0.0,0.0,0.0,0.0,0.0,0.0,0.0,0.0,0.0,0.0,0.0,0.0,0.0,0.0,0.0,0.0,0.0,0.0,0.0,0.0,0.0,0.0,0.0,0.0,0.0,0.0,0.0,0.0,0.0,0.0,0.0,0.0,0.0,0.0,0.0,-2.9878,-3.1691,-3.2526,-3.2968,0.0,0.0,0.0,-3.2974,-3.2407,0.0,0.0,0.0,0.0,0.0,0.0,0.0,0.0,0.0,0.0,0.0,0.0,0.0,0.0,0.0,0.0,0.0,0.0,0.0,0.0,0.0,0.0,0.0,0.0,0.0,0.0,0.0,0.0,0.0,0.0,0.0,0.0,0.0,0.0,0.0,0.0,0.0,0.0,0.0,0.0,0.0,0.0,0.0,0.0,0.0,0.0,0.0,0.0,0.0,0.0,0.0,0.0,0.0,0.0,0.0,-2.6108,-2.8598,-2.9938,-3.0802,-3.1121,-3.1141,-3.0898,-3.0417,-2.925,-2.7826,0.0,0.0,0.0,0.0,0.0,0.0,0.0,0.0,0.0,0.0,0.0,0.0,0.0,0.0,0.0,0.0,0.0,0.0,0.0,0.0,0.0,0.0,0.0,0.0,0.0,0.0,0.0,0.0,0.0,0.0,0.0,0.0,0.0,0.0,0.0,0.0,0.0,0.0,0.0,0.0,0.0,0.0,-3.2597,-3.3533,0.0,0.0,0.0,-3.3975,-3.3487,0.0,0.0,0.0,0.0,0.0,0.0,0.0,0.0,0.0,0.0,0.0,0.0,0.0,0.0,0.0,0.0,0.0,0.0,0.0,0.0,0.0,0.0,0.0,0.0,0.0,0.0,0.0,0.0,0.0,0.0,0.0,0.0,0.0,0.0,0.0,0.0,0.0,0.0,0.0,0.0,0.0,0.0,0.0,0.0,0.0,0.0,0.0,0.0,0.0,0.0,0.0,0.0,0.0,0.0,0.0,0.0,0.0,-2.9496,-3.1182,-3.195,-3.1742,-3.1711,-3.1287,-3.0421,-2.9817,0.0,0.0,0.0,0.0,0.0,0.0,0.0,0.0,0.0,0.0,0.0,0.0,0.0,0.0,0.0,0.0,0.0,0.0,0.0,0.0,0.0,0.0,0.0,0.0,0.0,0.0,0.0,-1.9737,0.0,0.0,0.0,0.0,0.0,0.0,0.0,0.0,0.0,0.0,0.0,0.0,0.0,0.0,-3.1677,-3.3202,-3.4271,-3.4936,0.0,0.0,-3.4759,-3.4126,-3.453,-3.4135,0.0,0.0,0.0,0.0,0.0,0.0,0.0,0.0,0.0,0.0,0.0,0.0,0.0,0.0,0.0,0.0,0.0,0.0,0.0,0.0,0.0,0.0,0.0,0.0,0.0,0.0,0.0,0.0,0.0,0.0,0.0,0.0,0.0,0.0,0.0,0.0,0.0,0.0,0.0,0.0,0.0,0.0,0.0,0.0,0.0,0.0,0.0,0.0,0.0,0.0,0.0,0.0,0.0,0.0,0.0,-3.0356,-3.2124,-3.2615,-3.1849,-3.1738,-3.1303,-3.0425,-3.0344,-2.9536,0.0,0.0,0.0,0.0,0.0,0.0,0.0,0.0,0.0,0.0,0.0,0.0,0.0,0.0,0.0,0.0,0.0,0.0,0.0,0.0,0.0,0.0,0.0,0.0,0.0,0.0,0.0,0.0,0.0,0.0,0.0,0.0,0.0,0.0,0.0,0.0,0.0,0.0,0.0,0.0,0.0,-3.2361,-3.3264,-3.4789,-3.5802,0.0,0.0,-3.5791,-3.5733,-3.5772,-3.5201,-3.3418,0.0,0.0,0.0,0.0,0.0,0.0,0.0,0.0,0.0,0.0,0.0,0.0,0.0,0.0,0.0,0.0,0.0,0.0,0.0,0.0,0.0,0.0,0.0,0.0,0.0,0.0,0.0,0.0,0.0,0.0,0.0,0.0,0.0,0.0,0.0,0.0,0.0,0.0,0.0,0.0,0.0,0.0,0.0,0.0,0.0,0.0,0.0,0.0,0.0,0.0,0.0,0.0,0.0,-2.8743,-3.1283,-3.2974,-3.3666,-3.3292,-3.2779,-3.2081,-3.121,-3.1198,-3.039,0.0,0.0,0.0,0.0,0.0,0.0,0.0,0.0,0.0,0.0,0.0,0.0,0.0,0.0,0.0,0.0,0.0,0.0,0.0,0.0,0.0,0.0,0.0,0.0,0.0,0.0,0.0,0.0,-2.7409,-2.7955,-2.7731,0.0,0.0,0.0,0.0,0.0,0.0,0.0,0.0,0.0,0.0,-3.3204,-3.4067,-3.5169,0.0,0.0,-3.5889,-3.5889,-3.5897,-3.5883,-3.5494,-3.4282,-3.3407,0.0,0.0,0.0,0.0,0.0,0.0,0.0,0.0,0.0,0.0,0.0,0.0,0.0,0.0,0.0,0.0,0.0,0.0,0.0,0.0,0.0,0.0,0.0,0.0,0.0,0.0,0.0,0.0,0.0,0.0,0.0,0.0,0.0,0.0,0.0,0.0,0.0,0.0,0.0,0.0,0.0,0.0,0.0,0.0,0.0,0.0,0.0,0.0,0.0,0.0,0.0,0.0,-2.9612,-3.2173,-3.3854,-3.4546,-3.4229,-3.3446,-3.2709,-3.2115,-3.2076,-3.1487,0.0,0.0,0.0,0.0,0.0,0.0,0.0,0.0,0.0,0.0,0.0,0.0,0.0,0.0,0.0,0.0,0.0,0.0,0.0,0.0,0.0,0.0,0.0,0.0,0.0,0.0,0.0,0.0,-2.8983,-2.9508,-2.8656,0.0,0.0,0.0,0.0,0.0,0.0,0.0,0.0,0.0,0.0,-3.4369,-3.4978,-3.5734,-3.6182,-3.5917,-3.5864,-3.5858,-3.5885,-3.5866,-3.5671,-3.5055,0.0,0.0,0.0,0.0,0.0,0.0,0.0,0.0,0.0,0.0,0.0,0.0,0.0,0.0,0.0,0.0,0.0,0.0,0.0,0.0,0.0,0.0,0.0,0.0,0.0,0.0,0.0,0.0,0.0,0.0,0.0,0.0,0.0,0.0,0.0,0.0,0.0,0.0,0.0,0.0,0.0,0.0,0.0,0.0,0.0,0.0,0.0,0.0,0.0,0.0,0.0,0.0,0.0,0.0,-3.3044,-3.4756,-3.5209,-3.4345,-3.3454,-3.2995,-3.2979,-3.2916,-3.2852,-3.2776,0.0,0.0,0.0,0.0,0.0,0.0,0.0,0.0,0.0,0.0,0.0,0.0,0.0,0.0,0.0,0.0,0.0,0.0,0.0,0.0,0.0,0.0,0.0,0.0,0.0,0.0,-2.9283,-3.018,-3.0341,0.0,0.0,0.0,0.0,0.0,0.0,0.0,0.0,0.0,0.0,-3.4798,-3.5864,-3.5891,-3.6565,-3.6793,-3.5981,-3.584,-3.5827,-3.5865,-3.5842,-3.5794,0.0,0.0,0.0,0.0,0.0,0.0,0.0,0.0,0.0,0.0,0.0,0.0,0.0,0.0,0.0,0.0,0.0,0.0,0.0,0.0,0.0,0.0,0.0,0.0,0.0,0.0,0.0,-1.848,-2.0797,0.0,0.0,0.0,0.0,0.0,0.0,0.0,0.0,0.0,0.0,0.0,-2.8806,-2.957,0.0,0.0,0.0,0.0,0.0,0.0,0.0,0.0,0.0,0.0,0.0,0.0,-3.192,-3.3905,-3.5104,-3.5538,-3.5156,-3.4326,-3.3859,-3.3863,-3.3851,-3.38,-3.3756,0.0,0.0,0.0,0.0,0.0,0.0,0.0,0.0,0.0,0.0,0.0,0.0,0.0,0.0,0.0,0.0,0.0,0.0,0.0,0.0,0.0,0.0,0.0,0.0,0.0,-2.9872,0.0,0.0,0.0,0.0,0.0,0.0,0.0,0.0,0.0,0.0,0.0,-3.4603,-3.5723,-3.6839,-3.7557,-3.7497,-3.7727,-3.7785,0.0,0.0,0.0,0.0,0.0,0.0,0.0,0.0,0.0,0.0,0.0,0.0,0.0,0.0,-3.1907,-3.0175,-3.0553,-3.115,-3.115,0.0,0.0,0.0,0.0,0.0,0.0,0.0,0.0,0.0,0.0,0.0,0.0,0.0,0.0,0.0,0.0,-2.5554,0.0,0.0,0.0,0.0,0.0,0.0,0.0,0.0,-3.1824,-3.2389,-3.2193,-3.2972,-3.3237,0.0,-3.3539,-3.1944,0.0,0.0,0.0,0.0,0.0,0.0,0.0,0.0,-3.2943,-3.4369,-3.524,-3.5654,-3.5562,-3.4751,-3.445,-3.4755,-3.4731,-3.4699,-3.4661,-3.3326,-3.1939,0.0,0.0,0.0,0.0,0.0,0.0,0.0,0.0,0.0,0.0,0.0,0.0,0.0,0.0,0.0,0.0,0.0,0.0,0.0,0.0,0.0,0.0,0.0,-3.18,0.0,0.0,0.0,0.0,0.0,0.0,0.0,0.0,0.0,-3.3432,-3.5124,-3.676,-3.7858,-3.8481,-3.88,-3.8723,0.0,0.0,0.0,0.0,0.0,0.0,0.0,-3.8245,-3.8581,-3.8607,-3.8375,-3.779,-3.7023,-3.654,-3.6658,0.0,0.0,-3.3809,-3.4049,-3.4652,-3.4652,-3.488,-3.499,-3.4718,-3.4212,-3.3725,0.0,0.0,0.0,0.0,0.0,0.0,0.0,0.0,-2.6358,-2.7094,0.0,-2.8585,0.0,0.0,0.0,0.0,0.0,0.0,0.0,0.0,-3.61,-3.6973,-3.6272,-3.6973,-3.6992,-3.6291,-3.6291,-3.5836,-3.4832,-3.2642,0.0,0.0,0.0,0.0,0.0,0.0,-3.3542,-3.4563,-3.5394,-3.5751,-3.562,-3.4828,-3.4778,-3.5565,-3.5528,-3.5502,-3.5468,-3.4661,-3.3839,-3.3053,-3.0655,0.0,0.0,0.0,0.0,0.0,0.0,0.0,0.0,0.0,0.0,0.0,0.0,0.0,0.0,0.0,0.0,0.0,0.0,0.0,0.0,-3.2271,0.0,0.0,0.0,0.0,0.0,0.0,0.0,0.0,0.0,0.0,-3.606,-3.6799,-3.7915,-3.9507,0.0,0.0,0.0,0.0,-3.9129,-3.8318,-3.8174,-3.8194,-3.818,-3.8144,-3.8427,-3.9297,0.0,0.0,-3.9322,-3.8645,-3.8106,-3.8175,-3.8782,-3.8648,-3.6472,-3.6735,-3.728,-3.7326,-3.787,-3.8135,-3.752,-3.7189,-3.689,-2.6507,0.0,0.0,0.0,0.0,-2.3583,-2.5933,-2.9861,-2.9982,-3.1078,-3.2857,-3.2883,0.0,0.0,0.0,0.0,0.0,0.0,-3.5152,-3.5292,-3.672,-3.7294,-3.7087,-3.7921,-3.8186,-3.7997,-3.8565,-3.8414,-3.7599,-3.6937,-3.5267,-3.2792,0.0,0.0,0.0,0.0,-3.5546,-3.7007,-3.7348,-3.7174,-3.6543,-3.6292,-3.6021,-3.5681,-3.5651,-3.5608,-3.5584,-3.5326,-3.4805,-3.3967,-3.2673,0.0,0.0,0.0,0.0,0.0,0.0,0.0,0.0,0.0,0.0,0.0,0.0,0.0,0.0,0.0,0.0,0.0,0.0,0.0,-3.3322,-3.3872,-3.4112,0.0,0.0,0.0,0.0,0.0,0.0,0.0,0.0,0.0,-3.8364,-3.924,-4.0013,0.0,0.0,-4.0328,-4.0246,-4.0179,-4.0077,-3.9698,0.0,0.0,0.0,-3.9688,-3.9807,-4.0065,-4.0044,-4.0044,-4.0126,-3.9957,-3.9827,-3.9909,-4.0216,-4.0173,-3.9548,-3.9515,-3.9723,-3.9933,-4.0032,-4.0044,-3.9979,-3.9439,-3.8852,-3.3345,-2.9757,-2.6322,-2.6015,-2.7782,-2.7638,-2.9734,-3.3231,-3.3141,-3.3829,-3.5048,-3.4911,-3.4564,-3.4163,-3.4535,0.0,0.0,0.0,-3.6844,-3.6952,-3.7929,-3.8393,-3.8433,-3.8925,-3.9172,-3.9191,-3.9683,-3.9646,-3.9172,-3.885,-3.7714,-3.578,0.0,0.0,-3.6278,-3.6358,-3.6911,-3.7982,-3.804,-3.7642,-3.6844,-3.6571,-3.6176,-3.5673,-3.5654,-3.5631,-3.5608,-3.562,-3.5369,-3.4828,-3.4047,-3.2763,0.0,0.0,0.0,0.0,0.0,0.0,0.0,0.0,0.0,0.0,0.0,-2.7285,0.0,0.0,0.0,0.0,-3.3329,-3.4586,-3.5931,-3.6017,0.0,0.0,0.0,0.0,0.0,0.0,0.0,-3.6406,-3.7706,-3.873,-3.9264,-4.0148,-4.0723,-4.0718,-4.0646,-4.0543,-4.0473,0.0,-4.0392,-4.0342,-4.0381,-4.0381,-4.0344,-4.0336,-4.037,-4.036,-4.0326,-4.0344,-4.0392,-4.0427,-4.0444,-4.0519,-4.0621,-4.064,-4.0627,-4.0581,-4.0642,-4.0963,-4.0935,-4.0926,-4.1078,-4.0602,-4.0217,-3.9638,-3.829,-3.0809,-2.9392,-3.2001,-3.1908,-3.3444,-3.5977,-3.5999,-3.5798,-3.5523,-3.5507,-3.5558,-3.5639,-3.6054,0.0,0.0,-3.7829,-3.838,-3.8577,-3.9463,-3.9867,-3.9867,-3.9889,-3.9889,-3.987,-3.9889,-3.9889,-3.9873,-3.9153,-3.8774,-3.8795,-3.8117,-3.7794,-3.7809,-3.7806,-3.7876,-3.7986,-3.8022,-3.7648,-3.692,-3.6168,-3.5739,-3.5697,-3.5639,-3.5608,-3.5604,-3.5608,-3.5581,-3.5593,-3.4919,-3.4098,-3.3179,0.0,0.0,0.0,0.0,0.0,0.0,0.0,0.0,0.0,0.0,0.0,0.0,0.0,0.0,0.0,-3.6204,0.0,-3.8219,-3.8225,0.0,0.0,0.0,-3.6787,-3.6684,-3.6776,-3.7124,-3.7897,0.0,0.0,0.0,0.0,-4.05,-4.0582,-4.0473,-4.0415,-4.0408,-4.0341,-4.0325,-4.0362,-4.0379,-4.0379,-4.0381,-4.0323,-4.0306,-4.031,-4.0329,-4.031,-4.031,-4.031,-4.031,-4.0329,-4.0329,-4.0362,-4.0461,-4.0419,-4.0427,-4.0807,-4.0935,-4.1003,-4.1038,-4.0991,-4.0918,-4.1141,-4.0026,-3.8209,-3.7607,-3.7766,-3.7643,-3.8332,-3.9452,-3.9281,-3.8815,-3.8222,-3.8007,-3.7739,-3.739,-3.754,-3.7767,-3.8046,-3.8477,-3.8693,-3.8748,-3.9321,-3.9599,-3.9599,-3.9804,-3.9889,-3.9889,-3.9889,-3.9889,-3.987,-3.9721,-3.9627,-3.9608,-3.944,-3.9105,-3.8651,-3.8668,-3.9026,-3.9706,-3.9706,-3.9323,-3.853,-3.7189,-3.6434,-3.644,-3.5836,-3.5565,-3.5681,-3.5584,-3.5565,-3.5673,-3.5491,-3.5007,-3.4118,-3.2888,0.0,0.0,0.0,0.0,0.0,0.0,0.0,0.0,0.0,-3.1204,-3.2356,0.0,-3.5715,0.0,-3.6968,-3.7981,-3.8054,-3.8061,0.0,0.0,-3.7629,-3.7597,-3.7578,-3.8146,-3.859,-3.8786,-3.9517,-4.0053,-4.0017,-4.0204,-4.0356,-4.0379,-4.0384,-4.0385,-4.0325,-4.0325,-4.0308,-4.0309,-4.0347,-4.0328,-4.0328,-4.031,-4.031,-4.031,-4.0329,-4.0329,-4.0329,-4.0329,-4.0329,-4.031,-4.0379,-4.0427,-4.0358,-4.0489,-4.0559,-4.0607,-4.0554,-4.0549,-4.0742,-4.0718,-4.0668,-4.2372,-4.1633,-4.1882,-4.1538,-4.08,-4.0182,-4.0075,-4.0329,-4.02,-3.9892,-3.9515,-3.9383,-3.9115,-3.8869,-3.903,-3.9202,-3.9487,-3.9724,-3.9949,-4.0188,-4.0094,-4.0115,-4.0236,-4.0015,-3.9889,-3.9889,-3.9889,-3.9889,-3.9908,-4.0268,-4.0268,-3.9908,-4.0309,-4.0106,-3.9372,-3.9393,-3.9642,-4.0101,-3.9813,-3.9449,-3.9009,-3.7824,-3.7017,-3.6666,-3.6238,-3.5855,-3.5584,-3.5528,-3.554,-3.5628,-3.5639,-3.5427,-3.4894,-3.4055,-3.3164,0.0,0.0,0.0,0.0,0.0,0.0,0.0,0.0,0.0,0.0,0.0,-3.7436,0.0,-3.846,0.0,-3.9076,-3.9089,-3.9042,-3.8977,-3.8946,-3.8967,-3.8967,-3.9355,-3.9775,-4.0116,-4.0251,-4.0443,-4.0768,-4.0519,-4.0308,-4.031,-4.0348,-4.0329,-4.0328,-4.0309,-4.031,-4.031,-4.0329,-4.0329,-4.0329,-4.0329,-4.0329,-4.0329,-4.0329,-4.0329,-4.0329,-4.0329,-4.0329,-4.031,-4.0363,-4.0398,-4.031,-4.0413,-4.0473,-4.0411,-4.0345,-4.0396,-4.0648,-4.0662,-4.0615,-4.3142,-4.2788,-4.3032,-4.2752,-4.2068,-4.0987,-4.043,-4.0217,-4.0217,-4.0164,-4.0075,-3.995,-3.9896,-3.9914,-4.0163,-4.0384,-4.0631,-4.0903,-4.1268,-4.1679,-4.1033,-4.0891,-4.1132,-4.0484,-4.0148,-4.0167,-4.0211,-4.0233,-4.0271,-4.0991,-4.0972,-4.029,-4.0877,-4.0821,-4.0079,-3.9946,-3.9889,-3.9892,-3.9315,-3.9033,-3.9014,-3.8322,-3.7603,-3.6907,-3.6807,-3.6415,-3.5743,-3.5738,-3.5784,-3.5797,-3.5862,-3.5843,-3.5778,-3.5063,-3.4576,0.0,-3.3689,0.0,0.0,0.0,0.0,0.0,0.0,0.0,0.0,-3.7301,-3.8584,-3.9377,-4.0073,-4.045,-4.0408,-4.0473,-4.0515,-4.046,-4.0556,-4.0614,-4.0616,-4.0616,-4.0883,-4.159,-4.1055,-4.0922,-4.1533,-4.1036,-4.0635,-4.0711,-4.0616,-4.0559,-4.0463,-4.0387,-4.031,-4.0329,-4.0329,-4.0329,-4.0329,-4.0329,-4.0329,-4.0329,-4.0329,-4.0329,-4.0329,-4.0329,-4.0329,-4.0329,-4.031,-4.031,-4.0329,-4.031,-4.031,-4.031,-4.031,-4.0363,-4.0564,-4.0615,-4.0642,-4.2673,-4.2133,-4.232,-4.2257,-4.1966,-4.1948,-4.1922,-4.1823,-4.1841,-4.1466,-4.0842,-4.0199,-3.9896,-3.9914,-4.0047,-4.0199,-4.0311,-4.0456,-4.0634,-4.0769,-4.0868,-4.0972,-4.1046,-4.137,-4.1506,-4.155,-4.1784,-4.192,-4.1939,-4.209,-4.2109,-4.1939,-4.1446,-4.1124,-4.0934,0.0,0.0,0.0,-3.9781,-3.9705,-3.9688,-3.9032,-3.8613,-3.8459,-3.7772,0.0,-3.7351,-3.7266,-3.7266,-3.7348,-3.7383,0.0,0.0,0.0,0.0,0.0,0.0,0.0,0.0,0.0,0.0,0.0,-3.7903,-3.7976,-3.7526,-3.8342,-3.926,-4.0018,-4.0247,-4.0342,-4.0328,-4.0921,-4.1285,-4.1304,-4.1896,-4.2336,-4.2335,-4.2297,-4.2393,-4.2507,-4.2412,-4.2374,-4.2488,-4.2393,-4.2278,-4.2183,-4.1724,-4.1323,-4.1266,-4.0731,-4.0329,-4.0329,-4.0329,-4.0329,-4.0329,-4.0329,-4.0329,-4.0329,-4.0329,-4.0329,-4.0329,-4.0329,-4.0329,-4.0329,-4.0329,-4.0329,-4.0329,-4.0329,-4.0329,-4.0329,-4.0329,-4.0329,-4.0363,-4.0381,-4.0381,-4.2315,0.0,-4.2133,-4.211,0.0,-4.2205,-4.2287,-4.2287,-4.2287,-4.2073,-4.1663,-4.1252,-4.1074,-4.1092,-4.1149,-4.1268,-4.1405,-4.1443,-4.165,-4.192,-4.1708,-4.1691,-4.1815,-4.1742,-4.1633,-4.1661,-4.1995,-4.2165,-4.2184,-4.2759,-4.2829,-4.2393,-4.2431,-4.2223,-4.1787,-4.0972,-4.0347,-3.9889,-3.9889,-3.9889,-3.987,-3.9558,-3.922,-3.888,0.0,0.0,0.0,0.0,0.0,0.0,0.0,0.0,0.0,0.0,0.0,-3.7031,-3.6976,-3.7204,-3.7584,-3.7636,-3.8035,-3.8917,-3.9432,-3.9546,-3.9103,-3.9484,-3.9849,-4.0252,-4.0653,-4.0883,-4.0922,-4.1648,-4.2144,-4.2163,-4.2526,-4.2794,-4.2794,-4.2794,-4.2966,-4.3271,-4.3023,-4.2928,-4.3348,-4.3004,-4.2814,-4.2775,-4.2431,-4.2144,-4.203,-4.1074,-4.0329,-4.0329,-4.0329,-4.0329,-4.0329,-4.0329,-4.0329,-4.0329,-4.0329,-4.0329,-4.0329,-4.0329,-4.0329,-4.0329,-4.0329,-4.0329,-4.0329,-4.0329,-4.0329,-4.0329,-4.0329,-4.0329,-4.0329,-4.0329,-4.0329,-4.2092,-4.1881,-4.205,-4.2068,-4.1959,-4.2205,-4.2287,-4.2287,0.0,0.0,0.0,-4.2287,-4.2287,-4.2287,-4.2346,-4.2409,-4.2609,-4.2609,-4.2882,-4.3265,-4.2608,-4.2466,-4.2691,-4.2038,-4.1773,-4.1785,-4.2109,-4.2275,-4.2374,-4.3341,-4.3483,-4.2962,-4.3436,-4.3265,-4.2412,-4.1749,-4.1067,-4.0385,-4.0041,-3.9889,-3.9889,-3.9889,-3.961,-3.8988,-3.8988,-3.8667,-3.8042,-3.8004,-3.8004,-3.8004,-3.8061,-3.8061,-3.8004,-3.8004,-3.8023,-3.7985,-3.8014,-3.8338,-3.9071,-3.9127,-3.947,-4.0253,-4.0444,-4.0463,-4.0327,-4.031,-4.0368,-4.0501,-4.1113,-4.1552,-4.1724,-4.2488,-4.3004,-4.3004,-4.3157,-4.3252,-4.3252,-4.3233,-4.3558,-4.4036,-4.3711,-4.3482,-4.4112,-4.3711,-4.3233,-4.3233,-4.3157,-4.2928,-4.2679,-4.1686,-4.0769,-4.0387,-4.0463,-4.052,-4.0329,-4.0329,-4.0329,-4.0329,-4.0329,-4.0329,-4.0329,-4.0329,-4.0329,-4.0329,-4.0329,-4.0329,-4.0329,-4.0329,-4.0329,-4.0329,-4.0329,-4.0329,-4.0329,-4.0329,-4.0329,-4.2151,-4.1631,-4.1849,-4.2061,-4.2246,-4.2287,-4.2287,-4.2287,-4.2287,-4.2287,-4.2287,-4.2287,-4.2287,-4.2287,-4.2405,-4.2508,-4.2609,-4.2745,-4.2842,0.0,-4.2848,-4.2813,-4.2887,-4.3043,-4.3125,-4.3159,-4.3465,-4.377,-4.4036,-4.4213,-4.4365,-4.4454,-4.3985,-4.3284,-4.2469,-4.2299,-4.2185,-4.2033,-4.065,-3.9889,-3.9889,-3.9889,-3.9854,-3.9759,-3.974,-3.9702,-3.9591,-3.9553,-3.9572,-3.9591,-3.9572,-3.9572,-3.9572,-3.9575,-3.9572,-3.9591,-3.9612,-3.9751,-3.9907,-3.9985,-4.0101,-4.0291,-4.0941,-4.1036,-4.0368,-4.031,-4.0578,-4.1227,-4.1476,-4.182,-4.2545,-4.3348,-4.3845,-4.3902,-4.4494,-4.4914,-4.4838,-4.4838,-4.4876,-4.501,-4.5029,-4.4895,-4.4972,-4.4914,-4.4781,-4.4781,-4.4227,-4.3615,-4.2985,-4.2622,-4.1839,-4.0788,-4.0903,-4.0979,-4.0482,-4.0329,-4.0368,-4.0329,-4.0329,-4.0329,-4.0329,-4.0329,-4.0329,-4.0329,-4.0329,-4.0329,-4.0329,-4.0329,-4.0329,-4.0329,-4.0329,-4.0329,-4.0329,-4.0329,-4.0329,-4.2861,-4.278,-4.2484,-4.2572,-4.2912,-4.2483,-4.2287,-4.2287,-4.2287,-4.2287,-4.2287,-4.2287,-4.2287,-4.2287,-4.2364,-4.2468,-4.2609,-4.2649,-4.2747,-4.2882,-4.29,-4.29,-4.292,-4.3032,-4.3105,-4.3142,-4.3656,-4.3974,-4.4154,-4.4503,-4.4751,-4.4876,-4.4516,-4.3929,-4.3152,-4.3114,-4.2867,-4.2412,-4.1654,-4.1067,-4.0631,-4.0612,-4.0363,-3.9927,-4.0347,-4.0382,-3.9927,-4.0344,-4.0404,-3.9908,-3.9889,-3.9889,-3.9889,-4.0344,-4.0423,-4.0011,-4.0433,-4.0532,-4.0176,-4.0634,-4.1131,-4.1609,-4.1991,-4.2067,-4.1705,-4.1667,-4.182,-4.2183,-4.2584,-4.3004,-4.3443,-4.4208,-4.4704,-4.4704,-4.5067,-4.5277,-4.5277,-4.5277,-4.5277,-4.5277,-4.5277,-4.5277,-4.5277,-4.5277,-4.5277,-4.5239,-4.4895,-4.436,-4.3596,-4.3845,-4.3367,-4.1533,-4.1628,-4.1552,-4.0616,-4.0692,-4.073,-4.0406,-4.0329,-4.0329,-4.0329,-4.0329,-4.0329,-4.0329,-4.0329,-4.0329,-4.0329,-4.0329,-4.0329,-4.0329,-4.0329,-4.0329,-4.0329,-4.0329,-4.0329,-4.3668,-4.3816,-4.3328,-4.328,-4.3465,-4.2822,-4.2465,-4.2305,-4.2287,-4.2287,-4.2287,-4.2287,-4.2287,-4.2287,-4.2328,-4.245,-4.257,-4.2649,-4.2709,-4.29,-4.29,-4.29,-4.29,-4.29,-4.29,-4.2957,-4.344,-4.3754,-4.3924,-4.4448,-4.4751,-4.487,-4.4895,-4.4592,-4.3985,-4.3985,-4.3625,-4.3019,-4.2962,-4.2488,-4.1522,-4.1465,-4.1143,-4.0593,-4.1124,-4.1143,-4.0555,-4.0953,-4.0991,-4.0517,-4.0309,-4.029,-4.0523,-4.1124,-4.1225,-4.072,-4.1235,-4.1373,-4.0882,-4.1399,-4.2086,-4.2737,-4.2984,-4.3059,-4.308,-4.3253,-4.3272,-4.3176,-4.3596,-4.4036,-4.4322,-4.4857,-4.5277,-4.5277,-4.5277,-4.5277,-4.5277,-4.5277,-4.5277,-4.5277,-4.5277,-4.5277,-4.5277,-4.5277,-4.5277,-4.5277,-4.5277,-4.4991,-4.4513,-4.4895,-4.4284,-4.2966,-4.266,-4.2374,-4.0979,-4.1055,-4.1074,-4.0444,-4.0329,-4.0329,-4.0329,-4.0329,-4.0329,-4.0329,-4.0329,-4.0329,-4.0329,-4.0329,-4.0329,-4.0329,-4.0329,-4.0329,-4.0329,-4.0329,-4.0329,-4.4271,-4.3979,-4.4272,-4.4064,-4.3554,-4.3429,-4.3001,-4.2376,-4.2305,-4.2287,-4.2376,-4.2287,-4.2305,-4.2328,-4.2405,-4.2508,-4.2609,-4.2727,-4.2822,-4.2882,-4.29,-4.29,-4.29,-4.29,-4.29,-4.292,-4.3014,-4.3371,-4.3831,-4.4004,-4.4299,-4.4827,-4.4895,-4.4876,-4.4781,-4.4762,-4.4743,-4.4668,-4.4668,-4.3891,-4.2412,-4.2299,-4.2261,-4.2185,-4.2242,-4.228,-4.2071,-4.1541,-4.1525,-4.212,-4.1468,-4.1453,-4.2208,-4.2373,-4.2373,-4.2324,-4.2462,-4.2543,-4.2564,-4.2621,-4.2736,-4.2832,-4.3498,-4.388,-4.394,-4.459,-4.4704,-4.4131,-4.3977,-4.4378,-4.5067,-4.5239,-4.5277,-4.5277,-4.5277,-4.5277,-4.5277,-4.5277,-4.5277,-4.5277,-4.5277,-4.5277,-4.5277,-4.5277,-4.5277,-4.5277,-4.5277,-4.5258,-4.5105,-4.5144,-4.5029,-4.4036,-4.3883,-4.3176,-4.1857,-4.1418,-4.1246,-4.0578,-4.0329,-4.0329,-4.0329,-4.0329,-4.0329,-4.0329,-4.0329,-4.0329,-4.0329,-4.0329,-4.0329,-4.0329,-4.0329,-4.0329,-4.0329,-4.0329,-4.0329,-4.5286,-4.5251,-4.5121,-4.4725,-4.4171,-4.4161,-4.3982,-4.3679,-4.3679,-4.3661,-4.359,-4.3197,-4.2751,-4.2287,-4.2346,-4.245,-4.2609,-4.2649,-4.2747,-4.29,-4.29,-4.29,-4.29,-4.29,-4.29,-4.2938,-4.3087,-4.3336,-4.3623,-4.4004,-4.4346,-4.461,-4.4802,-4.4895,-4.4895,-4.4895,-4.4895,-4.4895,-4.4895,-4.4554,-4.391,-4.3417,-4.2924,-4.2526,-4.2905,-4.2905,-4.2507,-4.2587,-4.2671,-4.2522,-4.2202,-4.2205,-4.2572,-4.3045,-4.3123,-4.273,-4.2714,-4.2984,-4.3482,-4.35,-4.3729,-4.4227,-4.4571,-4.476,-4.4781,-4.5105,-4.5125,-4.4876,-4.476,-4.4932,-4.5239,-4.5277,-4.5277,-4.5277,-4.5277,-4.5277,-4.5277,-4.5277,-4.5277,-4.5277,-4.5277,-4.5277,-4.5277,-4.5277,-4.5277,-4.5277,-4.5277,-4.5277,-4.5277,-4.5277,-4.5163,-4.4876,-4.4762,-4.4034,-4.2678,-4.2259,-4.1896,-4.1208,-4.0578,-4.0329,-4.0348,-4.0329,-4.0329,-4.0329,-4.0329,-4.0329,-4.0329,-4.0329,-4.0329,-4.0329,-4.0329,-4.0329,-4.0329,-4.0329,-4.0329,-4.6038,-4.6147,-4.5906,-4.5462,-4.4946,-4.4946,-4.4803,-4.4624,-4.4607,-4.4607,-4.4553,-4.4053,-4.3358,-4.2662,-4.2453,-4.245,-4.2609,-4.2649,-4.2765,-4.29,-4.29,-4.29,-4.29,-4.29,-4.29,-4.292,-4.316,-4.3301,-4.3474,-4.3955,-4.427,-4.4299,-4.4584,-4.4777,-4.4777,-4.4846,-4.4895,-4.4895,-4.4895,-4.4895,-4.48,-4.435,-4.3744,-4.3208,-4.3701,-4.372,-4.3152,-4.3563,-4.3601,-4.3137,-4.2936,-4.294,-4.3213,-4.3753,-4.3767,-4.3244,-4.3213,-4.3482,-4.4091,-4.411,-4.4398,-4.5055,-4.5173,-4.5194,-4.5256,-4.5277,-4.5277,-4.5258,-4.5277,-4.5258,-4.5277,-4.5277,-4.5277,-4.5277,-4.5277,-4.5277,-4.5277,-4.5277,-4.5277,-4.5277,-4.5277,-4.5277,-4.5277,-4.5277,-4.5277,-4.5277,-4.5277,-4.5277,-4.5277,-4.5277,-4.5277,-4.5277,-4.5277,-4.4685,-4.3442,-4.3138,-4.2737,-4.1991,-4.1246,-4.0711,-4.0578,-4.052,-4.0329,-4.0329,-4.0329,-4.0329,-4.0329,-4.0329,-4.0329,-4.0329,-4.0329,-4.0329,-4.0329,-4.0329,-4.0329,-4.6204,-4.6284,-4.6742,-4.6462,-4.5749,-4.5749,-4.5338,-4.4767,-4.4696,-4.466,-4.4732,-4.4607,-4.4161,-4.3465,-4.2928,-4.2544,-4.2645,-4.2853,-4.2967,-4.3045,-4.3009,-4.2936,-4.29,-4.29,-4.2918,-4.2991,-4.2975,-4.3124,-4.3406,-4.3754,-4.3912,-4.3943,-4.427,-4.443,-4.4457,-4.4707,-4.487,-4.4827,-4.4827,-4.487,-4.4895,-4.4887,-4.4768,-4.4668,-4.48,-4.4743,-4.4649,-4.4109,-4.4004,-4.4542,-4.3768,-4.375,-4.4524,-4.4406,-4.4271,-4.425,-4.4269,-4.4288,-4.4353,-4.4353,-4.4497,-4.4776,-4.4843,-4.4957,-4.5173,-4.5194,-4.5213,-4.5256,-4.5194,-4.5235,-4.5235,-4.5256,-4.5277,-4.5277,-4.5277,-4.5277,-4.5277,-4.5277,-4.5277,-4.5277,-4.5277,-4.5277,-4.5277,-4.5277,-4.5277,-4.5277,-4.5277,-4.5277,-4.5277,-4.5277,-4.5277,-4.5277,-4.5239,-4.4972,-4.4169,-4.3768,-4.3443,-4.2851,-4.2087,-4.138,-4.117,-4.0922,-4.0635,-4.0387,-4.0482,-4.0482,-4.0368,-4.0329,-4.0329,-4.0329,-4.0329,-4.0329,-4.0329,-4.0329,-4.0329,-4.6381,-4.6749,-4.6934,-4.6819,-4.6569,-4.6569,-4.6373,-4.6141,-4.6123,-4.6141,-4.6034,-4.5606,-4.5213,-4.4928,-4.4372,-4.3827,-4.3454,-4.4025,-4.4379,-4.4421,-4.4421,-4.444,-4.4385,-4.3914,-4.3661,-4.3588,-4.3136,-4.2957,-4.3087,-4.3406,-4.359,-4.3623,-4.3912,-4.4095,-4.4095,-4.4202,-4.426,-4.4242,-4.426,-4.4374,-4.461,-4.4503,-4.4522,-4.477,-4.4943,-4.4962,-4.477,-4.4556,-4.4442,-4.4448,-4.4175,-4.4191,-4.4482,-4.4411,-4.4374,-4.4402,-4.4402,-4.4402,-4.4402,-4.4402,-4.4438,-4.4519,-4.4546,-4.4617,-4.4695,-4.472,-4.4739,-4.4739,-4.472,-4.4739,-4.4814,-4.5065,-4.5277,-4.5277,-4.5297,-4.5277,-4.5277,-4.5277,-4.5277,-4.5277,-4.5277,-4.5277,-4.5277,-4.5277,-4.5277,-4.5277,-4.5277,-4.5277,-4.5277,-4.5277,-4.5277,-4.5277,-4.5277,-4.5201,-4.4953,-4.4284,-4.3825,-4.3501,-4.2928,-4.2125,-4.1686,-4.1915,-4.1781,-4.1227,-4.1094,-4.1036,-4.1036,-4.075,-4.0692,-4.0654,-4.0616,-4.0654,-4.0329,-4.0482,-4.0444,-4.6572,-4.6934,-4.6998,-4.6998,-4.6998,-4.6998,-4.6998,-4.6998,-4.6998,-4.6998,-4.6873,-4.6409,-4.6052,-4.5864,-4.576,-4.5324,-4.4641,-4.5057,-4.5228,-4.5291,-4.5291,-4.5291,-4.5218,-4.4729,-4.4476,-4.4349,-4.3661,-4.3172,-4.2956,-4.316,-4.3249,-4.3266,-4.3557,-4.3721,-4.3754,-4.3831,-4.3862,-4.3912,-4.3931,-4.4095,-4.4299,-4.425,-4.4298,-4.4549,-4.4758,-4.4777,-4.4541,-4.4595,-4.4495,-4.424,-4.425,-4.4202,-4.4132,-4.4202,-4.4202,-4.4143,-4.4114,-4.4114,-4.4114,-4.4114,-4.4143,-4.426,-4.426,-4.4289,-4.4374,-4.4402,-4.4402,-4.4402,-4.4402,-4.4402,-4.4484,-4.4789,-4.5042,-4.5109,-4.5132,-4.5194,-4.5297,-4.5277,-4.5277,-4.5277,-4.5277,-4.5277,-4.5277,-4.5277,-4.5277,-4.5277,-4.5277,-4.5277,-4.5277,-4.5277,-4.5277,-4.5277,-4.5277,-4.5277,-4.5163,-4.4781,-4.4571,-4.4284,-4.3749,-4.2928,-4.2488,-4.2775,-4.2698,-4.2163,-4.1877,-4.18,-4.159,-4.1304,-4.1227,-4.1208,-4.1361,-4.1514,-4.1151,-4.0769,-4.075,-4.6731,-4.6998,-4.6998,-4.6998,-4.6998,-4.6998,-4.6998,-4.6998,-4.6998,-4.6998,-4.6962,-4.6926,-4.6516,-4.6168,-4.6711,-4.6798,-4.614,-4.5712,-4.558,-4.5544,-4.5508,-4.549,-4.5526,-4.5381,-4.5236,-4.5128,-4.444,-4.3661,-4.3083,-4.3012,-4.2957,-4.2995,-4.3249,-4.3424,-4.3406,-4.3675,-4.3849,-4.3868,-4.3918,-4.403,-4.4121,-4.4162,-4.4221,-4.4289,-4.4374,-4.4318,-4.4192,-4.4279,-4.4181,-4.3961,-4.3923,-4.3828,-4.3664,-4.3828,-4.3878,-4.3631,-4.3548,-4.3513,-4.3548,-4.3582,-4.373,-4.3923,-4.4005,-4.4072,-4.4231,-4.4318,-4.4318,-4.4289,-4.4299,-4.4327,-4.4346,-4.4355,-4.4538,-4.4751,-4.4819,-4.4915,-4.5137,-4.5256,-4.5297,-4.5256,-4.5235,-4.5297,-4.5297,-4.5277,-4.5277,-4.5277,-4.5277,-4.5277,-4.5277,-4.5277,-4.5277,-4.5277,-4.5277,-4.5277,-4.5277,-4.5277,-4.5239,-4.5105,-4.4494,-4.3845,-4.3501,-4.3558,-4.3367,-4.2928,-4.2794,-4.2679,-4.2163,-4.1972,-4.2354,-4.2412,-4.2469,-4.2259,-4.1877,-4.1476,-4.1227,-4.6934,-4.6998,-4.6998,-4.6998,-4.6998,-4.6998,-4.6998,-4.6998,-4.6998,-4.6998,-4.6998,-4.6998,-4.6837,-4.6739,-4.7097,-4.7176,-4.696,-4.6922,-4.6957,-4.692,-4.6939,-4.6902,-4.6812,-4.6377,-4.5816,-4.5236,-4.4476,-4.3987,-4.3679,-4.3172,-4.29,-4.292,-4.3087,-4.316,-4.3196,-4.3356,-4.3408,-4.3408,-4.3442,-4.3612,-4.3823,-4.3744,-4.3828,-4.4048,-4.3905,-4.3744,-4.3712,-4.3968,-4.3923,-4.3667,-4.3649,-4.3615,-4.3548,-4.36,-4.3615,-4.3513,-4.3479,-4.3479,-4.3479,-4.3479,-4.3513,-4.3649,-4.3649,-4.3697,-4.3777,-4.3809,-4.3809,-4.3809,-4.3777,-4.3777,-4.3777,-4.3777,-4.3992,-4.4465,-4.4519,-4.455,-4.4706,-4.474,-4.4795,-4.4953,-4.4957,-4.5045,-4.5235,-4.5277,-4.5277,-4.5277,-4.5277,-4.5277,-4.5277,-4.5277,-4.5277,-4.5277,-4.5277,-4.5277,-4.5277,-4.5277,-4.5277,-4.5277,-4.4914,-4.4532,-4.4284,-4.4188,-4.3997,-4.3825,-4.3692,-4.3443,-4.2908,-4.2851,-4.3252,-4.3176,-4.2928,-4.2698,-4.2469,-4.2259,-4.2068,-4.7265,-4.6998,-4.6998,-4.6998,-4.6998,-4.6998,-4.6998,-4.6998,-4.6998,-4.6998,-4.6998,-4.6998,-4.6998,-4.7025,-4.7232,-4.732,-4.7345,-4.7554,-4.7699,-4.7699,-4.7699,-4.7699,-4.7663,-4.721,-4.6522,-4.5798,-4.5218,-4.4838,-4.4512,-4.3769,-4.3335,-4.3355,-4.3194,-4.3104,-4.3104,-4.3178,-4.3214,-4.3214,-4.3232,-4.341,-4.3563,-4.3532,-4.3566,-4.3749,-4.3615,-4.3479,-4.3532,-4.3716,-4.3716,-4.3566,-4.3479,-4.3479,-4.3479,-4.3479,-4.3479,-4.3479,-4.3479,-4.3479,-4.3479,-4.3479,-4.3479,-4.3479,-4.3479,-4.3479,-4.3479,-4.3479,-4.3479,-4.3479,-4.3513,-4.3479,-4.3513,-4.3479,-4.3697,-4.4011,-4.4173,-4.4279,-4.4372,-4.4485,-4.4602,-4.4808,-4.4934,-4.5087,-4.5235,-4.5277,-4.5277,-4.5277,-4.5277,-4.5277,-4.5277,-4.5277,-4.5277,-4.5277,-4.5277,-4.5277,-4.5277,-4.5277,-4.5277,-4.5277,-4.522,-4.4972,-4.4743,-4.4857,-4.48,-4.4628,-4.4494,-4.4475,-4.4036,-4.3959,-4.4131,-4.3768,-4.3539,-4.3577,-4.3539,-4.3291,-4.3042,-4.7783,-4.7087,-4.7069,-4.7069,-4.6998,-4.6998,-4.6998,-4.6998,-4.6998,-4.6998,-4.6998,-4.6998,-4.6998,-4.7088,-4.7232,-4.7302,-4.7363,-4.7572,-4.7699,-4.7699,-4.7699,-4.7699,-4.7663,-4.7591,-4.7192,-4.6649,-4.6413,-4.5997,-4.5345,-4.4421,-4.4095,-4.3932,-4.3412,-4.3104,-4.3141,-4.3178,-4.3251,-4.3286,-4.334,-4.3411,-4.3446,-4.3463,-4.3479,-4.3513,-4.3513,-4.3479,-4.3479,-4.3532,-4.3513,-4.3479,-4.3479,-4.3479,-4.3479,-4.3479,-4.3479,-4.3479,-4.3479,-4.3479,-4.3479,-4.3479,-4.3479,-4.3479,-4.3479,-4.3479,-4.3479,-4.3479,-4.3479,-4.3479,-4.3479,-4.3479,-4.3479,-4.3479,-4.3513,-4.3548,-4.3795,-4.4035,-4.4346,-4.4543,-4.4607,-4.4783,-4.5045,-4.5256,-4.5256,-4.5277,-4.5277,-4.5277,-4.5277,-4.5277,-4.5277,-4.5277,-4.5277,-4.5277,-4.5277,-4.5277,-4.5277,-4.5277,-4.5277,-4.5277,-4.5277,-4.5201,-4.5086,-4.5201,-4.5277,-4.5182,-4.5105,-4.5144,-4.5105,-4.4838,-4.48,-4.4704,-4.4647,-4.4723,-4.4532,-4.4208,-4.3999,-4.8568,-4.789,-4.7872,-4.7533,-4.7033,-4.6998,-4.6998,-4.6998,-4.6998,-4.6998,-4.6998,-4.6998,-4.7043,-4.7151,-4.7232,-4.7345,-4.745,-4.7615,-4.7699,-4.7699,-4.7699,-4.7699,-4.7699,-4.7699,-4.7609,-4.7319,-4.683,-4.6377,-4.6087,-4.4874,-4.4204,-4.4059,-4.3559,-4.3215,-4.3178,-4.334,-4.3428,-4.3428,-4.3463,-4.3463,-4.3463,-4.3479,-4.3479,-4.3479,-4.3479,-4.3479,-4.3479,-4.3479,-4.3479,-4.3479,-4.3479,-4.3479,-4.3479,-4.3479,-4.3479,-4.3479,-4.3479,-4.3479,-4.3479,-4.3479,-4.3479,-4.3479,-4.3479,-4.3479,-4.3479,-4.3479,-4.3479,-4.3479,-4.3479,-4.3479,-4.3479,-4.3479,-4.3479,-4.3532,-4.3615,-4.3781,-4.3986,-4.3942,-4.4048,-4.465,-4.472,-4.4887,-4.5173,-4.5277,-4.5277,-4.5277,-4.5277,-4.5277,-4.5277,-4.5277,-4.5277,-4.5277,-4.5277,-4.5277,-4.5277,-4.5277,-4.5277,-4.5277,-4.5277,-4.5277,-4.522,-4.5258,-4.5277,-4.5258,-4.5201,-4.522,-4.5239,-4.5125,-4.5258,-4.5277,-4.5201,-4.5029,-4.5086,-4.4914,-4.4898,-4.9353,-4.8621,-4.83,-4.7925,-4.7461,-4.714,-4.6998,-4.6998,-4.6998,-4.6998,-4.6998,-4.6998,-4.7043,-4.7151,-4.7232,-4.7302,-4.7425,-4.7615,-4.7699,-4.7699,-4.7699,-4.7699,-4.7699,-4.7699,-4.7699,-4.7663,-4.7246,-4.7047,-4.6812,-4.5707,-4.5182,-4.4968,-4.416,-4.3743,-4.3707,-4.3521,-4.3479,-4.3479,-4.3479,-4.3479,-4.3479,-4.3479,-4.3479,-4.3479,-4.3479,-4.3479,-4.3479,-4.3479,-4.3479,-4.3479,-4.3479,-4.3479,-4.3479,-4.3479,-4.3479,-4.3479,-4.3479,-4.3479,-4.3479,-4.3479,-4.3479,-4.3479,-4.3479,-4.3479,-4.3479,-4.3479,-4.3479,-4.3479,-4.3479,-4.3479,-4.3479,-4.3479,-4.3479,-4.3479,-4.3479,-4.36,-4.3763,-4.3781,-4.3972,-4.4409,-4.4624,-4.4745,-4.5235,-4.5277,-4.5297,-4.5277,-4.5277,-4.5277,-4.5277,-4.5277,-4.5277,-4.5277,-4.5277,-4.5277,-4.5277,-4.5277,-4.5277,-4.5277,-4.5277,-4.5277,-4.5277,-4.5277,-4.5277,-4.5277,-4.5277,-4.5277,-4.5298,-4.5298,-4.5277,-4.5277,-4.5277,-4.5317,-4.5298,-4.5319,-4.5359,-4.9995,-4.9139,-4.8461,-4.8139,-4.789,-4.7283,-4.6998,-4.6998,-4.6998,-4.6998,-4.6998,-4.6998,-4.7043,-4.7043,-4.7214,-4.7302,-4.7363,-4.7597,-4.7657,-4.7699,-4.7699,-4.7699,-4.7699,-4.7699,-4.7699,-4.7699,-4.7699,-4.7645,-4.7355,-4.6757,-4.6468,-4.6059,-4.5069,-4.4618,-4.4437,-4.4033,-4.3663,-4.3663,-4.3534,-4.3497,-4.3479,-4.3479,-4.3479,-4.3479,-4.3479,-4.3479,-4.3479,-4.3479,-4.3479,-4.3479,-4.3479,-4.3479,-4.3479,-4.3479,-4.3479,-4.3479,-4.3479,-4.3479,-4.3479,-4.3479,-4.3479,-4.3479,-4.3479,-4.3479,-4.3479,-4.3479,-4.3479,-4.3479,-4.3479,-4.3479,-4.3479,-4.3479,-4.3479,-4.3479,-4.3479,-4.3479,-4.356,-4.3757,-4.4055,-4.4373,-4.4624,-4.4887,-4.5109,-4.5256,-4.5275,-4.5256,-4.5256,-4.5194,-4.5235,-4.5277,-4.5277,-4.5277,-4.5277,-4.5277,-4.5277,-4.5277,-4.5277,-4.5277,-4.5277,-4.5277,-4.5277,-4.5277,-4.5277,-4.5277,-4.5277,-4.5298,-4.5339,-4.5319,-4.5298,-4.5319,-4.5339,-4.536,-4.5379,-4.536,-4.5419,-4.9692,-4.8407,-4.8293,-4.7818,-4.7283,-4.7069,-4.6998,-4.7015,-4.6998,-4.6998,-4.6998,-4.6998,-4.7043,-4.7133,-4.7232,-4.7363,-4.7468,-4.7615,-4.7699,-4.7699,-4.7699,-4.7699,-4.7717,-4.7735,-4.7699,-4.7699,-4.7699,-4.7699,-4.7518,-4.7011,-4.6581,-4.6517,-4.5909,-4.5404,-4.5369,-4.4729,-4.4433,-4.4342,-4.3828,-4.3497,-4.3479,-4.3479,-4.3479,-4.3479,-4.3479,-4.3479,-4.3479,-4.3479,-4.3479,-4.3479,-4.3479,-4.3479,-4.3479,-4.3479,-4.3479,-4.3479,-4.3479,-4.3479,-4.3479,-4.3479,-4.3479,-4.3479,-4.3479,-4.3479,-4.3479,-4.3479,-4.3479,-4.3479,-4.3479,-4.3479,-4.3479,-4.3479,-4.3479,-4.3479,-4.3479,-4.3479,-4.3495,-4.3594,-4.3844,-4.4252,-4.443,-4.4572,-4.4862,-4.4915,-4.5004,-4.5173,-4.5194,-4.5087,-4.5173,-4.5277,-4.5317,-4.5317,-4.5298,-4.5319,-4.5319,-4.5319,-4.5319,-4.5319,-4.5319,-4.5319,-4.5319,-4.5298,-4.5319,-4.5298,-4.5277,-4.5319,-4.5341,-4.536,-4.5379,-4.538,-4.538,-4.538,-4.54,-4.54,-4.5438,-5.0138,-4.88,-4.9103,-4.8817,-4.8104,-4.7711,-4.7551,-4.7461,-4.714,-4.6998,-4.6998,-4.6998,-4.7088,-4.7178,-4.7294,-4.7363,-4.7511,-4.7633,-4.7935,-4.8098,-4.7971,-4.7916,-4.8116,-4.788,-4.7699,-4.7699,-4.7699,-4.7699,-4.7554,-4.7301,-4.7161,-4.7093,-4.6509,-4.6223,-4.6044,-4.5279,-4.4745,-4.4525,-4.392,-4.3479,-4.3479,-4.3479,-4.3479,-4.3479,-4.3479,-4.3479,-4.3479,-4.3479,-4.3479,-4.3479,-4.3479,-4.3479,-4.3479,-4.3479,-4.3479,-4.3479,-4.3479,-4.3479,-4.3479,-4.3479,-4.3479,-4.3479,-4.3479,-4.3479,-4.3479,-4.3479,-4.3479,-4.3479,-4.3479,-4.3479,-4.3479,-4.3479,-4.3479,-4.3479,-4.3479,-4.3479,-4.3479,-4.3497,-4.3664,-4.4079,-4.4202,-4.4354,-4.4495,-4.4561,-4.4757,-4.4962,-4.5006,-4.4941,-4.5194,-4.5297,-4.5317,-4.5338,-4.5359,-4.5339,-4.5341,-4.5361,-4.5361,-4.5361,-4.5361,-4.5361,-4.5361,-4.5341,-4.536,-4.5339,-4.5338,-4.5341,-4.5381,-4.54,-4.5419,-4.54,-4.54,-4.5419,-4.5438,-4.5457,-4.5476,-5.0477,-4.9192,-4.9745,-4.9692,-4.921,-4.8336,-4.7997,-4.8032,-4.7337,-4.6998,-4.6998,-4.7025,-4.7106,-4.7223,-4.7407,-4.7518,-4.7687,-4.7759,-4.8138,-4.8483,-4.7977,-4.8025,-4.8261,-4.7989,-4.7699,-4.7699,-4.7699,-4.7699,-4.7699,-4.7699,-4.7596,-4.762,-4.7252,-4.7065,-4.672,-4.5828,-4.5278,-4.5241,-4.4544,-4.4085,-4.4066,-4.403,-4.3993,-4.3773,-4.3534,-4.3497,-4.3479,-4.3479,-4.3479,-4.3479,-4.3479,-4.3479,-4.3479,-4.3479,-4.3479,-4.3479,-4.3479,-4.3479,-4.3479,-4.3479,-4.3479,-4.3479,-4.3479,-4.3479,-4.3479,-4.3479,-4.3479,-4.3479,-4.3479,-4.3479,-4.3479,-4.3479,-4.3479,-4.3479,-4.3479,-4.3479,-4.3479,-4.3479,-4.3631,-4.3814,-4.4016,-4.4184,-4.425,-4.4336,-4.4542,-4.4724,-4.476,-4.4894,-4.5163,-4.5298,-4.5359,-4.536,-4.5361,-4.5361,-4.5361,-4.5381,-4.5381,-4.5381,-4.54,-4.54,-4.54,-4.54,-4.54,-4.5399,-4.5399,-4.54,-4.54,-4.5419,-4.5438,-4.5419,-4.5438,-4.5495,-4.5513,-4.5513,-4.5531,-4.9192,-4.8318,-4.7783,-4.8229,-4.9014,-4.7836,-4.7711,-4.7979,-4.739,-4.6998,-4.7043,-4.7151,-4.7178,-4.7338,-4.7811,-4.8155,-4.8346,-4.8326,-4.8318,-4.8477,-4.802,-4.7959,-4.8109,-4.7898,-4.7717,-4.7699,-4.7699,-4.7699,-4.7699,-4.7699,-4.7783,-4.7893,-4.7787,-4.7798,-4.7659,-4.7149,-4.6452,-4.6287,-4.5645,-4.5259,-4.5241,-4.5223,-4.4929,-4.4415,-4.3901,-4.3589,-4.3497,-4.3479,-4.3479,-4.3479,-4.3479,-4.3479,-4.3479,-4.3479,-4.3479,-4.3479,-4.3479,-4.3479,-4.3479,-4.3479,-4.3479,-4.3479,-4.3479,-4.3479,-4.3479,-4.3479,-4.3479,-4.3479,-4.3479,-4.3479,-4.3479,-4.3479,-4.3479,-4.3479,-4.3479,-4.3479,-4.3479,-4.3479,-4.3513,-4.3634,-4.3837,-4.3984,-4.403,-4.4136,-4.4402,-4.4594,-4.4715,-4.4949,-4.5263,-4.536,-4.538,-4.54,-4.5419,-4.54,-4.54,-4.54,-4.54,-4.5437,-4.5437,-4.5438,-4.5438,-4.5457,-4.5457,-4.5458,-4.5438,-4.5438,-4.5457,-4.5475,-4.5513,-4.5513,-4.555,-4.5568,-4.5568,-4.5549,-4.5549,-4.9246,-4.83,-4.9049,-4.9585,-4.9763,-4.9156,-4.8764,-4.8639,-4.7961,-4.7354,-4.7205,-4.7302,-4.7371,-4.7475,-4.8059,-4.8549,-4.8676,-4.864,-4.8772,-4.8938,-4.8449,-4.8265,-4.8352,-4.8024,-4.7735,-4.7699,-4.7699,-4.7717,-4.7699,-4.7699,-4.7783,-4.7866,-4.7929,-4.8072,-4.7968,-4.7404,-4.7167,-4.6966,-4.6397,-4.5938,-4.592,-4.592,-4.548,-4.4819,-4.436,-4.3938,-4.3516,-4.3479,-4.3479,-4.3479,-4.3479,-4.3479,-4.3479,-4.3479,-4.3479,-4.3479,-4.3479,-4.3479,-4.3479,-4.3479,-4.3479,-4.3479,-4.3479,-4.3479,-4.3479,-4.3479,-4.3479,-4.3479,-4.3479,-4.3479,-4.3479,-4.3479,-4.3479,-4.3479,-4.3479,-4.3479,-4.3479,-4.3479,-4.3479,-4.3479,-4.36,-4.3719,-4.3771,-4.3942,-4.4237,-4.4428,-4.4645,-4.4965,-4.5361,-4.54,-4.5419,-4.5457,-4.5457,-4.5475,-4.5495,-4.5475,-4.5475,-4.5473,-4.5454,-4.5456,-4.5475,-4.5513,-4.5531,-4.5532,-4.5513,-4.5494,-4.5531,-4.5549,-4.5568,-4.5605,-4.5586,-4.5586,-4.5586,-4.5586,-4.5586,-4.9603,-4.8354,-5.037,-5.0923,-5.053,-5.0316,-4.9852,-4.9246,-4.8478,-4.774,-4.7169,-4.7396,-4.7548,-4.7715,-4.831,-4.8847,-4.8986,-4.8986,-4.9254,-4.9445,-4.8846,-4.8733,-4.8802,-4.8415,-4.7866,-4.7925,-4.8007,-4.7844,-4.7717,-4.7699,-4.7717,-4.7842,-4.7929,-4.805,-4.7926,-4.7679,-4.7369,-4.715,-4.6783,-4.6397,-4.6361,-4.6195,-4.5883,-4.5204,-4.5039,-4.458,-4.3938,-4.3828,-4.3663,-4.3552,-4.3479,-4.3479,-4.3479,-4.3479,-4.3479,-4.3479,-4.3479,-4.3479,-4.3479,-4.3479,-4.3479,-4.3479,-4.3479,-4.3479,-4.3479,-4.3479,-4.3479,-4.3479,-4.3479,-4.3479,-4.3479,-4.3479,-4.3479,-4.3479,-4.3479,-4.3479,-4.3479,-4.3479,-4.3479,-4.3479,-4.3479,-4.3532,-4.36,-4.383,-4.4172,-4.4489,-4.4695,-4.5032,-4.5361,-4.5438,-4.5495,-4.5532,-4.555,-4.5568,-4.5568,-4.5568,-4.5549,-4.5549,-4.5547,-4.5549,-4.5549,-4.5586,-4.5586,-4.5568,-4.5586,-4.5549,-4.5586,-4.5586,-4.5586,-4.5586,-4.5586,-4.5586,-4.5586,-4.5586,-4.5586,-4.9603,-4.8264,-4.9228,-4.9942,-5.037,-4.9852,-4.9478,-4.9281,-4.8586,-4.7821,-4.7268,-4.7345,-4.765,-4.8155,-4.8885,-4.9439,-4.9558,-4.9457,-4.9409,-4.9495,-4.903,-4.882,-4.8842,-4.8475,-4.8249,-4.8245,-4.8548,-4.8279,-4.8013,-4.785,-4.7832,-4.7951,-4.8002,-4.805,-4.8111,-4.8009,-4.8177,-4.8122,-4.8012,-4.7921,-4.7792,-4.7278,-4.6929,-4.6581,-4.6085,-4.5406,-4.4709,-4.4544,-4.4323,-4.3718,-4.3571,-4.3516,-4.3479,-4.3479,-4.3479,-4.3479,-4.3479,-4.3479,-4.3479,-4.3479,-4.3479,-4.3479,-4.3479,-4.3479,-4.3479,-4.3479,-4.3479,-4.3479,-4.3479,-4.3479,-4.3479,-4.3479,-4.3479,-4.3479,-4.3479,-4.3479,-4.3479,-4.3479,-4.3479,-4.3479,-4.3479,-4.3479,-4.3532,-4.3833,-4.4124,-4.4447,-4.4801,-4.5131,-4.536,-4.5455,-4.5531,-4.5568,-4.5568,-4.5586,-4.5586,-4.5586,-4.5586,-4.5586,-4.5586,-4.5586,-4.5586,-4.5586,-4.5586,-4.5586,-4.5586,-4.5586,-4.5586,-4.5586,-4.5586,-4.5586,-4.5586,-4.5586,-4.5586,-4.5586,-4.5586,-4.9603,-4.83,-4.9495,-5.0191,-5.0513,-5.0584,-5.0405,-4.9888,-4.9174,-4.8418,-4.7895,-4.7705,-4.8059,-4.8781,-4.9302,-4.9548,-4.9797,-4.9741,-4.9683,-4.9625,-4.9346,-4.9137,-4.9057,-4.8765,-4.8586,-4.8624,-4.8752,-4.8873,-4.8547,-4.846,-4.843,-4.8483,-4.8207,-4.809,-4.8187,-4.8286,-4.8306,-4.8288,-4.8288,-4.8306,-4.8214,-4.7957,-4.7572,-4.7112,-4.6764,-4.6177,-4.5608,-4.5388,-4.5259,-4.4782,-4.4507,-4.4176,-4.4048,-4.3791,-4.3479,-4.3479,-4.3479,-4.3479,-4.3479,-4.3479,-4.3479,-4.3479,-4.3479,-4.3479,-4.3479,-4.3479,-4.3479,-4.3479,-4.3479,-4.3479,-4.3479,-4.3479,-4.3479,-4.3479,-4.3479,-4.3479,-4.3479,-4.3479,-4.3479,-4.3479,-4.3479,-4.3479,-4.3587,-4.3894,-4.4207,-4.4484,-4.4859,-4.5228,-4.5435,-4.5512,-4.5568,-4.5586,-4.5586,-4.5586,-4.5586,-4.5586,-4.5586,-4.5586,-4.5586,-4.5586,-4.5586,-4.5586,-4.5586,-4.5586,-4.5586,-4.5586,-4.5586,-4.5586,-4.5586,-4.5586,-4.5586,-4.5586,-4.5586,-4.5586,-4.5586,-4.9121,-4.8086,-4.9995,-5.0691,-5.0584,-5.1369,-5.1083,-5.0138,-4.9549,-4.8793,-4.8219,-4.8052,-4.8567,-4.9252,-4.9488,-4.9665,-4.9879,-4.9879,-4.9879,-4.9797,-4.9683,-4.9518,-4.9377,-4.915,-4.8952,-4.8956,-4.9154,-4.9436,-4.9616,-4.9435,-4.9145,-4.9089,-4.8356,-4.8163,-4.8169,-4.8247,-4.8324,-4.8324,-4.8324,-4.8324,-4.8306,-4.8306,-4.7939,-4.7627,-4.7333,-4.704,-4.6342,-4.6195,-4.6177,-4.5681,-4.5314,-4.4911,-4.458,-4.4175,-4.3734,-4.3624,-4.3479,-4.3479,-4.3479,-4.3479,-4.3479,-4.3479,-4.3479,-4.3479,-4.3479,-4.3479,-4.3479,-4.3479,-4.3479,-4.3479,-4.3479,-4.3479,-4.3479,-4.3479,-4.3479,-4.3479,-4.3479,-4.3479,-4.3479,-4.3479,-4.3479,-4.3479,-4.3642,-4.4023,-4.4308,-4.4549,-4.489,-4.5323,-4.5491,-4.5549,-4.5586,-4.5586,-4.5586,-4.5586,-4.5586,-4.5586,-4.5586,-4.5586,-4.5586,-4.5586,-4.5586,-4.5586,-4.5586,-4.5586,-4.5586,-4.5586,-4.5586,-4.5586,-4.5586,-4.5586,-4.5586,-4.5586,-4.5586,-4.5586,-4.5586,-4.7836,-4.7319,-5.0316,-5.1101,-5.0548,-5.1351,-5.0834,-4.9638,-4.9406,-4.8572,-4.7607,-4.8155,-4.8832,-4.9334,-4.9636,-4.9824,-4.9879,-4.9879,-4.9879,-4.9898,-4.9871,-4.9824,-4.9693,-4.9518,-4.939,-4.9527,-4.9791,-5.0333,-5.0749,-5.0397,-4.9763,-4.9122,-4.8605,-4.8315,-4.8263,-4.8378,-4.8324,-4.8324,-4.8324,-4.8324,-4.8324,-4.8324,-4.8233,-4.8214,-4.8122,-4.7847,-4.7095,-4.7021,-4.6801,-4.6232,-4.5957,-4.559,-4.5168,-4.4814,-4.441,-4.4064,-4.3901,-4.3901,-4.3901,-4.3626,-4.3479,-4.3479,-4.3552,-4.3608,-4.3497,-4.3516,-4.3516,-4.3516,-4.3479,-4.3479,-4.3479,-4.3479,-4.3479,-4.3479,-4.3479,-4.3479,-4.3479,-4.3479,-4.3479,-4.3479,-4.3479,-4.3479,-4.3532,-4.3858,-4.4142,-4.4374,-4.4824,-4.5266,-4.5473,-4.5586,-4.5586,-4.5586,-4.5586,-4.5586,-4.5586,-4.5586,-4.5586,-4.5586,-4.5586,-4.5586,-4.5586,-4.5586,-4.5586,-4.5586,-4.5586,-4.5586,-4.5586,-4.5586,-4.5586,-4.5586,-4.5586,-4.5586,-4.5586,-4.5586,-4.5586,-4.7997,-4.7925,-5.0084,-5.0495,-4.987,-5.1137,-5.1066,-5.0084,-4.9579,-4.8693,-4.7468,-4.829,-4.8832,-4.915,-4.9646,-4.9879,-4.9879,-4.9879,-4.9917,-4.9879,-4.9879,-4.9879,-4.9824,-4.9986,-4.9977,-5.039,-5.0722,-5.1335,-5.2143,-5.1447,-5.1231,-5.0579,-4.934,-4.895,-4.884,-4.8524,-4.8304,-4.8324,-4.8324,-4.8324,-4.8324,-4.8324,-4.8324,-4.8324,-4.8324,-4.8177,-4.7884,-4.7847,-4.7627,-4.7315,-4.6874,-4.6434,-4.5993,-4.5678,-4.5237,-4.4928,-4.4819,-4.4837,-4.4617,-4.4103,-4.3497,-4.3608,-4.3883,-4.4103,-4.3791,-4.3938,-4.3864,-4.3736,-4.3589,-4.3699,-4.3534,-4.3516,-4.3479,-4.3479,-4.3552,-4.3644,-4.3644,-4.3736,-4.3681,-4.3773,-4.3608,-4.3479,-4.3566,-4.3655,-4.3929,-4.4231,-4.4706,-4.5168,-4.5419,-4.5586,-4.5586,-4.5586,-4.5586,-4.5586,-4.5586,-4.5586,-4.5586,-4.5586,-4.5586,-4.5586,-4.5586,-4.5586,-4.5586,-4.5586,-4.5586,-4.5586,-4.5586,-4.5586,-4.5586,-4.5586,-4.5586,-4.5586,-4.5586,-4.5586,-4.5586,-4.7836,-4.8015,-4.9495,-4.9977,-4.987,-5.1119,-5.1083,-5.0204,-4.971,-4.8857,-4.7747,-4.844,-4.885,-4.9118,-4.9588,-4.9879,-4.9993,-5.0182,-5.0296,-5.0448,-5.0599,-5.058,-5.0637,-5.0789,-5.1074,-5.149,-5.1632,-5.213,-5.3069,-5.2454,-5.2394,-5.186,-5.0435,-4.9584,-4.9093,-4.8744,-4.8267,-4.8306,-4.8324,-4.8324,-4.8324,-4.8324,-4.8324,-4.8324,-4.8324,-4.8306,-4.8233,-4.8196,-4.8214,-4.8012,-4.7737,-4.7352,-4.7003,-4.6618,-4.6158,-4.6011,-4.592,-4.5902,-4.559,-4.5056,-4.423,-4.4488,-4.4746,-4.471,-4.4544,-4.4727,-4.4782,-4.4488,-4.4305,-4.4176,-4.414,-4.4397,-4.4452,-4.4617,-4.458,-4.4599,-4.436,-4.4305,-4.4158,-4.4085,-4.3956,-4.3938,-4.386,-4.3996,-4.4114,-4.4392,-4.4815,-4.5207,-4.5475,-4.5586,-4.5586,-4.5586,-4.5586,-4.5586,-4.5586,-4.5586,-4.5586,-4.5586,-4.5586,-4.5586,-4.5586,-4.5586,-4.5586,-4.5586,-4.5586,-4.5586,-4.5586,-4.5586,-4.5586,-4.5586,-4.5586,-4.5586,-4.5586,-4.5586,-4.5586,-4.7105,-4.7212,-4.8746,-4.9781,-5.037,-5.1333,-5.0865,-4.9692,-4.9381,-4.8846,-4.8148,-4.8495,-4.89,-4.9315,-4.9741,-4.9879,-5.0088,-5.0675,-5.1035,-5.1092,-5.1566,-5.2077,-5.2134,-5.2077,-5.2021,-5.2305,-5.2494,-5.2863,-5.3705,-5.3127,-5.3371,-5.3046,-5.1413,-4.9658,-4.9204,-4.8532,-4.8226,-4.8267,-4.8324,-4.8324,-4.8324,-4.8324,-4.8324,-4.8324,-4.8324,-4.8324,-4.8324,-4.8324,-4.8324,-4.8233,-4.8214,-4.7829,-4.7315,-4.7222,-4.68,-4.625,-4.6157,-4.6083,-4.5975,-4.5882,-4.5754,-4.5571,-4.5627,-4.57,-4.5736,-4.5828,-4.5736,-4.5314,-4.5461,-4.559,-4.5718,-4.5718,-4.5571,-4.548,-4.5406,-4.5314,-4.5057,-4.4947,-4.4837,-4.4745,-4.4709,-4.4635,-4.4502,-4.4391,-4.442,-4.4619,-4.4973,-4.5264,-4.5513,-4.5586,-4.5586,-4.5586,-4.5586,-4.5586,-4.5586,-4.5586,-4.5586,-4.5586,-4.5586,-4.5586,-4.5586,-4.5586,-4.5586,-4.5586,-4.5586,-4.5586,-4.5586,-4.5586,-4.5586,-4.5586,-4.5586,-4.5586,-4.5586,-4.5586,-4.5586,-4.835,-4.7974,-4.9012,-4.9508,-4.9817,-5.0566,-5.0329,-4.9453,-4.8632,-4.8194,-4.8323,-4.8604,-4.8986,-4.9377,-4.9769,-4.9955,-5.0107,-5.0789,-5.1206,-5.1376,-5.2172,-5.2305,-5.2456,-5.2646,-5.2779,-5.3139,-5.3328,-5.3669,-5.4492,-5.3992,-5.3981,-5.3677,-5.1824,-4.993,-4.8849,-4.826,-4.8208,-4.8286,-4.8324,-4.8324,-4.8324,-4.8324,-4.8324,-4.8324,-4.8324,-4.8324,-4.8324,-4.8324,-4.8324,-4.8324,-4.8324,-4.8141,-4.7865,-4.7807,-4.7717,-4.7462,-4.7439,-4.7478,-4.7498,-4.7426,-4.6948,-4.6544,-4.6379,-4.6452,-4.6049,-4.6471,-4.6361,-4.6104,-4.614,-4.6085,-4.5847,-4.5865,-4.581,-4.5773,-4.5736,-4.5718,-4.5608,-4.5645,-4.5608,-4.5589,-4.5534,-4.5567,-4.5487,-4.5268,-4.52,-4.5224,-4.5555,-4.5416,-4.5551,-4.5586,-4.5586,-4.5586,-4.5586,-4.5586,-4.5586,-4.5586,-4.5586,-4.5586,-4.5586,-4.5586,-4.5586,-4.5586,-4.5586,-4.5586,-4.5586,-4.5586,-4.5586,-4.5586,-4.5586,-4.5586,-4.5586,-4.5586,-4.5586,-4.5586,-4.5586,-4.9249,-4.8854,-4.9367,-4.9489,-4.9502,-4.9919,-4.9818,-4.9108,-4.8063,-4.7847,-4.8288,-4.8658,-4.9038,-4.9471,-5.0014,-5.0334,-5.0486,-5.1585,-5.2096,-5.2191,-5.293,-5.3328,-5.3366,-5.3233,-5.3707,-5.4029,-5.4143,-5.4446,-5.4806,-5.4882,-5.4339,-5.3283,-5.1843,-5.0186,-4.8977,-4.84,-4.8169,-4.8247,-4.8286,-4.8324,-4.8324,-4.8324,-4.8324,-4.8324,-4.8324,-4.8324,-4.8324,-4.8324,-4.8324,-4.8324,-4.8324,-4.8324,-4.8324,-4.8324,-4.8324,-4.8324,-4.8306,-4.8269,-4.8214,-4.8196,-4.7609,-4.7058,-4.7297,-4.7223,-4.6893,-4.7315,-4.7241,-4.7003,-4.6709,-4.6691,-4.6691,-4.6636,-4.6599,-4.6617,-4.6636,-4.6654,-4.6397,-4.6452,-4.6562,-4.6526,-4.6379,-4.6448,-4.6397,-4.6258,-4.6045,-4.6107,-4.6168,-4.5948,-4.5743,-4.578,-4.5817,-4.5817,-4.572,-4.5663,-4.5643,-4.5586,-4.5586,-4.5586,-4.5586,-4.5586,-4.5586,-4.5586,-4.5586,-4.5586,-4.5586,-4.5586,-4.5586,-4.5586,-4.5586,-4.5586,-4.5586,-4.5586,-4.5586,-4.5586,-4.5586,-4.9711,-4.9711,-4.9711,-4.9729,-4.9701,-4.9607,-4.918,-4.863,-4.7958,-4.7947,-4.8382,-4.8694,-4.9071,-4.9596,-5.0639,-5.1045,-5.1395,-5.276,-5.3252,-5.3688,-5.4086,-5.4446,-5.4617,-5.4617,-5.4541,-5.4712,-5.4806,-5.4693,-5.4901,-5.4901,-5.4137,-5.2918,-5.1992,-5.0667,-4.961,-4.8698,-4.8324,-4.8224,-4.819,-4.8247,-4.8286,-4.8286,-4.8286,-4.8286,-4.8324,-4.8324,-4.8324,-4.8324,-4.8324,-4.8324,-4.8324,-4.8324,-4.8324,-4.8324,-4.8324,-4.8324,-4.8324,-4.8324,-4.8324,-4.8324,-4.8288,-4.7865,-4.8086,-4.8233,-4.8159,-4.7994,-4.7884,-4.7902,-4.7774,-4.7976,-4.8086,-4.8031,-4.7957,-4.7976,-4.7994,-4.7755,-4.7388,-4.737,-4.7517,-4.7443,-4.7261,-4.7168,-4.6972,-4.6825,-4.7003,-4.7074,-4.7063,-4.6795,-4.657,-4.6318,-4.6336,-4.6259,-4.6105,-4.5817,-4.5757,-4.5776,-4.5586,-4.5586,-4.5586,-4.5586,-4.5586,-4.5586,-4.5586,-4.5586,-4.5586,-4.5586,-4.5586,-4.5586,-4.5586,-4.5586,-4.5586,-4.5586,-4.5586,-4.5586,-4.5586,-4.9848,-4.9866,-4.9848,-5.0127,-5.034,-4.9379,-4.8505,-4.7854,-4.7711,-4.8032,-4.8658,-4.8765,-4.9118,-4.9816,-5.078,-5.1168,-5.1869,-5.2722,-5.3442,-5.4029,-5.456,-5.4806,-5.4901,-5.4901,-5.4901,-5.4901,-5.4901,-5.4901,-5.4901,-5.4901,-5.4411,-5.3423,-5.2401,-5.1437,-5.0459,-4.9392,-4.8698,-4.8214,-4.8145,-4.8169,-4.8208,-4.8208,-4.8247,-4.8286,-4.8286,-4.8286,-4.8324,-4.8324,-4.8324,-4.8324,-4.8324,-4.8324,-4.8324,-4.8324,-4.8324,-4.8324,-4.8324,-4.8324,-4.8324,-4.8324,-4.8324,-4.8324,-4.8324,-4.8324,-4.8306,-4.8324,-4.8324,-4.8324,-4.8324,-4.8324,-4.8324,-4.8324,-4.8324,-4.8324,-4.8324,-4.8159,-4.7829,-4.7884,-4.8012,-4.8014,-4.7849,-4.7922,-4.7689,-4.7852,-4.8045,-4.8087,-4.8033,-4.7795,-4.7453,-4.7202,-4.6951,-4.6894,-4.6547,-4.6259,-4.6103,-4.6084,-4.5796,-4.5586,-4.5586,-4.5586,-4.5586,-4.5586,-4.5586,-4.5586,-4.5586,-4.5586,-4.5586,-4.5586,-4.5586,-4.5586,-4.5586,-4.5586,-4.5586,-4.5586,-4.5586,-4.9956,-5.0001,-5.0001,-5.0118,-5.0097,-4.9205,-4.8381,-4.7879,-4.7741,-4.8114,-4.8746,-4.8816,-4.9214,-5.0033,-5.1111,-5.1774,-5.1907,-5.3423,-5.4257,-5.4408,-5.4674,-5.4825,-5.4901,-5.4901,-5.4901,-5.4901,-5.4901,-5.4901,-5.4871,-5.4648,-5.4243,-5.3647,-5.2808,-5.1995,-5.1005,-4.976,-4.8859,-4.8434,-4.8207,-4.8105,-4.809,-4.813,-4.8169,-4.8247,-4.8247,-4.8286,-4.8306,-4.8306,-4.8324,-4.8324,-4.8324,-4.8324,-4.8324,-4.8324,-4.8324,-4.8324,-4.8324,-4.8324,-4.8324,-4.8324,-4.8324,-4.8324,-4.8324,-4.8324,-4.8324,-4.8324,-4.8324,-4.8324,-4.8324,-4.8324,-4.8324,-4.8324,-4.8324,-4.8324,-4.8324,-4.8324,-4.8288,-4.8288,-4.8344,-4.8382,-4.8477,-4.8657,-4.8739,-4.8899,-4.9086,-4.9205,-4.9354,-4.9354,-4.8779,-4.8182,-4.7855,-4.7625,-4.7163,-4.674,-4.6565,-4.6238,-4.5834,-4.5586,-4.5586,-4.5586,-4.5586,-4.5586,-4.5586,-4.5586,-4.5586,-4.5586,-4.5586,-4.5586,-4.5586,-4.5586,-4.5586,-4.5586,-4.5586,-4.5586,-4.5586,-4.9927,-4.9981,-5.0126,-5.0022,-4.953,-4.9349,-4.9008,-4.8545,-4.8338,-4.8281,-4.875,-4.8874,-4.937,-5.0241,-5.149,-5.2343,-5.2854,-5.4029,-5.4693,-5.4882,-5.4844,-5.4901,-5.4901,-5.4901,-5.4901,-5.4901,-5.4871,-5.4822,-5.473,-5.45,-5.4139,-5.3645,-5.2702,-5.2011,-5.1411,-5.0198,-4.9517,-4.9379,-4.8647,-4.8207,-4.8006,-4.7992,-4.8032,-4.813,-4.8187,-4.8226,-4.8267,-4.8306,-4.8324,-4.8324,-4.8324,-4.8324,-4.8324,-4.8324,-4.8324,-4.8324,-4.8324,-4.8324,-4.8324,-4.8324,-4.8324,-4.8324,-4.8324,-4.8324,-4.8324,-4.8324,-4.8324,-4.8324,-4.8324,-4.8324,-4.8324,-4.8324,-4.8324,-4.8324,-4.8324,-4.8324,-4.8324,-4.8344,-4.8402,-4.8495,-4.8587,-4.8802,-4.9048,-4.9154,-4.9473,-4.9949,-5.0229,-5.0336,-5.001,-4.9202,-4.8721,-4.8317,-4.7509,-4.6951,-4.6661,-4.6296,-4.5815,-4.5586,-4.5586,-4.5586,-4.5586,-4.5586,-4.5586,-4.5586,-4.5586,-4.5586,-4.5586,-4.5586,-4.5586,-4.5586,-4.5586,-4.5586,-4.5586,-4.5586,-4.5586,-4.8641,-4.9311,-5.0506,-5.0751,-5.0468,-5.0977,-5.0904,-5.0583,-5.0491,-4.9621,-4.8772,-4.9341,-5.0019,-5.0727,-5.1878,-5.2741,-5.3537,-5.4295,-5.4787,-5.4901,-5.4901,-5.4901,-5.4901,-5.4901,-5.4901,-5.4901,-5.4871,-5.4742,-5.45,-5.4281,-5.3925,-5.3308,-5.2687,-5.2412,-5.2055,-5.0904,-5.0343,-5.0162,-4.9046,-4.8283,-4.7961,-4.7907,-4.7966,-4.8068,-4.813,-4.8206,-4.8265,-4.8286,-4.8286,-4.8324,-4.8324,-4.8324,-4.8324,-4.8324,-4.8324,-4.8324,-4.8324,-4.8324,-4.8324,-4.8324,-4.8324,-4.8324,-4.8324,-4.8324,-4.8324,-4.8324,-4.8324,-4.8324,-4.8324,-4.8324,-4.8324,-4.8324,-4.8324,-4.8324,-4.8324,-4.8324,-4.8324,-4.8402,-4.8495,-4.8587,-4.8697,-4.894,-4.9214,-4.9531,-4.9846,-5.0183,-5.0464,-5.0587,-5.0529,-5.001,-4.9433,-4.8856,-4.7663,-4.7067,-4.6835,-4.6431,-4.597,-4.5643,-4.5586,-4.5586,-4.5586,-4.5586,-4.5586,-4.5586,-4.5586,-4.5586,-4.5586,-4.5586,-4.5586,-4.5586,-4.5586,-4.5586,-4.5586,-4.5586,-4.5586,-4.7971,-4.8514,-4.9709,-5.0186,-5.0211,-5.06,-5.0783,-5.0841,-5.1118,-5.0639,-4.9843,-5.0464,-5.1045,-5.1499,-5.2531,-5.312,-5.384,-5.4522,-5.4825,-5.4901,-5.4901,-5.4901,-5.4901,-5.4901,-5.4901,-5.4901,-5.4871,-5.4711,-5.4315,-5.4052,-5.3663,-5.3138,-5.2944,-5.2725,-5.2335,-5.1502,-5.0868,-5.0615,-4.9257,-4.8375,-4.7873,-4.7819,-4.7861,-4.7966,-4.8028,-4.8087,-4.8187,-4.8265,-4.8286,-4.8286,-4.8324,-4.8324,-4.8324,-4.8324,-4.8324,-4.8324,-4.8324,-4.8324,-4.8324,-4.8324,-4.8324,-4.8324,-4.8324,-4.8324,-4.8324,-4.8324,-4.8324,-4.8324,-4.8324,-4.8324,-4.8324,-4.8324,-4.8324,-4.8324,-4.8324,-4.8324,-4.8365,-4.8458,-4.8568,-4.8697,-4.8839,-4.9057,-4.934,-4.9618,-4.9987,-5.0377,-5.0663,-5.0683,-5.0664,-5.0567,-5.0067,-4.9567,-4.8452,-4.7702,-4.749,-4.6913,-4.6201,-4.5913,-4.5663,-4.5586,-4.5586,-4.5586,-4.5586,-4.5586,-4.5586,-4.5586,-4.5586,-4.5586,-4.5586,-4.5586,-4.5586,-4.5586,-4.5586,-4.5603,-4.5603,-4.7717,-4.7826,-4.8623,-4.9154,-4.9501,-4.9651,-5.0047,-5.0554,-5.1241,-5.1614,-5.1665,-5.2086,-5.2428,-5.2708,-5.329,-5.3613,-5.4048,-5.4636,-5.4863,-5.4901,-5.4901,-5.4901,-5.4901,-5.4901,-5.4901,-5.4871,-5.4791,-5.4514,-5.4158,-5.3814,-5.3428,-5.3011,-5.2761,-5.2498,-5.2063,-5.1357,-5.0705,-5.0289,-4.9329,-4.8297,-4.7916,-4.7735,-4.7777,-4.7861,-4.7902,-4.7984,-4.8087,-4.8187,-4.8208,-4.8286,-4.8286,-4.8324,-4.8324,-4.8324,-4.8324,-4.8324,-4.8324,-4.8324,-4.8324,-4.8324,-4.8324,-4.8324,-4.8324,-4.8324,-4.8324,-4.8324,-4.8324,-4.8324,-4.8324,-4.8324,-4.8324,-4.8324,-4.8324,-4.8324,-4.8324,-4.8363,-4.8458,-4.8512,-4.8676,-4.8822,-4.8959,-4.9155,-4.9461,-4.9749,-5.0081,-5.0483,-5.0683,-5.0683,-5.0644,-5.051,-5.0202,-5.0048,-4.9548,-4.8913,-4.8202,-4.7413,-4.6567,-4.6163,-4.5913,-4.572,-4.5586,-4.5586,-4.5586,-4.5586,-4.5586,-4.5586,-4.5586,-4.5586,-4.5586,-4.5586,-4.5586,-4.5586,-4.5586,-4.5603,-4.564,-4.7699,-4.7772,-4.8568,-4.9299,-4.9936,-5.0509,-5.1289,-5.2013,-5.2741,-5.3244,-5.3213,-5.383,-5.3936,-5.2962,-5.3448,-5.3916,-5.4503,-5.4863,-5.4882,-5.4901,-5.4901,-5.4901,-5.4901,-5.4901,-5.4901,-5.4791,-5.4597,-5.4174,-5.3925,-5.3468,-5.303,-5.2645,-5.2599,-5.2498,-5.2444,-5.181,-5.1375,-5.0723,-4.9927,-4.9021,-4.8424,-4.8152,-4.7753,-4.7759,-4.7861,-4.7902,-4.7984,-4.8108,-4.8187,-4.8226,-4.8286,-4.8324,-4.8324,-4.8324,-4.8324,-4.8324,-4.8324,-4.8324,-4.8324,-4.8324,-4.8324,-4.8324,-4.8324,-4.8324,-4.8324,-4.8324,-4.8324,-4.8324,-4.8324,-4.8324,-4.8324,-4.8324,-4.8324,-4.8343,-4.8361,-4.8438,-4.8532,-4.864,-4.8746,-4.882,-4.8909,-4.9201,-4.9589,-4.983,-5.0057,-5.0418,-5.0683,-5.0683,-5.0683,-5.051,-5.0337,-5.0337,-5.0298,-4.9394,-4.8394,-4.7778,-4.7048,-4.6586,-4.6105,-4.5778,-4.5586,-4.5586,-4.5586,-4.5586,-4.5586,-4.5586,-4.5586,-4.5586,-4.5586,-4.5586,-4.5586,-4.5586,-4.5586,-4.5603,-4.564]}]]